[[{"header":{"parameterUnit":"m.s-1","parameterCategory":1,"la1":30.6,"la2":28.766,"lo1":-90.7593,"lo2":-88.6598,"dy":0.0162,"dx":0.0183,"nx":116,"ny":114,"refTime":"2023-07-25T06:00:00:Z","depth":0,"parameterNumber":2,"parameterNumberName":"U-component_of_WINDS"},"data":[0.0,0.0,0.0,0.0,0.0,0.0,0.0,0.0,0.0,0.0,0.0,0.0,0.0,0.0,0.0,0.0,0.0,0.0,0.0,0.0,0.0,0.0,0.0,0.0,0.0,0.0,0.0,0.0,0.0,0.0,0.0,0.0,0.0,0.0,0.0,0.0,0.0,0.0,0.0,0.0,0.0,0.0,0.0,0.0,0.0,0.0,0.0,0.0,0.0,0.0,0.0,0.0,0.0,0.0,0.0,0.0,0.0,0.0,0.0,0.0,0.0,0.0,0.0,0.0,0.0,0.0,0.0,0.0,0.0,0.0,0.0,0.0,0.0,0.0,0.0,0.0,0.0,0.0,0.0,0.0,0.0,0.0,0.0,0.0,0.0,0.0,0.0,0.0,0.0,0.0,0.0,0.0,0.0,0.0,0.0,0.0,0.0,0.0,0.0,0.0,0.0,0.0,0.0,0.0,0.0,0.0,0.0,0.0,0.0,0.0,0.0,0.0,0.0,0.0,0.0,0.0,0.0,0.0,0.0,0.0,0.0,0.0,0.0,0.0,0.0,0.0,0.0,0.0,0.0,0.0,0.0,0.0,0.0,0.0,0.0,0.0,0.0,0.0,0.0,0.0,0.0,0.0,0.0,0.0,0.0,0.0,0.0,0.0,0.0,0.0,0.0,0.0,0.0,0.0,0.0,0.0,0.0,0.0,0.0,0.0,0.0,0.0,0.0,0.0,0.0,0.0,0.0,0.0,0.0,0.0,0.0,0.0,0.0,0.0,0.0,0.0,0.0,0.0,0.0,0.0,0.0,0.0,0.0,0.0,0.0,0.0,0.0,0.0,0.0,0.0,0.0,0.0,0.0,0.0,0.0,0.0,0.0,0.0,0.0,0.0,0.0,0.0,0.0,0.0,0.0,0.0,0.0,0.0,0.0,0.0,0.0,0.0,0.0,0.0,0.0,0.0,0.0,0.0,0.0,0.0,0.0,0.0,0.0,0.0,0.0,0.0,0.0,0.0,0.0,0.0,0.0,0.0,0.0,0.0,0.0,0.0,0.0,0.0,0.0,0.0,0.0,0.0,0.0,0.0,0.0,0.0,0.0,0.0,0.0,0.0,0.0,0.0,0.0,0.0,0.0,0.0,0.0,0.0,0.0,0.0,0.0,0.0,0.0,0.0,0.0,0.0,0.0,0.0,0.0,0.0,0.0,0.0,0.0,0.0,0.0,0.0,0.0,0.0,0.0,0.0,0.0,0.0,0.0,0.0,0.0,0.0,0.0,0.0,0.0,0.0,0.0,0.0,0.0,0.0,0.0,0.0,0.0,0.0,0.0,0.0,0.0,0.0,0.0,0.0,0.0,0.0,0.0,0.0,0.0,0.0,0.0,0.0,0.0,0.0,0.0,0.0,0.0,0.0,0.0,0.0,0.0,0.0,0.0,0.0,0.0,0.0,0.0,0.0,0.0,0.0,0.0,0.0,0.0,0.0,0.0,0.0,0.0,0.0,0.0,0.0,0.0,0.0,0.0,0.0,0.0,0.0,0.0,0.0,0.0,0.0,0.0,0.0,0.0,0.0,0.0,0.0,0.0,0.0,0.0,0.0,0.0,0.0,0.0,0.0,0.0,0.0,0.0,0.0,0.0,0.0,0.0,0.0,0.0,0.0,0.0,0.0,0.0,0.0,0.0,0.0,0.0,0.0,0.0,0.0,0.0,0.0,0.0,0.0,0.0,0.0,0.0,0.0,0.0,0.0,0.0,0.0,0.0,0.0,0.0,0.0,0.0,0.0,0.0,0.0,0.0,0.0,0.0,0.0,0.0,0.0,0.0,0.0,0.0,0.0,0.0,0.0,0.0,0.0,0.0,0.0,0.0,0.0,0.0,0.0,0.0,0.0,0.0,0.0,0.0,0.0,0.0,0.0,0.0,0.0,0.0,0.0,0.0,0.0,0.0,0.0,0.0,0.0,0.0,0.0,0.0,0.0,0.0,0.0,0.0,0.0,0.0,0.0,0.0,0.0,0.0,0.0,0.0,0.0,0.0,0.0,0.0,0.0,0.0,0.0,0.0,0.0,0.0,0.0,0.0,0.0,0.0,0.0,0.0,0.0,0.0,0.0,0.0,0.0,0.0,0.0,0.0,0.0,0.0,0.0,0.0,0.0,0.0,0.0,0.0,0.0,0.0,0.0,0.0,0.0,0.0,0.0,0.0,0.0,0.0,0.0,0.0,0.0,0.0,0.0,0.0,0.0,0.0,0.0,0.0,0.0,0.0,0.0,0.0,0.0,0.0,0.0,0.0,0.0,0.0,0.0,0.0,0.0,0.0,0.0,0.0,0.0,0.0,0.0,0.0,0.0,0.0,0.0,0.0,0.0,0.0,0.0,0.0,0.0,0.0,0.0,0.0,0.0,0.0,0.0,0.0,0.0,0.0,0.0,0.0,0.0,0.0,0.0,0.0,0.0,0.0,0.0,0.0,0.0,0.0,0.0,0.0,0.0,0.0,0.0,0.0,0.0,0.0,0.0,0.0,0.0,0.0,0.0,0.0,0.0,0.0,0.0,0.0,0.0,0.0,0.0,0.0,0.0,0.0,0.0,0.0,0.0,0.0,0.0,0.0,0.0,0.0,0.0,0.0,0.0,0.0,0.0,0.0,0.0,0.0,0.0,0.0,0.0,0.0,0.0,0.0,0.0,0.0,0.0,0.0,0.0,0.0,0.0,0.0,0.0,0.0,0.0,0.0,0.0,0.0,0.0,0.0,0.0,0.0,0.0,0.0,0.0,0.0,0.0,0.0,0.0,0.0,0.0,0.0,0.0,0.0,0.0,0.0,0.0,0.0,0.0,0.0,0.0,0.0,0.0,0.0,0.0,0.0,0.0,0.0,0.0,0.0,0.0,0.0,0.0,0.0,0.0,0.0,0.0,0.0,0.0,0.0,0.0,0.0,0.0,0.0,0.0,0.0,0.0,0.0,0.0,0.0,0.0,0.0,0.0,0.0,0.0,0.0,0.0,0.0,0.0,0.0,0.0,0.0,0.0,0.0,0.0,0.0,0.0,0.0,0.0,0.0,0.0,0.0,0.0,0.0,0.0,0.0,0.0,0.0,0.0,0.0,0.0,0.0,0.0,0.0,0.0,0.0,0.0,0.0,0.0,0.0,0.0,0.0,0.0,0.0,0.0,0.0,0.0,0.0,0.0,0.0,0.0,0.0,0.0,0.0,0.0,0.0,0.0,0.0,0.0,0.0,0.0,0.0,0.0,0.0,0.0,0.0,0.0,0.0,0.0,0.0,0.0,0.0,0.0,0.0,0.0,0.0,0.0,0.0,0.0,0.0,0.0,0.0,0.0,0.0,0.0,0.0,0.0,0.0,0.0,0.0,0.0,0.0,0.0,0.0,0.0,0.0,0.0,0.0,0.0,0.0,0.0,0.0,0.0,0.0,0.0,0.0,0.0,0.0,0.0,0.0,0.0,0.0,0.0,0.0,0.0,0.0,0.0,0.0,0.0,0.0,0.0,0.0,0.0,0.0,0.0,0.0,0.0,0.0,0.0,0.0,0.0,0.0,0.0,0.0,0.0,0.0,0.0,0.0,0.0,0.0,0.0,0.0,0.0,0.0,0.0,0.0,0.0,0.0,0.0,0.0,0.0,0.0,0.0,0.0,0.0,0.0,0.0,0.0,0.0,0.0,0.0,0.0,0.0,0.0,0.0,0.0,0.0,0.0,0.0,0.0,0.0,0.0,0.0,0.0,0.0,0.0,0.0,0.0,0.0,0.0,0.0,0.0,0.0,0.0,0.0,0.0,0.0,0.0,0.0,0.0,0.0,0.0,0.0,0.0,0.0,0.0,0.0,0.0,0.0,0.0,0.0,0.0,0.0,0.0,0.0,0.0,0.0,0.0,0.0,0.0,0.0,0.0,0.0,0.0,0.0,0.0,0.0,0.0,0.0,0.0,0.0,0.0,0.0,0.0,0.0,0.0,0.0,0.0,0.0,0.0,0.0,0.0,0.0,0.0,0.0,0.0,0.0,0.0,0.0,0.0,0.0,0.0,0.0,0.0,0.0,0.0,0.0,0.0,0.0,0.0,0.0,0.0,0.0,0.0,0.0,0.0,0.0,0.0,0.0,0.0,0.0,0.0,0.0,0.0,0.0,0.0,0.0,0.0,0.0,0.0,0.0,0.0,0.0,0.0,0.0,0.0,0.0,0.0,0.0,0.0,0.0,0.0,0.0,0.0,0.0,0.0,0.0,0.0,0.0,0.0,0.0,0.0,0.0,0.0,0.0,0.0,0.0,0.0,0.0,0.0,0.0,0.0,0.0,0.0,0.0,0.0,0.0,0.0,0.0,0.0,0.0,0.0,0.0,0.0,0.0,0.0,0.0,0.0,0.0,0.0,0.0,0.0,0.0,0.0,0.0,0.0,0.0,0.0,0.0,0.0,0.0,0.0,0.0,0.0,0.0,0.0,0.0,0.0,0.0,0.0,0.0,0.0,0.0,0.0,0.0,0.0,0.0,0.0,0.0,0.0,0.0,0.0,0.0,0.0,0.0,0.0,0.0,0.0,0.0,0.0,0.0,0.0,0.0,0.0,0.0,0.0,0.0,0.0,0.0,0.0,0.0,0.0,0.0,0.0,0.0,0.0,0.0,0.0,0.0,0.0,0.0,0.0,0.0,0.0,0.0,0.0,0.0,0.0,0.0,0.0,0.0,0.0,0.0,0.0,0.0,0.0,0.0,0.0,0.0,0.0,0.0,0.0,0.0,0.0,0.0,0.0,0.0,0.0,0.0,0.0,0.0,0.0,0.0,0.0,0.0,0.0,0.0,0.0,0.0,0.0,0.0,0.0,0.0,0.0,0.0,0.0,0.0,0.0,0.0,0.0,0.0,0.0,0.0,0.0,0.0,0.0,0.0,0.0,0.0,0.0,0.0,0.0,0.0,0.0,0.0,0.0,0.0,0.0,0.0,0.0,0.0,0.0,0.0,0.0,0.0,0.0,0.0,0.0,0.0,0.0,0.0,0.0,0.0,0.0,0.0,0.0,0.0,0.0,0.0,0.0,0.0,0.0,0.0,0.0,0.0,0.0,0.0,0.0,0.0,0.0,0.0,0.0,0.0,0.0,0.0,0.0,0.0,0.0,0.0,0.0,0.0,0.0,0.0,0.0,0.0,0.0,0.0,0.0,0.0,0.0,0.0,0.0,0.0,0.0,0.0,0.0,0.0,0.0,0.0,0.0,0.0,0.0,0.0,0.0,0.0,0.0,0.0,0.0,0.0,0.0,0.0,0.0,0.0,0.0,0.0,0.0,0.0,0.0,0.0,0.0,0.0,0.0,0.0,0.0,0.0,0.0,0.0,0.0,0.0,0.0,0.0,0.0,0.0,0.0,0.0,0.0,0.0,0.0,0.0,0.0,0.0,0.0,0.0,0.0,0.0,0.0,0.0,0.0,0.0,0.0,0.0,0.0,0.0,0.0,0.0,0.0,0.0,0.0,0.0,0.0,0.0,0.0,0.0,0.0,0.0,0.0,0.0,0.0,0.0,0.0,0.0,0.0,0.0,0.0,0.0,0.0,0.0,0.0,0.0,0.0,0.0,0.0,0.0,0.0,0.0,0.0,0.0,0.0,0.0,0.0,0.0,0.0,0.0,0.0,0.0,0.0,0.0,0.0,0.0,0.0,0.0,0.0,0.0,0.0,0.0,0.0,0.0,0.0,0.0,0.0,0.0,0.0,0.0,0.0,0.0,0.0,0.0,0.0,0.0,0.0,0.0,0.0,0.0,0.0,0.0,0.0,0.0,0.0,0.0,0.0,0.0,0.0,0.0,0.0,0.0,0.0,0.0,0.0,0.0,0.0,0.0,0.0,0.0,0.0,0.0,0.0,0.0,0.0,0.0,0.0,0.0,0.0,0.0,0.0,0.0,0.0,0.0,0.0,0.0,0.0,0.0,0.0,0.0,0.0,0.0,0.0,0.0,0.0,0.0,0.0,0.0,0.0,0.0,0.0,0.0,0.0,0.0,0.0,0.0,0.0,0.0,0.0,0.0,0.0,0.0,0.0,0.0,0.0,0.0,0.0,0.0,0.0,0.0,0.0,0.0,0.0,0.0,0.0,0.0,-2.3125,0.0,0.0,0.0,0.0,0.0,0.0,0.0,0.0,0.0,0.0,0.0,0.0,0.0,0.0,0.0,0.0,0.0,0.0,0.0,0.0,0.0,0.0,0.0,0.0,0.0,0.0,0.0,0.0,0.0,0.0,0.0,0.0,0.0,0.0,0.0,0.0,0.0,0.0,0.0,0.0,0.0,0.0,0.0,0.0,0.0,0.0,0.0,0.0,0.0,0.0,0.0,0.0,0.0,0.0,0.0,0.0,0.0,0.0,0.0,0.0,0.0,0.0,0.0,0.0,0.0,0.0,0.0,0.0,0.0,0.0,0.0,0.0,0.0,0.0,0.0,0.0,0.0,0.0,0.0,0.0,0.0,0.0,0.0,0.0,0.0,0.0,0.0,0.0,0.0,0.0,0.0,0.0,0.0,0.0,0.0,0.0,0.0,0.0,0.0,0.0,0.0,0.0,0.0,0.0,0.0,0.0,0.0,0.0,0.0,0.0,0.0,0.0,0.0,0.0,0.0,0.0,-2.3176,0.0,0.0,0.0,0.0,0.0,0.0,0.0,0.0,0.0,0.0,0.0,0.0,0.0,0.0,0.0,0.0,0.0,0.0,0.0,0.0,0.0,0.0,0.0,0.0,0.0,0.0,0.0,0.0,0.0,0.0,0.0,0.0,0.0,0.0,0.0,0.0,0.0,0.0,0.0,0.0,0.0,0.0,0.0,0.0,0.0,0.0,0.0,0.0,0.0,0.0,0.0,0.0,0.0,0.0,0.0,0.0,0.0,0.0,0.0,0.0,0.0,0.0,0.0,0.0,0.0,0.0,0.0,0.0,0.0,0.0,0.0,0.0,0.0,0.0,0.0,0.0,0.0,0.0,0.0,0.0,0.0,0.0,0.0,0.0,0.0,0.0,0.0,0.0,0.0,0.0,0.0,0.0,0.0,0.0,0.0,0.0,0.0,0.0,0.0,0.0,0.0,0.0,0.0,0.0,0.0,0.0,0.0,0.0,-2.339,-2.3539,-2.3335,-2.33,-2.3241,-2.3168,-2.3228,-2.3065,-2.2722,-2.2633,0.0,0.0,0.0,0.0,0.0,0.0,0.0,0.0,0.0,0.0,0.0,0.0,0.0,0.0,0.0,0.0,0.0,0.0,0.0,0.0,0.0,0.0,0.0,0.0,0.0,0.0,0.0,0.0,0.0,0.0,0.0,0.0,0.0,0.0,0.0,0.0,0.0,0.0,-1.6189,-1.6161,-1.6719,-1.7749,-1.7401,0.0,0.0,0.0,0.0,0.0,0.0,0.0,0.0,0.0,0.0,0.0,0.0,0.0,0.0,0.0,0.0,0.0,0.0,0.0,0.0,0.0,0.0,0.0,0.0,0.0,0.0,0.0,0.0,0.0,0.0,0.0,0.0,0.0,0.0,0.0,0.0,0.0,0.0,0.0,0.0,0.0,0.0,0.0,-2.0676,-2.1144,0.0,0.0,0.0,0.0,0.0,0.0,0.0,0.0,0.0,0.0,0.0,0.0,0.0,-2.3198,-2.2604,-2.2834,-2.2652,-2.2063,-2.2433,-2.2494,-2.2298,-2.2622,-2.2592,-2.2267,-2.199,0.0,-2.3213,-2.2252,0.0,0.0,0.0,0.0,0.0,0.0,0.0,0.0,0.0,0.0,0.0,0.0,0.0,0.0,0.0,0.0,0.0,0.0,0.0,0.0,0.0,0.0,0.0,0.0,0.0,0.0,0.0,0.0,0.0,0.0,0.0,0.0,0.0,0.0,0.0,0.0,-1.5167,-1.5497,-1.5323,-1.5864,-1.6293,-1.6588,-1.6588,-1.7335,-1.8563,-1.8441,0.0,0.0,0.0,0.0,0.0,0.0,0.0,0.0,0.0,0.0,0.0,0.0,0.0,0.0,0.0,0.0,0.0,0.0,0.0,0.0,0.0,0.0,0.0,0.0,0.0,0.0,0.0,0.0,0.0,0.0,0.0,0.0,0.0,0.0,0.0,0.0,0.0,0.0,0.0,-2.0458,-2.0595,-2.1132,-2.0948,-2.0879,0.0,0.0,0.0,0.0,0.0,0.0,0.0,0.0,0.0,-2.258,-2.2811,-2.2586,-2.1827,-2.2206,-2.207,-2.1439,-2.1721,-2.1846,-2.1834,-2.1796,-2.1827,-2.1803,-2.1596,-2.1796,-2.2231,-2.1768,-2.1505,-2.1387,0.0,0.0,0.0,0.0,-2.1185,-2.094,0.0,0.0,0.0,0.0,0.0,0.0,0.0,0.0,0.0,0.0,0.0,0.0,0.0,0.0,0.0,-0.8069,0.0,0.0,0.0,0.0,0.0,0.0,0.0,0.0,0.0,0.0,0.0,0.0,-1.4519,-1.4932,-1.4715,-1.5507,-1.5816,-1.5701,-1.5768,-1.681,-1.8509,-1.836,-1.8587,0.0,0.0,0.0,0.0,0.0,0.0,0.0,0.0,0.0,0.0,0.0,0.0,0.0,0.0,0.0,0.0,0.0,0.0,0.0,0.0,0.0,0.0,0.0,0.0,0.0,0.0,0.0,0.0,0.0,0.0,0.0,0.0,0.0,0.0,0.0,0.0,0.0,0.0,-2.0359,-2.0205,-2.0905,-2.0641,-2.0561,0.0,0.0,0.0,0.0,0.0,0.0,-2.2579,-2.2482,-2.2206,-2.1784,-2.2113,-2.1846,-2.0924,-2.1396,-2.1353,-2.0837,-2.1092,-2.125,-2.1333,-2.1187,-2.1155,-2.1207,-2.1028,-2.0944,-2.0985,-2.1315,-2.1241,-2.0957,-2.1414,-2.1469,-2.1275,-2.1635,-2.1464,-2.1029,0.0,0.0,0.0,0.0,0.0,0.0,0.0,0.0,0.0,0.0,0.0,0.0,0.0,0.0,-0.5385,-0.5557,-0.6367,-0.6883,0.0,0.0,0.0,0.0,0.0,0.0,0.0,0.0,0.0,-1.3299,-1.3825,-1.4273,-1.4715,-1.4775,-1.5098,-1.5672,-1.5196,-1.5995,-1.7749,-1.7545,-1.805,-1.8987,0.0,0.0,0.0,0.0,0.0,0.0,0.0,0.0,0.0,0.0,0.0,0.0,0.0,0.0,0.0,0.0,0.0,0.0,0.0,0.0,0.0,0.0,0.0,0.0,0.0,0.0,0.0,0.0,0.0,0.0,0.0,0.0,0.0,0.0,0.0,0.0,0.0,0.0,0.0,-2.0297,-2.0423,0.0,0.0,0.0,0.0,-2.1846,-2.1885,-2.2089,-2.2561,-2.2175,-2.1796,-2.1451,-2.1451,-2.1028,-2.0161,-2.0301,-2.0301,-2.0161,-2.0473,-2.0655,-2.0655,-2.0953,-2.0773,-2.0161,-1.9824,-1.9704,-1.9769,-2.0921,-2.1121,-2.0721,-2.0612,-2.0339,-2.0041,-2.0366,-2.0469,-2.043,0.0,0.0,0.0,0.0,0.0,0.0,0.0,0.0,0.0,0.0,0.0,0.0,0.0,-0.5355,-0.5451,-0.5521,-0.6009,-0.6235,-0.6075,0.0,0.0,0.0,0.0,0.0,0.0,0.0,-1.1469,-1.2128,-1.3161,-1.3644,-1.3614,-1.435,-1.4588,-1.441,-1.4579,-1.5294,-1.6376,-1.6719,-1.7429,-1.8306,-1.8333,-1.8533,0.0,0.0,0.0,0.0,0.0,0.0,0.0,0.0,0.0,0.0,0.0,0.0,0.0,0.0,0.0,0.0,0.0,0.0,0.0,0.0,0.0,0.0,0.0,0.0,0.0,0.0,0.0,0.0,0.0,0.0,0.0,0.0,0.0,0.0,0.0,0.0,0.0,-1.9394,-1.9603,0.0,-2.0174,-2.0506,-2.0907,-2.1408,-2.1129,-2.1144,-2.1659,-2.1293,-2.1008,-2.0892,-2.0892,-2.0732,-2.0431,-2.0463,-2.0355,-2.0096,-2.0009,-1.9944,-1.9944,-1.9846,-1.9813,-1.9758,-1.944,-1.9274,-1.9276,-1.9415,-1.9925,-2.0668,-2.1055,-2.1074,-2.0845,-2.0747,-2.0622,-2.038,0.0,0.0,0.0,0.0,0.0,0.0,0.0,0.0,0.0,0.0,0.0,-0.4589,-0.4894,-0.5024,-0.5087,-0.5156,-0.5418,-0.5517,-0.5286,0.0,0.0,0.0,0.0,0.0,0.0,-0.95,-1.0268,-1.1163,-1.202,-1.2543,-1.2787,-1.3554,-1.3765,-1.3532,-1.3863,-1.4392,-1.5099,-1.5661,-1.6578,-1.7667,-1.7722,-1.7913,-1.8236,0.0,0.0,0.0,0.0,0.0,0.0,0.0,0.0,0.0,0.0,0.0,0.0,0.0,0.0,0.0,0.0,0.0,0.0,0.0,0.0,0.0,0.0,0.0,0.0,0.0,0.0,0.0,0.0,0.0,0.0,0.0,0.0,0.0,0.0,-1.8005,-1.7847,-1.8668,-1.887,-1.9094,-1.9469,-1.9756,-2.0182,-2.0773,-2.0491,-2.0551,-2.1178,-2.0935,-2.0743,-2.0603,-2.0603,-2.0474,-2.0248,-2.0248,-2.015,-1.9911,-1.9704,-1.9605,-1.9605,-1.9206,-1.9099,-1.9154,-1.8779,-1.862,-1.8589,-1.8288,-1.8733,-1.9668,-2.0109,-2.0245,-2.0149,-2.0045,-1.9943,-1.9831,0.0,0.0,0.0,0.0,0.0,0.0,0.0,0.0,0.0,0.0,0.0,-0.3792,-0.3928,-0.3928,-0.4028,-0.4197,-0.4395,-0.4525,-0.4525,-0.5322,0.0,0.0,0.0,0.0,-0.765,-0.8188,-0.909,-1.0451,-1.0332,-1.0961,-1.2235,-1.2235,-1.2573,-1.313,-1.3009,-1.329,-1.3941,-1.4291,-1.5468,-1.7052,-1.7,-1.6983,-1.7067,0.0,0.0,0.0,0.0,0.0,0.0,0.0,0.0,0.0,0.0,0.0,0.0,0.0,0.0,0.0,0.0,0.0,0.0,0.0,0.0,0.0,0.0,0.0,0.0,0.0,0.0,0.0,0.0,0.0,0.0,0.0,0.0,0.0,-1.7809,-1.7498,-1.7432,-1.8178,-1.8275,-1.8275,-1.8275,-1.8709,-1.9309,-1.9998,-2.0063,-2.0399,-2.1126,-2.1158,-2.0967,-2.0571,-2.0571,-2.0248,-1.9572,-1.9572,-1.9572,-1.9518,-1.9518,-1.9507,-1.9475,-1.9019,-1.8648,-1.8298,-1.7843,-1.7668,-1.7668,-1.7657,-1.7616,-1.7647,-1.7668,-1.7709,-1.776,-1.8057,-1.8371,-1.8698,0.0,0.0,0.0,0.0,0.0,0.0,0.0,0.0,0.0,0.0,-0.2048,-0.2149,-0.2582,-0.2549,-0.2515,-0.2549,-0.248,-0.2648,-0.3188,0.0,0.0,0.0,0.0,0.0,-0.6944,-0.7111,-0.7795,-0.9058,-0.95,-1.0034,-1.064,-1.1121,-1.1447,-1.16,-1.1569,-1.1779,-1.2197,-1.2565,-1.3248,-1.4266,-1.5767,-1.6662,-1.709,0.0,0.0,0.0,0.0,0.0,0.0,0.0,0.0,0.0,0.0,0.0,0.0,0.0,0.0,0.0,0.0,0.0,0.0,0.0,0.0,0.0,0.0,0.0,0.0,0.0,0.0,0.0,0.0,0.0,0.0,0.0,-1.6244,-1.6244,-1.7079,-1.6822,-1.6749,-1.7233,-1.7759,-1.8085,-1.8085,-1.8629,-1.9077,-1.9276,-1.9309,-1.9639,-2.0366,-2.0183,-1.9922,-1.9671,-2.0031,-1.9671,-1.8442,-1.9077,-1.8901,-1.8006,-1.8006,-1.7715,-1.7192,-1.7064,-1.6951,-1.6877,-1.6738,-1.6689,-1.667,-1.6305,-1.6169,-1.6281,-1.7307,-1.7864,-1.8037,-1.7779,-1.781,-1.7951,0.0,0.0,0.0,0.0,0.0,0.0,0.0,0.0,0.0,0.0,-0.1509,-0.1611,-0.2045,-0.1978,-0.1911,-0.1911,0.0,0.0,-0.2079,0.0,0.0,0.0,0.0,-0.4574,-0.5097,-0.5632,-0.6322,-0.7167,-0.7478,-0.7964,-0.8581,-0.9191,-0.9648,-0.9913,-0.9996,-1.0141,-1.0349,-1.0586,-1.0923,-1.1412,-1.2808,-1.4166,-1.5332,-1.5467,-1.5197,-1.4721,-1.4857,-1.4866,-1.4778,-1.472,0.0,0.0,0.0,0.0,0.0,0.0,0.0,0.0,0.0,0.0,0.0,0.0,0.0,0.0,0.0,0.0,0.0,0.0,0.0,0.0,0.0,0.0,0.0,0.0,-1.5498,-1.5436,-1.5868,-1.6285,-1.6652,-1.6881,-1.727,-1.7468,-1.7297,-1.7648,-1.8005,-1.8304,-1.8261,-1.8596,-1.9519,-1.9287,-1.9088,-1.8967,-1.9099,-1.8711,-1.7752,-1.8069,-1.7805,-1.6935,-1.6935,-1.6712,-1.6291,-1.6097,-1.6021,-1.6011,-1.5799,-1.5723,-1.5704,-1.5415,-1.5311,0.0,0.0,0.0,0.0,0.0,-1.6594,-1.68,0.0,0.0,0.0,0.0,0.0,0.0,0.0,0.0,0.0,0.0,0.0,-0.1476,-0.1812,-0.171,-0.1643,-0.1643,0.0,-0.1274,0.0,0.0,0.0,-0.1805,-0.2843,-0.3211,-0.2778,-0.3877,-0.4604,-0.4923,-0.4866,-0.5325,-0.6294,-0.6835,-0.7422,-0.806,-0.8233,-0.8292,-0.8286,-0.8457,-0.851,-0.8536,-0.9,-1.0456,-1.2509,-1.3725,-1.3374,-1.2365,-1.3511,-1.3915,-1.3793,-1.3266,0.0,0.0,0.0,0.0,0.0,0.0,0.0,0.0,0.0,0.0,0.0,0.0,0.0,0.0,0.0,0.0,0.0,0.0,0.0,0.0,0.0,0.0,0.0,0.0,-1.453,-1.4494,-1.4601,-1.5754,-1.6656,-1.676,-1.6724,-1.6578,-1.6379,-1.6273,-1.6522,-1.7214,-1.7096,-1.7482,-1.8569,0.0,0.0,0.0,0.0,-1.77,-1.7209,-1.6889,-1.6507,-1.6109,-1.6062,-1.6047,-1.598,-1.5548,-1.5348,-1.5338,-1.4934,-1.4745,-1.4745,-1.4745,-1.4745,-1.4765,-1.4836,-1.4876,-1.4887,-1.5005,-1.5263,-1.557,0.0,0.0,0.0,0.0,0.0,0.0,0.0,0.0,0.0,0.0067,0.0101,0.0034,-0.0135,-0.0135,-0.0067,0.0,0.0236,0.0168,0.0,0.0,-0.1242,-0.1242,-0.1477,-0.1676,-0.1839,-0.2104,-0.2368,-0.273,-0.3133,-0.363,-0.4282,-0.4815,-0.5373,-0.5894,-0.5927,-0.5858,-0.5719,-0.603,-0.6087,-0.6015,-0.6391,-0.8106,-1.0405,-1.0039,-1.0127,-1.0423,-0.9989,-1.0159,-1.0656,-1.1093,-1.1489,-1.1866,-1.2335,0.0,0.0,0.0,0.0,0.0,0.0,0.0,0.0,0.0,0.0,0.0,0.0,0.0,0.0,0.0,0.0,0.0,0.0,0.0,0.0,-1.4266,-1.4006,-1.3926,-1.453,-1.47,-1.51,-1.5903,-1.5566,-1.5609,-1.6477,-1.6147,-1.6059,-1.6477,-1.6469,-1.6798,-1.7643,-1.7643,-1.7541,-1.7379,-1.7779,-1.7368,-1.6122,-1.6141,-1.5779,-1.5026,0.0,0.0,-1.4022,-1.3952,-1.3926,-1.3887,-1.3817,-1.3773,-1.3773,-1.3773,-1.3773,-1.3837,-1.4544,-1.4817,-1.4863,-1.5137,-1.5295,-1.5351,0.0,0.0,0.0,0.0,0.0,0.0,0.0,0.0,0.0,0.0,0.064,0.0573,0.0404,0.0808,0.0975,0.0,0.1144,0.0,0.0,0.1273,0.1106,0.1206,0.0737,0.0468,0.04,-0.03,-0.0467,-0.01,-0.1002,-0.1503,-0.1596,-0.2232,-0.2762,-0.3185,-0.3088,-0.2887,-0.265,-0.2715,-0.2713,-0.2645,-0.2839,-0.3708,-0.5152,-0.6934,-0.7752,-0.797,-0.803,-0.8495,-0.9061,-0.9061,-0.947,-1.0008,-1.011,-1.0305,-1.0528,0.0,0.0,0.0,0.0,0.0,0.0,0.0,0.0,0.0,0.0,0.0,0.0,0.0,0.0,-1.293,-1.3165,0.0,-1.3048,-1.348,-1.3236,-1.3068,-1.3258,-1.312,-1.3513,-1.4887,-1.469,-1.4576,-1.4969,-1.4777,-1.4855,-1.5394,-1.4977,-1.5113,-1.6105,-1.5685,-1.5403,-1.5305,-1.5401,-1.5108,-1.4379,-1.4211,-1.3945,-1.3484,-1.3303,-1.3089,-1.2908,-1.2908,-1.2822,-1.2688,-1.2688,-1.2617,-1.2512,-1.2512,-1.2512,-1.2533,-1.2785,-1.34,-1.415,-1.4213,-1.4383,-1.4534,0.0,0.0,0.0,0.0,0.0,0.0,0.0,0.0,0.0,0.0,0.0,0.101,0.0976,0.1646,0.1879,0.0,0.0,0.0,0.0,0.3215,0.3284,0.342,0.2711,0.2406,0.2603,0.1502,0.1368,0.23,0.1172,0.077,0.1068,0.0435,0.0,-0.03,-0.01,0.0133,0.0466,0.06,0.07,0.0733,0.0733,0.0733,0.0333,-0.3209,-0.4801,-0.5245,-0.6009,-0.6798,-0.7441,-0.7107,-0.759,-0.8286,-0.8081,-0.8194,-0.8506,-0.8747,-0.9153,0.0,0.0,0.0,0.0,0.0,0.0,0.0,0.0,-1.2811,-1.2615,-1.2805,-1.2387,-1.2086,-1.2445,-1.2611,-1.2673,-1.2645,-1.2574,-1.2361,-1.1974,-1.1781,-1.2174,-1.3578,-1.367,-1.3587,-1.3462,-1.3352,-1.3588,-1.4319,-1.3649,-1.3595,-1.4565,-1.3926,-1.3499,-1.3499,-1.3178,-1.3011,-1.3011,-1.2622,-1.2422,-1.2422,-1.2357,-1.2258,-1.2234,-1.2234,-1.2094,-1.1829,-1.1829,-1.1701,-1.1516,-1.1516,-1.1516,-1.1456,-1.1215,-1.1904,-1.3089,-1.2865,-1.2974,-1.3224,0.0,0.0,0.0,0.0,0.0,0.0,0.0,0.0,0.0,0.0,0.0,0.0,0.0,0.0,0.0,0.0,0.0,0.0,0.3182,0.3215,0.3215,0.3215,0.3149,0.3182,0.3384,0.3215,0.3349,0.3777,0.3147,0.2945,0.3139,0.2737,0.2501,0.2468,0.2664,0.2861,0.3062,0.3098,0.3164,0.3299,0.3299,0.3299,0.323,0.2621,0.0331,-0.2492,-0.233,-0.3096,-0.4359,-0.5223,-0.5723,-0.6216,-0.7562,-0.8096,-0.8343,-0.8842,-0.9468,-1.009,-1.0492,-1.1101,-1.152,-1.1062,-1.1469,-1.1813,0.0,-1.163,-1.2003,-1.2034,-1.208,-1.216,-1.224,-1.2605,-1.2719,-1.2228,-1.235,-1.2323,-1.1825,-1.1558,-1.1521,-1.17,-1.2015,-1.2593,-1.3555,-1.3226,-1.3139,-1.3598,-1.3512,-1.3491,-1.3637,-1.3571,-1.3499,-1.3499,-1.3462,-1.3447,-1.3447,-1.3026,-1.2838,-1.2831,-1.2465,-1.2183,-1.1942,-1.1942,-1.1793,-1.1536,-1.1536,-1.1514,-1.1516,-1.1516,-1.1516,-1.1509,-1.1441,-1.1542,-1.1689,-1.1353,-1.1264,-1.1383,0.0,0.0,0.0,0.0,0.0,0.0,0.0,0.0,0.0,0.0,0.0,0.0,0.0,0.0,0.0,0.0,0.0,0.0,0.5038,0.5434,0.5698,0.5826,0.5694,0.5727,0.5928,0.5625,0.5756,0.6314,0.5482,0.5315,0.5771,0.5268,0.5166,0.5363,0.5552,0.5785,0.6057,0.6057,0.609,0.6127,0.5709,0.5548,0.5515,0.5067,0.3595,0.156,0.0266,-0.1199,0.0,0.0,-0.387,-0.4367,-0.5361,-0.5928,-0.6362,-0.6988,-0.745,-0.802,-0.9174,-1.0054,-1.0625,-1.0481,-1.0744,-1.0938,-1.0565,-1.0787,-1.1179,-1.1477,-1.1193,-1.1062,-1.179,-1.1611,-1.1269,-1.0873,-1.0857,-1.0684,-1.0219,-0.9938,-0.983,-0.983,-0.9963,-1.064,-1.205,-1.1995,-1.2128,-1.2762,-1.2365,-1.2328,-1.2776,-1.2365,-1.21,-1.21,-1.21,-1.21,-1.21,-1.1952,-1.1857,-1.185,-1.1527,-1.1325,-1.1207,-1.1044,-1.0803,-1.0555,-1.0385,-1.0345,-1.0345,-1.0345,-1.0345,-1.0345,-1.0345,-1.0345,-1.0426,-1.1038,-1.1295,-1.131,0.0,0.0,0.0,0.0,0.0,0.0,0.0,0.0,0.0,0.0,0.0,0.0,0.0,0.0,0.0,0.0,0.0,0.0,0.0,0.7153,0.7451,0.7609,0.7484,0.7484,0.7707,0.7307,0.7432,0.8064,0.7293,0.7186,0.777,0.7621,0.7676,0.7965,0.8334,0.8659,0.8905,0.8867,0.8777,0.857,0.8088,0.777,0.7558,0.7088,0.6162,0.4863,0.2594,0.0733,0.0,0.0,-0.2004,-0.2639,-0.3276,-0.391,-0.4573,-0.5183,-0.5775,-0.6481,-0.7851,-0.8727,-0.9263,-0.9415,-0.9689,-0.9897,-0.9752,-1.0004,-1.0393,-1.0772,-1.0365,-1.0183,-1.1058,-1.0707,-1.019,-0.9848,-0.9745,-0.9537,-0.9058,-0.8808,-0.8703,-0.8703,-0.8703,-0.9155,-1.0319,-1.0625,-1.0999,-1.1595,-1.1298,-1.126,-1.1632,-1.1074,-1.0663,-1.0432,-1.0389,-1.0351,-1.0351,-1.0314,-1.0276,-1.0276,-1.0104,-0.9952,-0.9801,-0.9737,-0.9631,-0.9511,-0.9297,-0.9119,-0.8926,-0.9151,-0.9221,-0.9247,-0.9414,-0.9516,-0.9606,-1.0591,-1.0961,-1.0947,0.0,0.0,0.0,0.0,0.0,0.0,0.0,0.0,0.0,0.0,0.0,0.0,0.0,0.0,0.0,0.0,0.0,0.0,0.0,0.7484,0.7419,0.7419,0.7419,0.7484,0.7707,0.7674,0.7837,0.8199,0.8166,0.8323,0.8667,0.9514,0.9983,1.0135,1.094,1.1305,1.1381,1.1305,1.0954,1.0418,1.0387,0.9996,0.9422,0.939,0.8339,0.6608,0.483,0.0,0.0,0.0735,-0.0167,-0.1038,-0.1873,-0.2808,-0.3596,-0.3966,-0.5155,-0.6485,-0.6945,-0.7296,-0.7574,-0.7579,-0.8061,-0.8558,-0.8567,-0.9159,-0.9751,-0.9761,-0.9833,-0.9923,-0.9966,-1.0139,-1.011,-0.9597,-0.9601,-0.951,-0.8976,-0.8783,-0.8703,-0.8703,-0.8703,-0.8699,-0.8775,-0.9463,-0.9954,-0.996,-1.0663,-1.0775,-0.9992,-0.9954,-0.9576,-0.8813,-0.8575,-0.8494,-0.8494,-0.8309,-0.8194,-0.819,-0.8249,-0.8047,-0.7606,-0.8056,-0.8376,-0.8533,-0.8522,-0.8134,-0.7517,-0.8231,-0.8522,-0.8587,-0.9247,-0.9516,-0.9516,-0.9548,-0.9574,-0.9538,0.0,0.0,0.0,0.0,0.0,0.0,0.0,0.0,0.0,0.0,0.0,0.0,0.0,0.0,0.0,0.0,0.0,0.0,0.0,0.8875,0.892,0.8797,0.9346,0.9685,0.9748,1.04,1.0815,1.0909,1.1128,1.1315,1.1439,1.1904,1.2151,1.2204,1.2602,1.2824,1.2824,1.2793,1.2671,1.2404,1.1533,1.1041,1.0735,0.9741,0.893,0.8205,0.0,0.0,0.0,0.2706,0.1736,0.0669,0.0033,-0.097,-0.1988,-0.2423,-0.3911,-0.5318,-0.4907,-0.6074,-0.728,-0.6916,-0.7454,-0.797,-0.7624,-0.7869,-0.8233,-0.8522,-0.8239,-0.8143,-0.8821,-0.8536,-0.8087,-0.7839,-0.7804,-0.775,-0.7498,-0.7329,-0.7222,-0.7222,-0.7165,-0.7103,-0.7103,-0.8322,-0.9122,-0.9122,-0.9344,-0.9382,-0.9117,-0.896,-0.8765,-0.8499,-0.8309,-0.8194,-0.8194,-0.8118,-0.808,-0.8114,-0.8006,-0.7706,-0.731,-0.7546,-0.7712,-0.7777,-0.7777,-0.7614,-0.7419,-0.7679,-0.7777,-0.7809,-0.8009,-0.8107,-0.8107,-0.8107,-0.8041,-0.8091,0.0,0.0,0.0,0.0,0.0,0.0,0.0,0.0,0.0,0.0,0.0,0.0,0.0,0.0,0.0,0.0,0.0,0.0,0.0,0.0,1.0277,1.0231,1.0867,1.1267,1.1337,1.1958,1.242,1.2618,1.2954,1.3226,1.3459,1.396,1.4227,1.4325,1.466,1.4807,1.4807,1.4807,1.4664,1.4312,1.329,1.2713,1.2266,1.0965,1.0129,0.0,0.0,0.0,0.0,0.483,0.3571,0.2341,0.1972,0.087,-0.0472,-0.1303,-0.2561,-0.3576,-0.3156,-0.4225,-0.5423,-0.5156,-0.5558,-0.5935,-0.5638,-0.5817,-0.6146,-0.6411,-0.6199,-0.6165,-0.6853,-0.6744,-0.6445,-0.6054,-0.622,-0.6373,-0.6282,-0.6147,-0.6165,-0.6478,-0.6429,-0.6358,-0.6306,-0.7215,-0.7978,-0.8246,-0.8551,-0.8546,-0.8199,-0.8042,-0.7808,-0.7429,-0.7199,-0.7084,-0.7084,-0.7011,-0.7019,-0.7026,-0.6856,-0.6816,-0.6892,-0.6927,-0.6957,-0.7055,-0.7055,-0.6896,-0.6699,-0.6961,-0.7055,-0.706,-0.7321,-0.7386,-0.7386,-0.7386,-0.724,-0.718,0.0,0.0,0.0,0.0,0.0,0.0,0.0,0.0,0.0,0.0,0.0,0.0,0.0,0.0,0.0,0.0,0.0,0.0,0.0,0.0,0.0,1.1522,1.1865,1.2135,1.2358,1.242,1.274,1.33,1.3652,1.4111,1.4721,1.562,1.6154,1.6373,1.6929,1.7202,1.7202,1.7202,1.6759,1.6018,1.5586,1.4902,1.4044,1.294,0.0,0.0,0.0,0.0,0.8355,0.6967,0.5335,0.3889,0.3792,0.2579,0.0938,-0.047,-0.1128,-0.1429,-0.1607,-0.192,-0.2216,-0.2411,-0.261,-0.2774,-0.2778,-0.3225,-0.368,-0.3683,-0.394,-0.4189,-0.4194,-0.4976,-0.5317,-0.4467,-0.4961,-0.5459,-0.5459,-0.5355,-0.5611,-0.6347,-0.6488,-0.6467,-0.6323,-0.631,-0.6613,-0.7369,0.0,-0.8122,-0.7203,-0.7126,-0.663,-0.5598,-0.5398,-0.5282,-0.5282,-0.5093,-0.5029,-0.5087,-0.4966,-0.5374,-0.623,-0.6122,-0.6174,-0.6334,-0.6334,-0.5976,-0.5462,-0.6075,-0.6334,-0.64,-0.706,-0.7288,-0.7288,-0.7279,-0.702,-0.6708,0.0,0.0,0.0,0.0,0.0,0.0,0.0,0.0,0.0,0.0,0.0,0.0,0.0,0.0,0.0,0.0,0.0,0.0,0.0,0.0,0.0,0.0,0.0,0.0,0.0,0.0,0.0,0.0,0.0,1.5661,1.6024,1.6404,1.6743,1.6996,1.7146,1.7202,1.7202,1.7202,1.7071,1.6818,0.0,1.5264,1.4898,0.0,0.0,0.0,0.0,0.0,0.9102,0.8091,0.6584,0.4942,0.3716,0.3049,0.2546,0.2043,0.1076,0.0272,0.0451,-0.0776,-0.2051,-0.1683,-0.2085,-0.2563,-0.2571,-0.283,-0.3133,-0.3429,-0.3645,-0.3906,-0.414,-0.4447,-0.4601,-0.4334,-0.449,-0.4608,-0.4608,-0.5089,-0.5522,-0.5746,-0.629,-0.6583,-0.6474,-0.6304,-0.6258,-0.6296,-0.6518,-0.6514,-0.6244,-0.5935,-0.5667,-0.5398,-0.5168,-0.5093,-0.5093,-0.5015,-0.4955,-0.4868,-0.504,-0.5196,-0.5337,-0.5494,-0.5591,-0.5653,-0.5653,-0.5557,-0.5428,-0.5587,-0.5653,-0.5686,-0.5851,-0.5918,-0.5903,-0.5743,-0.5568,-0.5381,0.0,0.0,0.0,0.0,0.0,0.0,0.0,0.0,0.0,0.0,0.0,0.0,0.0,0.0,0.0,0.0,0.0,0.0,0.0,0.0,0.0,0.0,0.0,0.0,0.0,0.0,0.0,0.0,0.0,0.0,0.0,1.7573,1.7847,1.7984,1.7984,1.7984,1.7984,0.0,0.0,0.0,0.0,0.0,0.0,0.0,0.0,0.0,0.0,0.0,0.9466,0.8361,0.692,0.5375,0.4082,0.3685,0.3582,0.3149,0.2445,0.1716,0.1503,0.0419,-0.0645,-0.0701,-0.1058,-0.1386,-0.1406,-0.1645,-0.1888,-0.211,-0.2421,-0.2698,-0.2899,-0.333,-0.3534,-0.3087,-0.34,-0.3667,-0.3667,-0.407,-0.4507,-0.4856,-0.5267,-0.5496,-0.5315,-0.5141,-0.497,-0.4813,-0.5395,-0.5592,-0.5121,-0.4888,-0.4577,-0.4066,-0.3951,-0.3915,-0.3915,-0.3915,-0.3928,-0.391,-0.411,-0.4336,-0.4653,-0.4837,-0.5084,-0.5395,0.0,-0.5395,-0.5395,-0.5395,-0.5395,-0.5395,-0.5395,-0.5395,-0.5375,-0.5186,-0.5009,-0.4897,0.0,0.0,0.0,0.0,0.0,0.0,0.0,0.0,0.0,0.0,0.0,0.0,0.0,0.0,0.0,0.0,0.0,0.0,0.0,0.0,0.0,0.0,0.0,0.0,0.0,0.0,0.0,0.0,0.0,0.0,0.0,0.0,0.0,0.0,0.0,0.0,0.0,0.0,0.0,0.0,0.0,0.0,0.0,0.0,0.0,0.0,0.0,1.0579,0.944,0.8134,0.6859,0.5679,0.4752,0.4456,0.432,0.3651,0.3328,0.2971,0.2124,0.1683,0.1313,0.0512,0.0341,0.0313,0.0196,-0.0118,-0.0432,-0.0589,-0.0938,-0.1263,-0.1305,-0.2049,-0.2419,-0.1524,-0.2152,-0.2688,-0.2688,-0.2823,-0.3158,-0.3839,-0.4049,-0.4026,-0.3818,-0.3587,-0.3423,-0.3344,-0.4465,-0.4813,-0.399,-0.391,-0.3441,-0.2543,-0.2503,-0.2503,-0.2503,-0.2503,-0.2582,-0.2817,-0.2863,-0.3356,-0.423,-0.4282,-0.472,-0.5426,-0.5402,0.0,-0.5395,-0.5395,-0.5395,-0.5395,-0.5395,-0.5395,-0.5375,-0.5186,-0.504,-0.4924,0.0,0.0,0.0,0.0,0.0,0.0,0.0,0.0,0.0,0.0,0.0,0.0,0.0,0.0,0.0,0.0,0.0,0.0,0.0,0.0,0.0,0.0,0.0,0.0,0.0,0.0,0.0,0.0,0.0,0.0,0.0,0.0,0.0,0.0,0.0,0.0,0.0,0.0,0.0,0.0,0.0,0.0,0.0,0.0,0.0,0.0,1.0793,0.9588,0.8619,0.7934,0.7414,0.6863,0.562,0.5193,0.516,0.4855,0.4391,0.3882,0.347,0.2949,0.2452,0.2162,0.2075,0.1909,0.1209,0.0862,0.0392,-0.0432,-0.0857,-0.1095,-0.1263,-0.1482,-0.1614,-0.1436,-0.1524,-0.1659,-0.1659,-0.2374,-0.2953,-0.3075,-0.3781,-0.4138,-0.3735,-0.3537,-0.3261,-0.2946,-0.3007,-0.3051,-0.3012,-0.2856,-0.2699,-0.2503,-0.2503,-0.2503,-0.2503,-0.2503,-0.2582,-0.2817,-0.2863,-0.3464,-0.4455,-0.4354,-0.4769,-0.5542,-0.545,0.0,-0.5395,-0.5395,-0.5395,-0.5395,-0.5395,-0.5395,-0.5375,-0.5186,-0.5099,-0.5042,0.0,0.0,0.0,0.0,0.0,0.0,0.0,0.0,0.0,0.0,0.0,0.0,0.0,0.0,0.0,0.0,0.0,0.0,0.0,0.0,0.0,0.0,0.0,0.0,0.0,0.0,1.4765,1.4942,0.0,0.0,0.0,1.739,1.7733,1.776,0.0,0.0,0.0,0.0,0.0,0.0,0.0,0.0,0.0,0.0,0.0,0.0,0.0,0.944,0.885,0.7804,0.7419,0.7161,0.5815,0.545,0.5481,0.5271,0.4988,0.4594,0.3921,0.3491,0.3089,0.2631,0.2512,0.239,0.203,0.1331,0.0588,0.0118,-0.0611,-0.1179,-0.1263,-0.1352,-0.1391,-0.1391,-0.1391,-0.1391,-0.1391,-0.1793,-0.2107,-0.2107,-0.2508,-0.2663,-0.2306,-0.2127,-0.1873,-0.1505,-0.1311,-0.1449,-0.1996,-0.1488,-0.1214,-0.1214,-0.1214,-0.1214,-0.1214,-0.1214,-0.1371,-0.1646,-0.1705,-0.2294,-0.3359,-0.3277,-0.3692,-0.4397,-0.4338,0.0,-0.4824,-0.4824,-0.5057,-0.5395,-0.5395,-0.5395,-0.5375,-0.5186,-0.5099,-0.5099,0.0,0.0,0.0,0.0,0.0,0.0,0.0,0.0,0.0,0.0,0.0,0.0,0.0,0.0,0.0,0.0,0.0,0.0,0.0,0.0,0.0,0.0,0.0,0.0,0.0,0.0,0.0,1.441,1.5449,0.0,0.0,0.0,0.0,0.0,1.7968,1.8251,1.8131,0.0,0.0,0.0,0.0,1.5862,0.0,0.0,0.0,0.0,0.0,0.9452,0.9151,0.7702,0.7214,0.7052,0.5746,0.5412,0.5459,0.5281,0.5202,0.5013,0.4244,0.3955,0.3768,0.3194,0.3048,0.2973,0.2817,0.18,0.0822,0.0627,-0.0407,-0.1305,-0.1305,-0.1352,-0.1391,-0.1391,-0.1391,-0.1391,-0.1391,-0.1391,-0.1391,-0.1345,-0.1345,-0.1203,-0.0922,-0.0727,-0.0543,-0.0246,-0.008,-0.0314,-0.098,-0.0353,0.0,0.0,0.0,0.0,0.0,0.0,-0.0196,-0.0589,-0.0589,-0.1204,-0.2323,-0.2312,-0.2689,-0.3346,-0.3326,0.0,0.0,-0.4051,-0.442,-0.4924,-0.4924,-0.5024,-0.5147,-0.4993,-0.5021,-0.5148,0.0,0.0,0.0,0.0,0.0,0.0,0.0,0.0,0.0,0.0,0.0,0.0,0.0,0.0,0.0,0.0,0.0,0.0,0.0,0.0,0.0,0.0,0.0,0.0,0.0,0.0,0.0,1.342,1.438,0.0,0.0,0.0,0.0,0.0,0.0,1.7157,1.6557,1.724,0.0,0.0,0.0,0.0,0.0,0.0,0.0,0.0,0.0,0.9318,0.885,0.7605,0.7047,0.6625,0.5428,0.5141,0.5209,0.4997,0.5015,0.5035,0.4777,0.4792,0.4844,0.4805,0.4774,0.4582,0.3832,0.2696,0.1564,0.0744,-0.0407,-0.1305,-0.1305,-0.1352,-0.1391,-0.1391,-0.1391,-0.1391,-0.1391,-0.1391,-0.1345,-0.1166,-0.1121,-0.0941,-0.0492,-0.0431,-0.0337,-0.0042,0.0,-0.0039,-0.0118,-0.0039,0.0,0.0,0.0,0.0,0.0,0.0,-0.0196,-0.0589,-0.0589,-0.1254,-0.2461,-0.2368,-0.2716,-0.3473,-0.3354,-0.3301,0.0,-0.3316,-0.3351,-0.3416,-0.3416,-0.3818,-0.4386,-0.4375,-0.4782,-0.5381,0.0,0.0,0.0,0.0,0.0,0.0,0.0,0.0,0.0,0.0,0.0,0.0,0.0,0.0,0.0,0.0,0.0,0.0,0.0,0.0,0.0,0.0,0.0,0.0,0.0,0.0,1.1965,1.2235,1.2779,0.0,0.0,0.0,0.0,0.0,0.0,1.6567,1.6312,1.6613,0.0,0.0,0.0,0.0,0.0,0.0,0.0,0.0,0.0,0.0,0.8004,0.6695,0.6282,0.6159,0.5148,0.4936,0.5081,0.5041,0.5107,0.5169,0.498,0.4941,0.5018,0.5018,0.5018,0.4859,0.4304,0.2971,0.172,0.1135,-0.0204,-0.1305,-0.1305,-0.1352,-0.1391,-0.1391,0.0,-0.1391,-0.1391,-0.1391,-0.139,-0.13,-0.1166,-0.0942,-0.0628,-0.0475,-0.0291,0.0,0.0,0.0,0.0,0.0,0.0,0.0,0.0,0.0,0.0,0.0,-0.0157,-0.0432,-0.055,-0.0942,-0.153,-0.1632,-0.187,-0.212,-0.2066,-0.2258,0.0,-0.2565,-0.2815,-0.3215,-0.3215,-0.3382,-0.3651,-0.3651,-0.3982,-0.4489,0.0,0.0,0.0,0.0,0.0,0.0,0.0,0.0,0.0,0.0,0.0,0.0,0.0,0.0,0.0,0.0,0.0,0.0,0.0,0.0,0.0,0.0,0.0,0.0,0.0,0.0,1.0878,1.0972,1.1571,1.1981,0.0,0.0,1.3528,1.3791,0.0,0.0,0.0,0.0,0.0,0.0,0.0,0.0,0.0,0.0,0.0,0.0,0.0,0.0,0.0,0.0,0.0,0.5668,0.4928,0.4795,0.4953,0.505,0.5136,0.5168,0.5054,0.5018,0.5018,0.5018,0.4898,0.4701,0.4226,0.287,0.1543,0.1108,-0.0247,-0.1317,-0.1317,-0.1358,-0.1391,0.0,0.0,-0.1391,-0.1391,-0.1391,-0.1391,-0.13,-0.1121,-0.0897,-0.0628,-0.0432,-0.0207,0.0,0.0,0.0,0.0,0.0,0.0,0.0,0.0,0.0,0.0,0.0,-0.0118,-0.0314,-0.051,-0.0707,-0.0904,-0.1178,-0.1279,-0.121,-0.1217,0.0,0.0,-0.1834,-0.2114,-0.2581,-0.2581,-0.2714,-0.2882,-0.2882,-0.3177,-0.3704,0.0,0.0,0.0,0.0,0.0,0.0,0.0,0.0,0.0,0.0,0.0,0.0,0.0,0.0,0.0,0.0,0.0,0.0,0.0,0.0,0.0,0.0,0.0,0.0,0.0,0.0,0.0,0.973,1.0909,1.1671,1.2012,1.2235,1.2445,1.2717,0.0,0.0,0.0,0.0,0.0,0.0,0.0,0.0,0.0,0.0,0.0,0.0,0.0,0.0,0.0,0.0,0.0,0.0,0.0,0.4735,0.0,0.0,0.5015,0.5018,0.5018,0.5018,0.5018,0.5018,0.4701,0.4226,0.3556,0.2271,0.1055,0.0446,-0.0589,-0.139,-0.139,-0.1414,-0.1391,-0.1391,0.0,0.0,-0.1391,-0.1391,-0.1345,-0.1121,-0.0852,-0.0628,-0.0403,-0.0173,0.0,0.0,0.0,0.0,0.0,0.0,0.0,0.0,0.0,0.0,0.0,0.0,-0.0118,-0.0314,-0.051,-0.0707,-0.0904,-0.1178,-0.1279,-0.121,-0.1217,0.0,0.0,-0.1122,-0.1109,-0.1109,-0.1109,-0.1511,-0.2114,-0.2114,-0.2581,-0.3268,0.0,0.0,0.0,0.0,0.0,0.0,0.0,0.0,0.0,0.0,0.0,0.0,0.0,0.0,0.0,0.0,0.0,0.0,0.0,0.0,0.0,0.0,0.0,0.0,0.0,0.0,0.0,0.0,0.0,0.8816,0.9067,0.9603,0.9926,1.013,1.0638,1.0864,0.0,0.0,0.0,0.0,0.0,0.0,0.0,0.0,0.0,0.0,0.0,0.0,0.0,0.0,0.0,0.0,0.0,0.0,0.0,0.408,0.4527,0.4898,0.4311,0.4387,0.4423,0.368,0.3405,0.3052,0.2152,0.1236,0.0446,-0.0081,-0.0843,-0.139,-0.139,-0.1414,-0.1391,-0.1391,-0.1391,0.0,-0.1391,-0.1391,-0.139,-0.13,-0.1121,-0.0843,-0.0431,-0.034,-0.0207,0.0,0.0,0.0,0.0,0.0,0.0,0.0,0.0,0.0,0.0,0.0,-0.0039,-0.0118,-0.0432,-0.0628,-0.0707,-0.11,-0.1291,-0.1279,-0.1226,0.0,0.0,-0.1131,-0.1109,-0.1109,-0.1109,-0.1244,-0.1411,-0.1411,-0.188,-0.2582,0.0,0.0,0.0,0.0,0.0,0.0,0.0,0.0,0.0,0.0,0.0,0.0,0.0,0.0,0.0,0.0,0.0,0.0,0.0,0.0,0.0,0.0,0.0,0.0,0.0,0.0,0.0,0.0,0.0,0.0,0.0,0.0,0.8409,0.8614,0.8924,0.9116,0.0,0.0,0.0,0.0,0.0,0.0,0.7018,0.0,0.0,0.0,0.0,0.0,0.0,0.0,0.0,0.0,0.0,0.0,0.0,0.0,0.3434,0.3752,0.3517,0.3602,0.36,0.2699,0.2348,0.2,0.1109,0.0445,-0.0124,-0.0666,-0.1116,-0.1407,-0.1407,-0.1378,-0.1391,-0.1391,-0.1391,-0.1391,-0.1391,-0.1391,-0.139,-0.13,-0.1166,-0.0927,-0.0465,-0.0379,-0.0289,-0.0039,0.0,0.0157,0.0471,0.051,0.051,0.051,0.0157,0.0,0.0,0.0,0.0,0.0,-0.0393,-0.0589,-0.0628,-0.11,-0.1296,-0.1293,0.0,0.0,0.0,-0.1135,-0.1109,-0.1109,-0.1109,-0.1109,-0.1109,-0.1109,-0.148,-0.2052,0.0,0.0,0.0,0.0,0.0,0.0,0.0,0.0,0.0,0.0,0.0,0.0,0.0,0.0,0.0,0.0,0.0,0.0,0.0,0.0,0.0,0.0,0.0,0.0,0.0,0.0,0.0,0.516,0.6453,0.7088,0.712,0.0,0.0,0.775,0.7489,0.748,0.7678,0.7122,0.6878,0.685,0.6654,0.6593,0.0,0.0,0.0,0.0,0.0,0.0,0.0,0.0,0.0,0.0,0.0,0.0,0.0,0.0,0.0,0.0,0.0,0.2618,0.2543,0.1916,0.1448,0.1025,0.0323,-0.0165,0.0,-0.1254,-0.1414,-0.1391,-0.1391,-0.1391,-0.1391,-0.1391,-0.1391,-0.1391,-0.1391,-0.1391,-0.1345,-0.1166,-0.1121,-0.0927,-0.0465,-0.0421,-0.0289,-0.0039,0.0039,0.0432,0.1254,0.1371,0.1371,0.1371,0.0588,0.0118,0.0,0.0079,0.0079,0.0,-0.0393,-0.0589,-0.0628,-0.11,-0.1296,0.0,0.0,0.0,0.0,-0.1135,-0.1109,-0.1109,-0.1109,-0.1109,-0.1109,-0.1109,-0.1344,-0.1681,0.0,0.0,0.0,0.0,0.0,0.0,0.0,0.0,0.0,0.0,0.0,0.0,0.0,0.0,0.0,0.0,0.0,0.0,0.0,0.0,0.0,0.0,0.0,0.0,0.0,0.0,0.0,0.368,0.401,0.4176,0.4176,0.4243,0.0,0.0,0.0,0.4018,0.3971,0.3813,0.377,0.3737,0.3544,0.3447,0.0,0.0,0.0,0.0,0.2412,0.2211,0.0,0.0,0.0,0.0,0.0,0.0,0.0,0.0,0.0954,0.0909,0.0533,0.0,0.141,0.047,0.0157,-0.0118,0.0,-0.0994,-0.1143,-0.134,-0.1414,-0.1391,-0.1391,-0.1391,-0.1391,-0.1391,-0.1391,-0.1391,-0.1391,-0.1391,-0.1391,-0.1345,-0.1211,-0.0971,-0.0677,-0.0505,-0.0289,-0.0039,0.0628,0.1097,0.1293,0.1879,0.2229,0.2229,0.2035,0.1293,0.0,0.0667,0.0667,0.0,-0.0393,-0.0589,-0.0628,-0.11,-0.1296,0.0,0.0,0.0,-0.1198,-0.1135,-0.1109,-0.1109,-0.1109,-0.1109,-0.1109,-0.1109,-0.1513,-0.2087,0.0,0.0,0.0,0.0,0.0,0.0,0.0,0.0,0.0,0.0,0.0,0.0,0.0,0.0,0.0,0.0,0.0,0.0,0.0,0.0,0.0,0.0,0.0,0.0,0.0,0.0,0.0,0.0,0.0,0.3115,0.0,0.0,0.0,0.0,0.0,0.2778,0.2711,0.2613,0.2547,0.2547,0.2281,0.0,0.0,0.0,0.0,0.0,0.1208,0.1175,0.0,0.0941,0.084,0.0773,0.0,0.0,0.0,0.0,0.0036,-0.022,-0.0602,-0.0077,0.0353,-0.055,-0.0746,-0.0872,-0.1231,-0.1294,-0.1317,-0.1402,-0.1379,-0.1391,-0.1391,-0.1391,-0.1391,-0.1391,-0.1391,-0.1391,-0.1391,-0.1391,-0.1391,-0.1391,-0.1201,-0.1005,-0.0718,-0.0501,-0.0122,0.0551,0.1019,0.1644,0.2426,0.2854,0.3088,0.3088,0.3443,0.2857,0.1176,0.1605,0.1371,0.0392,0.0118,-0.0275,-0.0746,-0.1139,-0.1288,0.0,0.0,0.0,-0.1142,-0.1129,-0.1109,-0.1109,-0.1109,-0.1109,-0.1109,-0.1109,-0.158,-0.2188,0.0,0.0,0.0,0.0,0.0,0.0,0.0,0.0,0.0,0.0,0.0,0.0,0.0,0.0,0.0,0.0,0.0,0.0,0.0,0.0,0.0,0.0,0.0,0.0,0.0,0.0,0.0,0.0,0.0,0.0,0.0,0.0,0.2344,0.0,0.0,0.2014,0.194,0.1775,0.1709,0.1642,0.1374,0.0,0.0,0.0,0.0,0.0,0.0,0.0,0.0,0.037,0.0269,0.0269,0.0269,0.0,0.0,0.0,0.0,0.0,-0.1189,-0.0844,-0.0586,-0.1139,-0.13,-0.1319,-0.1294,-0.1309,-0.1327,-0.1379,-0.1391,-0.1391,-0.1391,-0.1391,-0.1391,-0.1391,-0.1391,-0.1391,-0.1391,-0.1391,-0.1391,-0.1391,-0.119,-0.095,-0.0717,-0.0495,0.0121,0.1217,0.141,0.2152,0.3713,0.391,0.3988,0.3988,0.4659,0.4309,0.2895,0.2776,0.2151,0.1058,0.0744,0.0117,-0.0781,-0.1133,-0.1272,-0.1203,0.0,0.0,-0.1084,-0.1088,-0.1109,-0.1109,-0.1109,-0.1109,-0.1109,-0.1109,-0.1513,-0.2087,0.0,0.0,0.0,0.0,0.0,0.0,0.0,0.0,0.0,0.0,0.0,0.0,0.0,0.0,0.0,0.0,0.0,0.0,0.0,0.0,0.0,0.0,0.0,0.0,0.0,0.0,0.0,0.0,0.0,0.0,0.0909,0.0875,0.0471,-0.0269,-0.079,-0.1165,-0.1374,-0.1407,-0.1508,-0.1676,-0.1709,0.0,0.0,0.0,0.0,0.0,0.0,0.0,0.0,-0.084,-0.084,-0.084,-0.084,0.0,0.0,0.0,0.0,0.0,-0.1164,-0.1121,-0.111,-0.1251,-0.1317,-0.1305,-0.1298,-0.1324,-0.1393,-0.1383,-0.1391,-0.1391,-0.1391,-0.1391,-0.1391,-0.1391,-0.1391,-0.1391,-0.1391,-0.1391,-0.1391,-0.1391,-0.1014,-0.0734,-0.0717,-0.033,0.0322,0.1217,0.1918,0.2737,0.3752,0.4462,0.4818,0.4818,0.4937,0.4859,0.4623,0.3951,0.2973,0.1724,0.0979,0.0349,-0.0152,-0.0876,-0.1202,-0.1208,0.0,-0.1125,-0.1084,-0.1088,-0.1109,-0.1109,-0.1109,-0.1109,-0.1109,-0.1109,-0.1344,-0.1782,0.0,0.0,0.0,0.0,0.0,0.0,0.0,0.0,0.0,0.0,0.0,0.0,0.0,0.0,0.0,0.0,0.0,0.0,0.0,0.0,0.0,0.0,0.0,0.0,0.0,0.0,0.0,0.0,0.0,-0.0739,-0.0638,-0.0739,-0.1041,-0.1511,-0.1801,-0.197,-0.2114,-0.2214,-0.2315,-0.2417,0.0,0.0,0.0,0.0,0.0,0.0,0.0,0.0,0.0,0.0,-0.1411,-0.1109,-0.1109,0.0,0.0,0.0,0.0,0.0,-0.119,-0.1213,-0.1198,-0.1284,-0.128,-0.1311,-0.1299,-0.1369,-0.1399,-0.1384,-0.1391,-0.1391,-0.1391,-0.1391,-0.1391,-0.1391,-0.1391,-0.1391,-0.1391,-0.13,-0.1251,-0.1238,0.0,-0.0339,0.0124,0.0485,0.1229,0.2545,0.301,0.3558,0.4423,0.4779,0.5018,0.5018,0.5018,0.4947,0.4879,0.453,0.353,0.188,0.1803,0.091,-0.0668,-0.0742,-0.0914,-0.1141,0.0,-0.1112,-0.1095,-0.1116,-0.1109,-0.1109,-0.1109,-0.1109,-0.1109,-0.1311,-0.1344,-0.1446,0.0,0.0,0.0,0.0,0.0,0.0,0.0,0.0,0.0,0.0,0.0,0.0,0.0,0.0,0.0,0.0,0.0,0.0,0.0,0.0,0.0,0.0,0.0,0.0,0.0,0.0,-0.1877,-0.1709,-0.1878,-0.1878,-0.1709,-0.2026,-0.2228,-0.2348,-0.2533,-0.2599,-0.2618,-0.2817,-0.2917,-0.2986,0.0,0.0,0.0,0.0,0.0,0.0,0.0,0.0,0.0,0.0,0.0,0.0,0.0,0.0,0.0,-0.1176,-0.1244,-0.1361,-0.1222,-0.1203,-0.1218,-0.1281,-0.1286,-0.132,-0.1468,-0.1547,-0.1583,-0.1609,-0.157,-0.157,-0.1436,-0.1391,-0.1391,-0.1391,-0.1391,-0.1391,-0.1391,-0.1206,-0.1018,-0.0828,-0.0382,0.0249,0.1097,0.143,0.2192,0.3675,0.3791,0.4146,0.4937,0.5018,0.5004,0.4936,0.4936,0.4876,0.4792,0.4681,0.3852,0.2279,0.2542,0.1513,-0.0578,-0.0325,-0.0463,-0.0902,-0.0902,-0.0994,-0.1109,-0.1109,-0.1109,-0.1109,-0.1109,-0.1109,-0.1143,-0.1379,-0.1311,-0.1176,0.0,0.0,0.0,0.0,0.0,0.0,0.0,0.0,0.0,0.0,0.0,0.0,0.0,0.0,0.0,0.0,0.0,0.0,0.0,0.0,0.0,0.0,0.0,0.0,0.0,-0.3082,-0.2748,-0.2079,-0.2079,-0.2079,-0.208,-0.2723,-0.3061,-0.3153,-0.3758,-0.4093,-0.4164,-0.4359,-0.4525,-0.4661,-0.4855,0.0,0.0,0.0,0.0,0.0,0.0,0.0,0.0,0.0,0.0,0.0,0.0,0.0,-0.2149,-0.1344,-0.1679,-0.2141,-0.1401,-0.1203,-0.1218,-0.1281,-0.1301,-0.1429,-0.1934,-0.2086,-0.215,-0.2154,-0.2154,-0.1974,-0.148,-0.1391,-0.1391,-0.1391,-0.1391,-0.1391,-0.1391,-0.1236,-0.0784,0.0,0.0502,0.1138,0.1945,0.2261,0.2817,0.3713,0.3791,0.4146,0.4937,0.5018,0.4928,0.4814,0.4809,0.479,0.4703,0.4341,0.3903,0.3388,0.2845,0.2125,0.1194,0.0667,0.0138,-0.0371,-0.0371,-0.064,-0.1109,-0.1109,-0.1109,-0.1109,-0.1109,-0.1109,-0.1109,-0.1143,-0.1109,-0.1143,0.0,0.0,0.0,0.0,0.0,0.0,0.0,0.0,0.0,0.0,0.0,0.0,0.0,0.0,0.0,0.0,0.0,0.0,0.0,0.0,0.0,0.0,0.0,-0.4164,-0.3892,-0.3892,-0.3758,-0.3458,-0.3458,-0.3458,-0.3458,-0.3736,0.0,0.0,-0.4141,-0.4341,-0.4498,-0.4661,-0.4827,-0.499,-0.5193,-0.5326,0.0,0.0,0.0,0.0,0.0,0.0,0.0,0.0,-0.2848,-0.2045,0.0,0.0,-0.2147,-0.1812,-0.1946,-0.2141,-0.1902,-0.1713,-0.1513,-0.1358,-0.175,-0.2062,-0.1683,-0.1915,-0.2109,-0.1749,-0.1974,-0.2019,-0.148,-0.1391,-0.1391,-0.1391,-0.1391,-0.1384,-0.141,-0.0655,-0.0043,0.0042,0.1149,0.2096,0.2661,0.3067,0.3638,0.4501,0.4543,0.4659,0.4979,0.4906,0.4844,0.4798,0.476,0.4698,0.4575,0.4434,0.4012,0.3291,0.2961,0.2103,0.0854,0.0956,0.0713,0.0202,0.0202,-0.0101,-0.0605,-0.0605,-0.0806,-0.1076,-0.0739,-0.0605,-0.0571,-0.0235,-0.0302,-0.0605,0.0,0.0,0.0,0.0,0.0,0.0,0.0,0.0,0.0,0.0,0.0,0.0,0.0,0.0,0.0,0.0,0.0,0.0,0.0,0.0,0.0,0.0,0.0,-0.4628,-0.4628,-0.4398,-0.43,-0.43,-0.4498,-0.4628,-0.4628,0.0,0.0,-0.4628,-0.4694,-0.4794,-0.4954,-0.5385,-0.5517,-0.5418,-0.565,-0.5591,0.0,0.0,0.0,0.0,0.0,0.0,0.0,0.0,-0.3485,0.0,0.0,0.0,0.0,0.0,-0.198,-0.2141,-0.1937,-0.1749,-0.155,-0.1358,-0.178,-0.2086,-0.143,-0.1872,-0.2287,-0.1749,-0.1794,-0.1839,-0.148,-0.1391,-0.1387,-0.1378,-0.1421,-0.1322,-0.1121,-0.0256,0.0421,0.0653,0.1774,0.2751,0.345,0.3795,0.4265,0.4937,0.5018,0.4999,0.4922,0.4841,0.476,0.4722,0.4673,0.4572,0.4451,0.4209,0.3796,0.3194,0.2845,0.2088,0.1042,0.1412,0.1277,0.0739,0.0739,0.0437,-0.0034,-0.0034,-0.0269,-0.0571,-0.0202,-0.0034,0.0,0.037,0.0168,-0.0302,0.0,0.0,0.0,0.0,0.0,0.0,0.0,0.0,0.0,0.0,0.0,0.0,0.0,0.0,0.0,0.0,0.0,0.0,0.0,0.0,0.0,0.0,0.0,-0.5309,-0.5309,-0.4658,-0.43,-0.43,-0.4984,-0.5309,-0.5309,-0.5309,0.0,0.0,-0.5514,-0.5617,-0.5679,-0.6756,-0.6789,-0.6141,-0.6334,-0.6013,-0.5428,0.0,0.0,0.0,0.0,0.0,0.0,0.0,-0.3818,0.0,0.0,0.0,0.0,0.0,-0.1713,-0.2208,-0.1437,-0.1203,-0.1218,-0.1281,-0.132,-0.1311,-0.1299,-0.2131,-0.2777,-0.2288,-0.1794,-0.139,-0.139,-0.139,-0.138,-0.1395,-0.1389,-0.1163,-0.0505,-0.0165,0.0569,0.203,0.2387,0.3018,0.4265,0.4384,0.4582,0.4976,0.5015,0.4922,0.4804,0.4793,0.4719,0.4512,0.4503,0.4449,0.4303,0.3563,0.3192,0.3192,0.2523,0.2221,0.2188,0.2188,0.1884,0.1311,0.1311,0.1008,0.0504,0.0504,0.0504,0.0504,0.0504,0.0504,0.0504,0.0504,0.0168,-0.0269,0.0,0.0,0.0,0.0,0.0,0.0,0.0,0.0,0.0,0.0,0.0,0.0,0.0,0.0,0.0,0.0,0.0,0.0,0.0,0.0,0.0,0.0,0.0,0.0,0.0,0.0,-0.5286,-0.43,-0.5481,-0.5804,0.0,0.0,0.0,-0.6293,0.0,-0.6494,-0.6756,-0.7083,-0.7116,-0.7027,-0.7092,-0.6994,-0.6765,0.0,0.0,0.0,0.0,0.0,0.0,0.0,0.0,0.0,0.0,0.0,0.0,-0.2383,-0.2216,-0.2207,-0.2297,-0.1967,-0.1587,-0.1358,-0.1759,-0.2037,-0.1437,-0.1829,-0.2291,-0.2237,-0.1773,-0.1403,-0.1403,-0.1344,-0.1328,-0.1319,-0.0977,-0.0505,0.0,0.0897,0.1656,0.2144,0.3187,0.3878,0.3958,0.4506,0.4859,0.4979,0.4898,0.4833,0.4798,0.4673,0.458,0.4506,0.4393,0.4336,0.43,0.41,0.373,0.3192,0.2991,0.2656,0.2188,0.2188,0.2087,0.1918,0.1918,0.1614,0.1042,0.0672,0.0504,0.0538,0.0908,0.1076,0.1109,0.1547,0.1311,0.0773,0.0,0.0,0.0,0.0,0.0,0.0,0.0,0.0,0.0,0.0,0.0,0.0,0.0,0.0,0.0,0.0,0.0,0.0,0.0,0.0,0.0,0.0,0.0,0.0,0.0,-0.6789,-0.64,0.0,0.0,0.0,0.0,0.0,-0.692,-0.7111,0.0,-0.7344,-0.7609,-0.7967,-0.7999,-0.7842,-0.7842,-0.7647,-0.7321,0.0,0.0,0.0,0.0,0.0,0.0,0.0,0.0,0.0,0.0,0.0,0.0,-0.2115,-0.188,-0.1767,-0.2082,-0.1858,-0.1513,-0.1358,-0.1707,-0.193,-0.1422,-0.1549,-0.181,-0.1834,-0.1603,-0.1373,-0.1373,-0.1317,-0.1218,-0.0999,-0.0623,-0.0123,0.0683,0.1562,0.2232,0.2515,0.3487,0.4114,0.4036,0.4428,0.4752,0.4906,0.483,0.4741,0.4692,0.455,0.4484,0.4438,0.4336,0.43,0.43,0.4164,0.3861,0.3426,0.3259,0.2991,0.2589,0.2322,0.2188,0.2188,0.2188,0.1985,0.1648,0.1311,0.1176,0.121,0.1547,0.1648,0.1715,0.2053,0.1817,0.1244,0.0,0.0,0.0,0.0,0.0,0.0,0.0,0.0,0.0,0.0,0.0,0.0,0.0,0.0,0.0,0.0,0.0,0.0,0.0,0.0,0.0,0.0,0.0,0.0,0.0,0.0,0.0,0.0,0.0,0.0,0.0,0.0,-0.7712,-0.7869,0.0,-0.8194,-0.8366,-0.9157,-0.9151,-0.8587,-0.8587,-0.8199,-0.7517,-0.6761,0.0,0.0,0.0,0.0,0.0,0.0,0.0,0.0,0.0,-0.2313,-0.1276,-0.1176,-0.1109,-0.1123,-0.1222,-0.1239,-0.1218,-0.1281,-0.1296,-0.1304,-0.1292,-0.132,-0.13,-0.1305,-0.1304,-0.1302,-0.1302,-0.1256,-0.1036,-0.0487,-0.0283,0.0241,0.1528,0.2035,0.2511,0.3139,0.3608,0.3992,0.4331,0.4287,0.4418,0.4782,0.4742,0.4624,0.4509,0.4495,0.4443,0.4303,0.43,0.43,0.43,0.3995,0.3825,0.3792,0.3426,0.3226,0.3192,0.2522,0.2221,0.2188,0.2188,0.2188,0.2188,0.2188,0.2188,0.2188,0.2188,0.2188,0.2188,0.2188,0.185,0.1379,0.0,0.0,0.0,0.0,0.0,0.0,0.0,0.0,0.0,0.0,0.0,0.0,0.0,0.0,0.0,0.0,0.0,0.0,0.0,0.0,0.0,0.0,0.0,0.0,0.0,0.0,0.0,0.0,0.0,0.0,0.0,0.0,0.0,-0.8947,0.0,-0.9113,-0.9221,-0.942,-0.942,-0.9285,-0.9285,-0.9189,-0.8926,-0.7647,-0.7186,0.0,0.0,0.0,0.0,0.0,0.0,0.0,-0.3551,-0.2982,-0.2581,-0.1747,-0.1311,-0.1157,-0.151,-0.1386,-0.1218,-0.1281,-0.1296,-0.1298,-0.1305,-0.1312,-0.129,-0.1296,-0.1288,-0.1312,-0.1312,-0.0915,-0.0542,-0.0423,0.0423,0.1419,0.2322,0.2712,0.3215,0.4034,0.4229,0.4276,0.4237,0.451,0.4683,0.4736,0.4613,0.4534,0.4506,0.4384,0.4325,0.4303,0.43,0.43,0.43,0.4233,0.4061,0.0,0.3725,0.3493,0.3192,0.2788,0.2453,0.2188,0.2188,0.2188,0.2188,0.2188,0.2188,0.2188,0.2188,0.2188,0.2188,0.2188,0.212,0.1951,0.0,0.0,0.0,0.0,0.0,0.0,0.0,0.0,0.0,0.0,0.0,0.0,0.0,0.0,0.0,0.0,0.0,0.0,0.0,0.0,0.0,0.0,0.0,0.0,0.0,0.0,0.0,0.0,0.0,0.0,-0.849,0.0,0.0,-0.9306,0.0,-0.9376,-0.9516,-0.9516,-0.9516,-0.9516,-0.9516,-0.9516,-0.9388,-0.8333,-0.7712,-0.7256,-0.6239,0.0,0.0,0.0,0.0,0.0,0.0,0.0,-0.2515,-0.1613,-0.1244,-0.1157,-0.1402,-0.1348,-0.1218,-0.1281,-0.1296,-0.1296,-0.1296,-0.109,-0.0855,-0.0877,-0.0873,-0.0866,-0.0866,-0.042,0.0149,0.0631,0.1314,0.2118,0.302,0.3473,0.388,0.4345,0.4496,0.4558,0.4503,0.4583,0.4635,0.4605,0.449,0.439,0.439,0.4333,0.43,0.43,0.43,0.43,0.43,0.43,0.4197,0.4028,0.4028,0.3861,0.3458,0.309,0.2857,0.269,0.269,0.2589,0.2453,0.2453,0.2354,0.2188,0.2188,0.2188,0.2188,0.2188,0.2188,0.2154,0.0,0.0,0.0,0.0,0.0,0.0,0.0,0.0,0.0,0.0,0.0,0.0,0.0,0.0,0.0,0.0,0.0,0.0,0.0,0.0,0.0,0.0,0.0,0.0,0.0,0.0,0.0,0.0,0.0,-0.935,-0.9081,-0.9081,-0.9177,-0.9338,0.0,-0.9408,-0.9516,-0.9516,-0.9516,-0.9516,-0.9516,-0.9516,-0.9414,-0.8753,-0.8129,-0.7484,-0.6695,-0.6042,-0.5557,-0.5428,0.0,0.0,0.0,0.0,-0.2147,-0.1344,-0.1109,-0.1122,-0.1179,-0.113,-0.1075,-0.1121,-0.1057,-0.0981,-0.0977,-0.0538,-0.0151,-0.015,-0.0226,-0.0226,-0.0188,0.0295,0.094,0.1842,0.2171,0.2615,0.3564,0.4063,0.4397,0.4474,0.4665,0.4779,0.4739,0.4588,0.4495,0.4476,0.4355,0.43,0.43,0.43,0.43,0.43,0.43,0.43,0.43,0.43,0.43,0.43,0.43,0.4164,0.3859,0.3527,0.3326,0.3192,0.3192,0.3058,0.2787,0.2787,0.2587,0.2287,0.2287,0.2255,0.2188,0.2188,0.2188,0.2188,0.0,0.0,0.0,0.0,0.0,0.0,0.0,0.0,0.0,0.0,0.0,0.0,0.0,0.0,0.0,0.0,0.0,0.0,-0.877,0.0,0.0,-0.9274,-0.9274,0.0,0.0,0.0,0.0,0.0,-0.9516,-0.9484,-0.9446,-0.9446,-0.9452,-0.9478,-0.9478,-0.9484,-0.9516,-0.9516,-0.9516,-0.9516,-0.9516,-0.9516,-0.9414,-0.8753,-0.8425,-0.8194,-0.6854,-0.6334,-0.6174,-0.5591,-0.5329,0.0,0.0,0.0,-0.2781,-0.1478,-0.1109,-0.1117,-0.1118,-0.0765,-0.0415,-0.0418,-0.0039,0.0312,0.0268,0.0606,0.0901,0.0808,0.0549,0.0403,0.0731,0.1252,0.1757,0.2251,0.2787,0.3353,0.3939,0.4152,0.4369,0.4707,0.4769,0.4715,0.4575,0.4525,0.4462,0.433,0.4308,0.43,0.43,0.43,0.43,0.43,0.43,0.43,0.43,0.43,0.43,0.43,0.43,0.4267,0.4233,0.4167,0.3797,0.3192,0.3192,0.3159,0.3125,0.3125,0.2924,0.2619,0.2619,0.2453,0.2188,0.2188,0.2188,0.2188,0.0,0.0,0.0,0.0,0.0,0.0,0.0,0.0,0.0,0.0,0.0,0.0,0.0,0.0,0.0,-1.0021,-1.0174,-1.0085,-0.9678,-0.9428,-0.9338,-0.9408,-0.9414,-0.9446,-0.9484,0.0,0.0,0.0,-0.9516,-0.9516,-0.9516,-0.9516,-0.9516,-0.9516,-0.9516,-0.9516,-0.9516,-0.9516,-0.9516,-0.9516,-0.9516,-0.9516,-0.9484,-0.9183,-0.8818,-0.8355,-0.7316,-0.6728,-0.6301,-0.562,-0.5395,-0.5226,-0.4154,0.0,0.0,0.0,-0.1411,-0.1049,-0.073,-0.0504,-0.0296,0.0,0.0448,0.0825,0.0779,0.1317,0.1804,0.1782,0.1899,0.1924,0.1809,0.2228,0.2701,0.3109,0.3429,0.3792,0.4262,0.4403,0.4549,0.4732,0.4673,0.4588,0.4514,0.4446,0.4355,0.4306,0.43,0.43,0.43,0.43,0.43,0.43,0.43,0.43,0.43,0.43,0.43,0.43,0.43,0.43,0.43,0.43,0.4133,0.383,0.383,0.3694,0.3525,0.3525,0.319,0.2686,0.2686,0.2487,0.2188,0.2188,0.2188,0.2188,0.0,0.0,0.0,0.0,0.0,0.0,0.0,0.0,0.0,0.0,0.0,0.0,0.0,0.0,0.0,0.0,-1.1111,-1.0892,-1.037,-0.9875,-0.9568,-0.9516,-0.9516,-0.9516,-0.9516,0.0,0.0,-0.9247,-0.942,-0.942,-0.9247,-0.942,-0.9516,-0.9516,-0.9516,-0.9516,-0.9516,-0.9516,-0.9516,-0.9516,-0.9516,-0.9516,-0.9478,-0.9438,-0.9125,-0.8613,-0.7685,-0.7047,-0.6531,-0.5686,-0.5395,-0.5259,-0.4522,-0.3785,0.0,0.0,0.0,-0.081,-0.0414,-0.0035,0.0288,0.0721,0.1194,0.1596,0.1586,0.2198,0.2757,0.2773,0.3235,0.3545,0.3168,0.3233,0.3527,0.4056,0.4162,0.4367,0.4844,0.5003,0.5069,0.5069,0.4842,0.47,0.4668,0.445,0.43,0.43,0.43,0.43,0.43,0.43,0.43,0.43,0.43,0.43,0.43,0.43,0.43,0.43,0.43,0.43,0.43,0.43,0.43,0.43,0.43,0.4097,0.3792,0.3792,0.3355,0.2686,0.2686,0.2487,0.2188,0.2188,0.2188,0.2188,0.0,0.0,0.0,0.0,0.0,0.0,0.0,0.0,0.0,0.0,0.0,0.0,0.0,-1.1562,-1.1274,-1.1274,-1.1392,-1.118,-1.0548,-1.0453,-1.0174,-0.9516,-0.9516,0.0,-0.9516,0.0,0.0,-0.8554,-0.9183,-0.9183,-0.8554,-0.9215,-0.9516,-0.9516,-0.9516,-0.9516,-0.9516,-0.9516,-0.9516,-0.9516,-0.9516,-0.9516,-0.9486,-0.9221,-0.925,-0.925,-0.7681,-0.7227,-0.7158,-0.5851,-0.5395,-0.5259,-0.4522,-0.3785,-0.3049,0.0,0.0,0.0,-0.0303,0.0755,0.1891,0.1926,0.2604,0.3251,0.3211,0.3467,0.3714,0.3717,0.4395,0.499,0.4964,0.4295,0.4056,0.4888,0.5027,0.5279,0.5929,0.6027,0.6031,0.6031,0.5583,0.5217,0.5079,0.46,0.43,0.43,0.43,0.43,0.43,0.43,0.43,0.43,0.43,0.43,0.43,0.43,0.43,0.43,0.43,0.43,0.43,0.43,0.43,0.43,0.43,0.4097,0.3792,0.3792,0.3355,0.2686,0.2686,0.2487,0.2188,0.2188,0.2188,0.2188,0.0,0.0,0.0,0.0,0.0,0.0,0.0,0.0,0.0,0.0,0.0,0.0,0.0,-1.2795,-1.2696,-1.2696,-1.2358,-1.1857,-1.118,-1.073,-1.0206,-0.9516,-0.9516,-0.9516,-0.9516,-0.9516,-0.9183,0.0,-0.8753,-0.8721,-0.849,-0.8753,-0.9081,-0.9516,-0.9516,-0.9516,-0.9516,-0.9516,-0.9516,-0.9516,-0.9516,-0.9408,-0.9233,-0.9137,-0.9155,-0.9109,-0.811,-0.7594,-0.7256,-0.6338,-0.5752,-0.5359,-0.5093,-0.4187,-0.2982,-0.1812,-0.0907,-0.0235,0.0134,0.088,0.1705,0.2283,0.2848,0.3415,0.3992,0.4391,0.4745,0.5066,0.5388,0.5624,0.5624,0.5355,0.5256,0.5554,0.5624,0.5708,0.5929,0.5974,0.5974,0.5974,0.5806,0.5651,0.5627,0.5425,0.5193,0.4827,0.4824,0.4661,0.4334,0.43,0.43,0.43,0.43,0.43,0.43,0.43,0.43,0.43,0.43,0.43,0.43,0.43,0.43,0.43,0.43,0.4097,0.3792,0.3792,0.3355,0.2686,0.2686,0.2487,0.2188,0.2188,0.2188,0.2188,0.0,0.0,0.0,0.0,0.0,0.0,0.0,0.0,0.0,0.0,0.0,0.0,0.0,0.0,-1.3511,-1.3511,-1.31,-1.2543,-1.1888,-1.1219,-1.0541,-0.9856,-0.9606,-0.9516,-0.9516,-0.9516,-0.9183,0.0,0.0,0.0,-0.849,-0.8721,-0.9087,-0.9516,-0.9516,-0.9516,-0.9516,-0.9516,-0.9548,-0.958,-0.9516,-0.9379,-0.9181,-0.9029,-0.8969,-0.8872,-0.8204,-0.7674,-0.72,-0.6608,-0.5947,-0.5395,-0.5395,-0.4386,-0.2915,-0.1511,-0.0605,0.0034,0.0403,0.1109,0.1949,0.2686,0.3123,0.3625,0.4558,0.4954,0.5256,0.5789,0.6053,0.6185,0.6185,0.6317,0.6379,0.6185,0.6185,0.6218,0.6412,0.6445,0.6445,0.6445,0.6284,0.6185,0.6185,0.602,0.5756,0.5388,0.0,0.0,0.4864,0.4831,0.4764,0.4564,0.44,0.43,0.43,0.43,0.43,0.43,0.43,0.43,0.43,0.43,0.43,0.43,0.43,0.4097,0.3792,0.3792,0.3424,0.2855,0.2753,0.2554,0.2354,0.2255,0.2188,0.2188,0.0,0.0,0.0,0.0,0.0,0.0,0.0,0.0,0.0,0.0,0.0,0.0,0.0,0.0,0.0,-1.3511,-1.3511,-1.323,-1.2543,-1.1888,-1.1212,-1.0516,-0.9862,-0.9516,-0.9516,-0.9516,0.0,0.0,0.0,0.0,0.0,0.0,-0.9484,-0.9516,-0.9516,-0.9516,-0.9516,-0.9516,-0.9612,-0.9772,-0.958,-0.9467,-0.9333,-0.886,-0.8704,-0.861,-0.7962,-0.7456,-0.7056,-0.6595,-0.5976,-0.5428,-0.5395,-0.4386,-0.2915,-0.1545,-0.037,0.047,0.0,0.0,0.0,0.3125,0.3491,0.4025,0.4921,0.512,0.5289,0.5822,0.6346,0.6741,0.6741,0.7167,0.7326,0.6806,0.6741,0.6905,0.7423,0.7489,0.7489,0.7489,0.7031,0.6741,0.6741,0.6251,0.5954,0.0,0.5921,0.5925,0.5892,0.5888,0.5657,0.5153,0.4628,0.4334,0.4334,0.4334,0.4334,0.4334,0.43,0.43,0.43,0.43,0.43,0.43,0.43,0.4131,0.3825,0.3792,0.3558,0.3159,0.2855,0.272,0.2686,0.2354,0.2221,0.2221,0.0,0.0,0.0,0.0,0.0,0.0,0.0,0.0,0.0,0.0,0.0,0.0,0.0,0.0,-1.3511,-1.3511,-1.3511,-1.323,-1.2543,-1.1888,-1.1212,-1.0516,-0.9862,-0.9516,-0.9516,-0.9516,0.0,0.0,0.0,0.0,0.0,0.0,0.0,0.0,-0.9516,-0.9516,-0.9516,-0.9516,-0.9548,-0.958,-0.9516,-0.9264,-0.8866,-0.8734,-0.859,-0.8399,-0.82,-0.8008,-0.7716,-0.7116,-0.6557,-0.5943,-0.4918,-0.3951,-0.3015,-0.2079,-0.1007,0.0,0.0403,0.0,0.0,0.0,0.0,0.0,0.5322,0.569,0.5951,0.6868,0.7162,0.7265,0.7265,0.7396,0.7456,0.7293,0.7265,0.7326,0.7493,0.7489,0.7489,0.7489,0.7358,0.7265,0.7265,0.7129,0.6905,0.0,0.6478,0.6317,0.5921,0.5888,0.5822,0.569,0.5524,0.5458,0.5458,0.506,0.4891,0.4858,0.4498,0.43,0.43,0.43,0.43,0.43,0.43,0.4233,0.4131,0.3892,0.3558,0.3192,0.3092,0.3058,0.3023,0.2688,0.2554,0.252,0.0,0.0,0.0,0.0,0.0,0.0,0.0,0.0,0.0,0.0,0.0,0.0,0.0,0.0,0.0,-1.3511,-1.3511,-1.3321,-1.2948,-1.2289,-1.1609,-1.0944,-1.0263,-0.9798,-0.9516,-0.9516,0.0,0.0,0.0,0.0,0.0,0.0,0.0,0.0,0.0,-0.9516,-0.9516,-0.9516,-0.9548,-0.9612,-0.9548,-0.9222,-0.8821,-0.8739,-0.8475,-0.8141,-0.8249,-0.8074,-0.7751,-0.7583,-0.7022,-0.617,-0.4749,-0.3785,-0.3049,-0.2313,-0.1242,-0.0168,0.037,0.0908,0.1613,0.2891,0.0,0.0,0.519,0.5723,0.6152,0.7003,0.7358,0.7517,0.7612,0.755,0.7522,0.7612,0.755,0.7489,0.7489,0.7489,0.7489,0.7489,0.7489,0.7489,0.7489,0.7489,0.7358,0.7064,0.7036,0.6905,0.6576,0.635,0.6218,0.6218,0.602,0.5888,0.5888,0.5591,0.5422,0.5422,0.5126,0.4864,0.4631,0.4631,0.4498,0.43,0.43,0.43,0.43,0.4097,0.3861,0.3629,0.3493,0.346,0.3391,0.3056,0.282,0.2686,0.0,0.0,0.0,0.0,0.0,0.0,0.0,0.0,0.0,0.0,0.0,0.0,0.0,0.0,0.0,0.0,-1.3511,-1.3511,-1.3511,-1.2879,-1.2197,-1.1547,-1.085,-1.0174,-0.9516,-0.9516,0.0,0.0,0.0,0.0,0.0,0.0,0.0,0.0,0.0,0.0,-0.9516,-0.9516,-0.9612,-0.9734,-0.9544,-0.9254,-0.8938,-0.8732,-0.8327,-0.7931,-0.8165,-0.7886,-0.7494,-0.7948,-0.734,-0.6166,-0.4915,-0.3915,-0.3082,-0.2414,-0.1342,-0.0269,0.0269,0.0806,0.1512,0.2755,0.3125,0.0,0.4758,0.5488,0.6053,0.6576,0.7129,0.755,0.774,0.7622,0.755,0.7745,0.7617,0.7489,0.7489,0.7489,0.7489,0.7489,0.7489,0.7489,0.7489,0.7489,0.7489,0.7489,0.7489,0.7489,0.7489,0.7031,0.6773,0.6773,0.6313,0.6086,0.6086,0.602,0.5987,0.5987,0.5921,0.5657,0.5186,0.512,0.4827,0.44,0.44,0.4367,0.43,0.4367,0.4367,0.4267,0.3961,0.3859,0.3792,0.3426,0.309,0.282,-1.3511,0.0,0.0,0.0,0.0,0.0,0.0,0.0,0.0,0.0,0.0,0.0,0.0,0.0,0.0,0.0,-1.3511,-1.3511,-1.3511,-1.2879,-1.2197,-1.1547,-1.085,-1.0174,-0.9516,-0.9516,0.0,0.0,0.0,0.0,0.0,0.0,0.0,0.0,0.0,0.0,-0.9516,-0.9516,-0.9516,-0.953,-0.9269,-0.9017,-0.8744,-0.8475,-0.8171,-0.7907,-0.7961,-0.8029,-0.8108,-0.8105,-0.734,-0.6367,-0.6067,-0.471,-0.3182,-0.3015,-0.2013,-0.084,-0.0302,0.0235,0.0907,0.1913,0.2686,0.0,0.4459,0.5326,0.6053,0.6576,0.7129,0.7503,0.7546,0.7517,0.7503,0.7546,0.7517,0.7489,0.7489,0.7489,0.7489,0.7489,0.7489,0.7489,0.7489,0.7489,0.7489,0.7489,0.7489,0.7489,0.7489,0.7391,0.7358,0.7358,0.7228,0.7195,0.7195,0.6773,0.6544,0.6544,0.6119,0.5855,0.5723,0.5289,0.5054,0.4957,0.4957,0.4694,0.4334,0.4761,0.4694,0.43,0.4233,0.4197,0.4164,0.3825,0.3658,0.3489,-1.3541,0.0,0.0,0.0,0.0,0.0,0.0,0.0,0.0,0.0,0.0,0.0,0.0,0.0,0.0,0.0,0.0,0.0,0.0,0.0,0.0,0.0,-1.1445,-1.0832,-1.0174,-0.9894,0.0,0.0,0.0,0.0,0.0,0.0,0.0,0.0,0.0,0.0,-0.9017,-0.935,-0.9438,-0.9306,-0.9306,-0.9065,-0.8692,-0.856,-0.8243,-0.7901,-0.7901,-0.8153,-0.8432,-0.8037,-0.7694,-0.7312,-0.6625,-0.5401,-0.4174,-0.3849,-0.2714,-0.1477,-0.0939,-0.0168,0.0739,0.1677,0.2417,0.0,0.0,0.4921,0.5749,0.6214,0.6937,0.7522,0.7631,0.7565,0.7527,0.7636,0.756,0.7619,0.7939,0.7717,0.7489,0.7489,0.7489,0.7489,0.7489,0.7489,0.7489,0.7489,0.7489,0.7489,0.7489,0.7489,0.7489,0.7489,0.7489,0.7489,0.7489,0.7232,0.7097,0.7097,0.6839,0.6544,0.628,0.6017,0.5752,0.5488,0.5488,0.5359,0.513,0.5392,0.5326,0.5063,0.4794,0.4694,0.4694,0.4525,0.4356,0.4092,-1.3601,0.0,0.0,0.0,0.0,0.0,0.0,0.0,0.0,0.0,0.0,0.0,0.0,0.0,0.0,0.0,0.0,0.0,0.0,0.0,0.0,0.0,-1.2189,-1.1639,-1.0856,-1.0421,0.0,0.0,0.0,0.0,0.0,0.0,0.0,0.0,0.0,0.0,-0.8721,-0.9119,-0.9222,-0.9119,-0.9348,-0.9113,-0.8626,-0.8578,-0.8267,-0.7907,-0.7961,-0.8279,-0.8628,-0.8142,-0.8202,-0.8291,-0.6985,-0.5994,-0.5163,-0.448,-0.3351,-0.2179,-0.1609,-0.0671,0.0403,0.0,0.0,0.2753,0.0,0.0,0.0,0.5789,0.6675,0.7414,0.7683,0.7607,0.7546,0.7726,0.0,0.0,0.0,0.7939,0.0,0.7879,0.7652,0.7554,0.7684,0.7587,0.7489,0.7489,0.7489,0.7489,0.7489,0.7489,0.7489,0.7489,0.7489,0.7489,0.7489,0.7489,0.7489,0.7489,0.7489,0.7265,0.6839,0.6741,0.6478,0.6053,0.6053,0.5987,0.5925,0.602,0.5987,0.5859,0.5388,0.5186,0.5186,0.5156,0.499,0.4691,-1.3653,-1.3511,0.0,0.0,0.0,0.0,0.0,0.0,0.0,0.0,0.0,0.0,-1.3511,-1.3511,-1.3511,-1.3511,-1.3511,0.0,-1.3511,0.0,0.0,0.0,-1.2704,-1.2143,-1.0986,0.0,0.0,0.0,0.0,0.0,0.0,0.0,0.0,0.0,-0.885,-0.8888,-0.935,-0.8818,-0.8799,-0.9101,-0.9131,-0.883,-0.8309,-0.8075,-0.7955,-0.7931,-0.8165,-0.8463,-0.8711,0.0,-0.8746,-0.8361,0.0,-0.6388,-0.5163,-0.448,-0.3718,-0.2915,-0.2213,-0.1575,0.0,0.0,0.1342,0.0,0.3056,0.0,0.4924,0.5723,0.0,0.6942,0.7456,0.0,0.0,0.0,0.7503,0.7521,0.7587,0.8069,0.8619,0.9198,0.8231,0.7749,0.8328,0.7847,0.7489,0.7489,0.7489,0.7489,0.7489,0.7489,0.7489,0.7489,0.7489,0.7489,0.7489,0.7489,0.7489,0.7489,0.7489,0.7456,0.7391,0.6905,0.6675,0.6609,0.6609,0.6346,0.5921,0.6412,0.6313,0.5888,0.565,0.555,0.5517,0.5425,0.5326,0.5259,-1.3631,-1.3511,0.0,0.0,0.0,0.0,0.0,0.0,0.0,0.0,0.0,0.0,-1.3853,-1.405,-1.4093,-1.387,-1.4059,-1.3999,-1.3536,-1.3725,0.0,-1.3398,-1.3078,-1.2734,-1.2328,-1.1648,-1.1163,0.0,-1.0238,0.0,0.0,0.0,0.0,0.0,-0.8619,-0.8425,-0.8269,-0.7972,-0.8022,-0.8267,-0.79,-0.7883,0.0,-0.8111,-0.8129,-0.8141,-0.8249,-0.8584,-0.8951,0.0,-0.9088,0.0,0.0,0.0,0.0,-0.5249,-0.442,-0.3785,-0.3451,0.0,0.0,0.0,0.0,0.0,0.2316,0.0,0.442,0.0,0.0,0.0,0.0,0.0,0.0,0.0,0.7489,0.7652,0.0,0.0,0.8166,0.8844,0.0,0.0,0.8522,0.0,0.0,0.0,0.7842,0.7912,0.7521,0.7489,0.7489,0.7489,0.7489,0.7489,0.7489,0.7489,0.7489,0.7489,0.7489,0.7489,0.7489,0.726,0.7162,0.7162,0.7162,0.7036,0.6835,0.7068,0.7036,0.6806,0.6605,0.6342,0.6053,0.5987,0.5921,0.5752,-1.3631,-1.3511,-1.3511,0.0,0.0,0.0,0.0,0.0,0.0,0.0,-1.407,-1.4311,-1.4256,-1.4512,-1.4564,-1.4281,-1.4521,-1.4435,-1.387,-1.4156,-1.4245,-1.4123,-1.3716,-1.3503,-1.345,-1.2328,-1.167,-1.1459,-1.0485,0.0,0.0,0.0,0.0,0.0,0.0,-0.7902,-0.7386,-0.719,-0.7275,-0.7496,-0.7073,-0.7173,-0.7621,-0.8104,-0.8291,-0.8297,-0.8369,-0.862,-0.8896,-0.8969,-0.9033,0.0,-0.7631,-0.7122,-0.677,0.0,-0.488,-0.4419,-0.4221,0.0,0.0,0.0,0.0,0.0,0.0,0.0,0.0,0.0,0.0,0.0,0.0,0.0,0.0,0.0,0.0,0.7684,0.0,0.7972,0.8102,0.8941,0.0,0.0,0.0,0.0,0.849,0.7809,0.8289,0.8298,0.7612,0.7579,0.7579,0.7579,0.7522,0.7489,0.7489,0.7489,0.7489,0.7489,0.7489,0.7489,0.7489,0.7489,0.7489,0.7489,0.7489,0.7489,0.7489,0.7489,0.7489,0.7489,0.733,0.7003,0.6613,0.6515,0.6346,0.6145,-1.3692,-1.3511,-1.3511,-1.3511,0.0,0.0,0.0,0.0,0.0,-1.4296,-1.4626,-1.4837,-1.4699,-1.4675,-1.4675,-1.4667,-1.4675,-1.4675,-1.4649,-1.4804,-1.4885,-1.4876,-1.4836,-1.4506,-1.3807,-1.2912,-1.2089,-1.1303,-1.0421,-0.9926,0.0,0.0,0.0,0.0,-0.7744,-0.7419,-0.7354,-0.6695,-0.6686,-0.7108,-0.7113,-0.6946,-0.6844,0.0,-0.8291,-0.8321,-0.8602,0.0,0.0,-0.8638,-0.8363,0.0,0.0,0.0,0.0,0.0,0.0,0.0,0.0,0.0,0.0,-0.1418,0.0,0.0,0.0,0.0,0.2312,0.0,0.0,0.0,0.0,0.0,0.0,0.0,0.0,0.0,0.0,0.8069,0.8973,1.0295,1.0453,0.0,0.0,0.9454,0.9198,0.8522,0.8677,0.8508,0.7836,0.7802,0.7802,0.7802,0.7598,0.7489,0.7489,0.7489,0.7489,0.7489,0.7489,0.7489,0.7489,0.7489,0.7489,0.7489,0.7489,0.7489,0.7489,0.7489,0.7489,0.7489,0.7489,0.7363,0.7134,0.6806,0.6576,0.6383,-1.3631,-1.3601,-1.37,-1.37,-1.37,-1.3848,0.0,-1.4697,-1.4912,-1.4719,-1.5059,-1.5236,-1.5035,-1.5266,-1.5317,-1.5052,-1.5274,-1.5215,-1.4718,-1.4964,-1.504,-1.492,-1.5015,-1.4893,-1.4461,-1.3344,-1.2508,-1.1965,-1.0548,-0.9836,0.0,0.0,0.0,0.0,0.0,-0.6728,-0.6695,-0.6013,-0.5982,-0.641,-0.6717,-0.6913,-0.7085,0.0,-0.7755,-0.7952,-0.831,-0.8506,0.0,-0.868,-0.8587,-0.8316,-0.7607,-0.7012,-0.6383,-0.5691,-0.5214,0.0,0.0,0.0,-0.2906,-0.2468,0.0,0.0,0.0,0.0,0.0,0.0,0.0,0.0,0.0,0.0,0.0,0.0,0.0,0.0,0.0,0.8069,0.8844,0.9741,1.0225,1.0421,0.0,0.0,0.0,0.8765,0.8774,0.8518,0.785,0.7679,0.7598,0.7598,0.7527,0.7489,0.7489,0.7489,0.7489,0.7489,0.7489,0.7489,0.7489,0.7489,0.7489,0.7489,0.7489,0.7489,0.7489,0.7489,0.7489,0.7489,0.7489,0.7363,0.7199,0.7073,0.6839,0.6581,-1.3944,-1.397,-1.4018,-1.3817,-1.4004,-1.4347,-1.4854,-1.503,-1.5012,-1.4838,-1.507,-1.5204,-1.5023,-1.5467,-1.5703,-1.5446,-1.5651,-1.56,-1.5112,-1.536,-1.53,-1.4807,-1.4915,-1.4691,-1.4072,-1.2947,-1.218,-1.1826,-1.0485,-0.9804,0.0,0.0,0.0,0.0,0.0,-0.6268,-0.6013,-0.5587,-0.5567,-0.5809,0.0,-0.6379,0.0,0.0,-0.7295,-0.8058,0.0,-0.8192,-0.8399,-0.82,-0.8143,-0.8023,-0.7365,-0.6755,-0.6171,-0.5735,-0.5217,-0.4758,-0.4758,-0.3838,0.0,-0.2905,-0.165,0.0,-0.0474,0.0,0.1407,0.0,0.0,0.0,0.0,0.0,0.0,0.0,0.0,0.0,0.0,0.8069,0.8651,0.9102,0.9939,1.0524,1.0631,1.0283,0.9715,0.8845,0.8789,0.8518,0.0,0.0,0.7603,0.7603,0.7531,0.7489,0.7489,0.7489,0.7489,0.7489,0.7489,0.7489,0.7489,0.7489,0.7489,0.7489,0.7489,0.7489,0.7489,0.7489,0.7489,0.7489,0.7489,0.7428,0.7297,0.7232,0.7003,0.6675,-1.4591,-1.4559,-1.4498,-1.4009,-1.4501,-1.5097,-1.5468,-1.5184,-1.4847,-1.4668,-1.4755,-1.4788,-1.4601,-1.5259,-1.5736,-1.5771,-1.5719,-1.571,-1.571,-1.5834,-1.55,-1.4554,-1.4514,-1.3954,-1.2703,-1.1838,-1.1274,-1.0979,-1.0168,-0.9772,-0.9772,0.0,0.0,0.0,-0.6662,0.0,-0.5395,-0.5395,-0.5395,-0.5395,-0.5395,-0.5428,-0.5456,-0.5666,-0.6942,-0.8492,-0.7704,-0.761,-0.7735,-0.7219,-0.7058,-0.6945,-0.6372,-0.5796,-0.5304,-0.5304,-0.4924,-0.4491,-0.4491,-0.3625,-0.2693,-0.2693,0.0,0.0,0.0,0.0,0.0372,0.0,0.0,0.0,0.0,0.0,0.0,0.0,0.0,0.0,0.0,0.8037,0.8458,0.849,0.9614,1.0495,1.0797,1.0574,0.9987,0.8873,0.8765,0.85,0.0,0.0,0.7797,0.7797,0.7598,0.7489,0.7489,0.7489,0.7489,0.7489,0.7489,0.7489,0.7489,0.7489,0.7489,0.7489,0.7489,0.7489,0.7489,0.7489,0.7489,0.7489,0.7489,0.7489,0.7456,0.7265,0.6975,0.6675,-1.4991,-1.5126,-1.534,-1.5613,-1.5805,-1.5971,-1.6072,-1.5652,-1.5258,-1.5056,-1.4454,-1.4178,-1.4565,-1.4571,-1.4773,-1.53,-1.4671,-1.4243,-1.4243,-1.382,-1.348,-1.3199,-1.327,-1.3055,-1.2432,-1.1731,-1.1217,-1.086,-1.0009,-0.958,-0.9548,0.0,0.0,0.0,0.0,-0.5557,-0.5395,-0.5395,-0.5395,-0.5395,-0.5395,-0.5686,-0.6069,0.0,-0.6022,-0.7224,-0.673,-0.6584,-0.6615,-0.648,-0.6426,-0.6399,-0.6236,-0.5796,-0.5304,-0.5304,-0.4924,-0.4491,-0.4491,-0.3621,-0.2687,-0.2687,-0.171,-0.0724,0.0,0.0,0.0,0.0,0.0,0.0,0.0,0.0,0.0,0.0,0.0,0.0,0.0,0.7652,0.7944,0.8458,0.8812,0.9221,0.9808,0.9616,0.9276,0.8828,0.8467,0.8146,0.0,0.0,0.0,0.7574,0.7522,0.7489,0.7489,0.7489,0.7489,0.7489,0.7489,0.7489,0.7489,0.7489,0.7489,0.7489,0.7489,0.7489,0.7489,0.7489,0.7489,0.7489,0.7489,0.7489,0.7456,0.7106,0.6913,0.6815,-1.5596,-1.5604,-1.5748,-1.6047,-1.5799,-1.5696,-1.6014,-1.5442,-1.478,-1.425,-1.3518,-1.3143,-1.3393,-1.3461,-1.3674,-1.4082,-1.3603,-1.3258,-1.3258,-1.2923,-1.2545,-1.2199,-1.2253,-1.1961,-1.1271,-1.0916,-1.0575,-1.0218,-0.9728,0.0,-0.9484,0.0,0.0,0.0,0.0,-0.5395,-0.5395,-0.5395,-0.5395,-0.5395,-0.5395,-0.562,0.0,-0.5185,-0.5336,-0.5917,-0.5578,-0.5773,-0.6154,-0.5909,-0.5991,-0.6154,-0.5882,-0.5578,-0.5304,-0.5304,-0.4924,-0.4491,-0.4491,-0.3627,-0.2708,-0.2708,-0.1621,-0.0592,-0.0689,-0.0029,0.0813,0.0,0.0,0.0,0.0,0.0,0.0,0.5411,0.5951,0.0,0.0,0.7167,0.7391,0.8004,0.8069,0.8199,0.8587,0.8666,0.8612,0.8388,0.7967,0.0,0.0,0.0,0.0,0.7489,0.7489,0.7489,0.7489,0.7489,0.7489,0.7489,0.7489,0.7489,0.7489,0.7489,0.7489,0.7489,0.7489,0.7489,0.7489,0.7489,0.7489,0.7489,0.7489,0.7461,0.733,0.7007,0.6913,0.6848,-1.6136,-1.5826,-1.5657,-1.5657,-1.5073,-1.4788,-1.5401,-1.4744,0.0,-1.2954,0.0,-1.1999,-1.1846,-1.2232,-1.252,-1.2621,-1.2476,-1.242,-1.242,-1.232,-1.1977,-1.1262,-1.1228,-1.0813,-0.9859,-0.9853,-0.9745,-0.9516,0.0,0.0,0.0,0.0,0.0,0.0,0.0,-0.5395,-0.5395,-0.5395,-0.5395,-0.5395,-0.5395,-0.5395,-0.5361,-0.4936,-0.4826,-0.4847,-0.4515,-0.5062,-0.5909,-0.5363,-0.5555,-0.5882,-0.5363,-0.5199,-0.5199,-0.5171,-0.4846,-0.4491,-0.4463,-0.3597,-0.2681,-0.2681,-0.151,-0.0421,-0.0589,-0.0336,0.0254,0.1365,0.1728,0.2269,0.0,0.0,0.0,0.5694,0.0,0.0,0.0,0.6642,0.6872,0.7326,0.7456,0.0,0.7489,0.7904,0.8027,0.7793,0.0,0.0,0.0,0.0,0.0,0.7489,0.7456,0.7456,0.7489,0.0,0.7456,0.7489,0.7489,0.7489,0.7489,0.7489,0.7489,0.7489,0.7489,0.7489,0.7456,0.7456,0.7461,0.7428,0.7428,0.733,0.7138,0.6946,0.6881,0.6815,-1.5913,-1.528,-1.4816,-1.4816,-1.4673,-1.4422,-1.3962,-1.36,-1.3172,-1.2629,-1.1784,-1.1311,-1.1544,-1.1364,-1.1485,-1.2167,-1.1385,0.0,0.0,0.0,0.0,-0.9843,-0.9843,-0.9754,-0.9582,-0.9582,-0.9558,0.0,0.0,0.0,0.0,0.0,0.0,0.0,-0.5752,-0.5395,-0.5395,-0.5395,0.0,-0.5395,-0.5395,-0.5395,-0.5295,-0.4466,-0.4458,-0.4787,-0.4031,-0.4208,-0.4791,-0.468,-0.4708,-0.4791,-0.468,-0.4653,-0.4601,-0.4439,-0.4436,-0.4463,-0.4301,-0.3405,-0.2539,-0.2539,-0.137,-0.0252,-0.028,0.0224,0.0758,0.0989,0.1932,0.2769,0.3068,0.0,0.0,0.0,0.0,0.0,0.0,0.6412,0.6741,0.6839,0.7228,0.7489,0.7489,0.0,0.7798,0.0,0.0,0.0,0.0,0.0,0.0,0.0,0.733,0.0,0.0,0.0,0.733,0.7489,0.7489,0.7489,0.7489,0.7489,0.7489,0.7489,0.7489,0.7396,0.7265,0.7265,0.7138,0.7007,0.7007,0.6979,0.6942,0.6778,0.6741,0.6708,-1.5288,-1.4573,-1.4034,-1.4034,-1.3665,0.0,0.0,-1.2569,-1.2377,-1.1942,-1.1213,-1.0707,-1.067,-1.0376,-1.0341,-1.0723,-1.0283,-0.9983,-0.9983,-0.967,-0.9516,-0.9516,-0.9516,-0.9516,-0.9516,-0.9151,-0.9151,-0.9516,0.0,0.0,0.0,0.0,0.0,-0.6367,-0.5686,-0.5193,0.0,0.0,0.0,-0.4253,-0.4253,-0.4253,-0.4193,-0.3679,-0.3658,-0.3873,-0.3687,-0.3793,-0.4073,-0.4405,-0.4491,-0.4491,-0.4491,-0.4491,-0.4491,-0.4384,-0.4439,-0.4377,-0.3876,-0.3125,-0.24,-0.1983,-0.1035,-0.0196,-0.0196,0.014,0.0533,0.0842,0.1418,0.197,0.2365,0.2779,0.0,0.0,0.0,0.0,0.0,0.0,0.598,0.6251,0.6511,0.6773,0.7064,0.7187,0.7304,0.7498,0.0,0.0,0.0,0.0,0.0,0.0,0.0,0.0,0.0,0.0,0.0,0.733,0.7461,0.7489,0.7489,0.7489,0.7489,0.7489,0.7489,0.7461,0.7363,0.7237,0.7073,0.6913,0.6913,0.6848,0.6778,0.6708,0.6642,0.6515,-1.4494,-1.3629,-1.2981,-1.2981,-1.2428,-1.184,-1.1468,-1.1475,-1.1361,-1.1009,-1.0706,-1.0315,-0.9729,-0.9604,-0.9484,-0.9318,-0.942,-0.9446,-0.9285,-0.942,-0.9516,-0.9516,-0.9516,-0.9446,-0.9285,-0.8753,-0.8689,0.0,0.0,0.0,0.0,0.0,0.0,0.0,0.0,0.0,0.0,0.0,-0.3718,-0.3215,-0.3215,-0.3215,-0.3164,-0.2896,-0.2893,-0.3021,-0.3145,-0.3264,-0.343,-0.3873,-0.4236,-0.4491,-0.4491,-0.4491,-0.4463,-0.4325,-0.4294,-0.4128,-0.3347,-0.2734,-0.215,-0.1481,-0.0756,-0.0196,-0.0168,-0.0084,0.014,0.0617,0.0813,0.1116,0.1858,0.2165,0.0,0.0,0.0,0.0,0.0,0.0,0.5256,0.569,0.5822,0.6053,0.6478,0.0,0.0,0.0,0.0,0.0,0.7489,0.0,0.0,0.0,0.0,0.7073,0.6979,0.0,0.7134,0.0,0.7363,0.7456,0.7489,0.7489,0.7489,0.7489,0.7461,0.7396,0.733,0.7167,0.6975,0.6782,0.6782,0.6712,0.6642,0.6642,0.6548,0.6387,-1.3608,-1.2358,-1.1335,0.0,0.0,-1.0635,-0.9919,-1.0025,-1.0095,-0.9894,-1.0326,-1.0233,-0.902,-0.9432,-0.944,-0.8657,-0.9151,-0.9247,-0.8619,-0.9151,-0.9516,-0.9516,-0.9516,-0.9215,-0.8619,-0.8522,-0.8199,0.0,0.0,-0.712,0.0,0.0,0.0,0.0,0.0,0.0,0.0,-0.3582,-0.3249,-0.3215,-0.3215,-0.3215,-0.3131,-0.2457,-0.2525,-0.2899,-0.209,-0.215,-0.2595,-0.2454,-0.3345,-0.4491,-0.4491,-0.4491,-0.438,-0.3691,-0.3574,-0.3516,-0.277,-0.2127,-0.1621,-0.137,-0.0756,-0.0168,-0.0056,0.0,0.0028,0.0084,0.0533,0.1116,0.1858,0.2499,0.2988,0.0,0.0,0.0,0.0,0.0,0.512,0.5153,0.5591,0.5925,0.5954,0.6412,0.0,0.0,0.7195,0.0,0.0,0.0,0.0,0.7456,0.0,0.7007,0.7171,0.6905,0.6905,0.7204,0.7232,0.733,0.7489,0.7489,0.7489,0.7489,0.7297,0.7068,0.6773,0.6741,0.6646,0.6453,0.6453,0.6449,0.6416,0.6416,0.6416,0.6387,0.0,0.0,0.0,0.0,0.0,0.0,0.0,-0.927,-0.9125,-0.8454,-0.8865,-0.8924,-0.8214,-0.8366,-0.8361,-0.7874,-0.8069,-0.8139,-0.7842,-0.8107,-0.8236,-0.8236,-0.8236,-0.8107,-0.7842,-0.7447,-0.7284,0.0,0.0,0.0,0.0,0.0,0.0,0.0,0.0,-0.3382,-0.2948,-0.2681,-0.2313,-0.1946,-0.1946,-0.1928,-0.1859,-0.1567,-0.1555,-0.1729,-0.1621,-0.1761,-0.1983,-0.2148,-0.2619,-0.3121,-0.3121,-0.3121,-0.3095,-0.2903,-0.2903,-0.279,-0.2125,-0.179,-0.1454,-0.0896,-0.0476,-0.0196,-0.014,-0.0056,0.0,0.0,0.0196,0.0455,0.0743,0.1369,0.1996,0.0,0.0,0.0,0.0,0.0,0.0,0.4628,0.4797,0.506,0.5388,0.5617,0.0,0.0,0.0,0.0,0.0,0.0,0.0,0.733,0.0,0.6811,0.6905,0.6773,0.6811,0.7007,0.7138,0.7297,0.7489,0.7489,0.7423,0.7297,0.7106,0.6909,0.6708,0.6708,0.6581,0.6387,0.6387,0.6387,0.6387,0.6387,0.6387,0.6432,-1.1113,0.0,-0.9384,0.0,-0.9108,-0.8881,-0.8346,-0.8379,-0.8182,-0.7283,-0.7456,-0.7652,-0.7549,-0.7707,-0.7642,-0.7223,-0.7321,-0.7321,-0.7125,-0.7288,-0.7386,-0.7386,-0.7386,0.0,-0.7125,-0.6629,-0.6531,-0.6802,-0.5851,0.0,0.0,0.0,0.0,0.0,-0.3215,-0.2581,-0.2079,-0.1879,-0.1545,-0.1109,-0.1109,-0.1059,-0.0998,-0.1,-0.0969,-0.0939,-0.1219,-0.1287,-0.1286,-0.1536,-0.1591,-0.1619,-0.2063,-0.2202,-0.2202,-0.2148,-0.2178,-0.2094,-0.1426,-0.1315,-0.1231,-0.0505,-0.0308,-0.0224,-0.0168,-0.0056,0.0,0.0,0.014,0.0198,0.0029,0.0905,0.1771,0.2046,0.0,0.0,0.0,0.43,0.0,0.43,0.43,0.4398,0.4688,0.4855,0.0,0.0,0.0,0.0,0.0,0.0,0.0,0.0,0.0,0.0,0.0,0.6693,0.6759,0.6897,0.7092,0.7291,0.7485,0.7424,0.7297,0.7106,0.6979,0.6778,0.6609,0.6675,0.6581,0.6387,0.6387,0.6387,0.6387,0.6387,0.6453,0.6518,-1.0827,-0.9509,-0.8394,-0.8229,-0.7954,-0.7505,-0.6813,-0.7194,-0.7265,-0.6515,-0.6416,-0.6613,-0.7138,-0.7679,-0.7642,-0.6769,-0.7129,-0.7125,-0.6465,-0.7022,-0.7386,0.0,0.0,-0.7088,-0.6429,-0.64,-0.6075,-0.5428,0.0,0.0,-0.5395,0.0,-0.3918,-0.3182,-0.2447,-0.2114,-0.2045,-0.1377,-0.1109,-0.1109,-0.1109,-0.1059,-0.0998,-0.1,-0.0969,-0.0881,-0.0766,-0.0589,-0.0393,-0.028,-0.014,-0.028,-0.173,-0.2202,-0.2091,-0.1481,-0.1454,-0.1426,-0.0644,-0.0645,-0.0785,-0.0308,-0.0308,-0.0336,-0.0056,0.0,0.0,0.0,0.0477,0.0708,0.0117,0.1628,0.2797,0.2206,0.0,0.0,0.0,0.43,0.0,0.43,0.43,0.4164,0.3859,0.4292,0.0,0.0,0.0,0.0,0.0,0.0,0.0,0.6913,0.6778,0.0,0.6708,0.6684,0.6779,0.6886,0.7086,0.7296,0.75,0.7295,0.7106,0.6913,0.6913,0.6716,0.6416,0.6609,0.6581,0.6387,0.6387,0.6387,0.6387,0.6387,0.6534,0.6692,-0.9045,-0.8174,-0.7405,-0.7224,-0.7074,-0.6886,-0.6555,-0.6651,-0.6679,-0.6416,-0.6387,-0.6449,-0.6646,-0.6736,-0.6568,0.0,-0.6075,-0.6042,0.0,-0.5918,-0.605,-0.605,-0.605,-0.5951,-0.5719,-0.5719,-0.5624,-0.5395,0.0,0.0,0.0,-0.3382,-0.2681,-0.2414,-0.1712,-0.1411,-0.1411,-0.1176,-0.1109,-0.1109,-0.1109,-0.0883,-0.0532,-0.0527,-0.0299,0.0,0.0197,0.042,0.0587,0.0308,0.0393,0.0449,-0.042,-0.0699,-0.0671,-0.0588,-0.0588,-0.0616,-0.0449,-0.0477,-0.0533,-0.0364,-0.0308,-0.0252,-0.0168,-0.0056,0.0112,0.0533,0.0757,0.0844,0.0654,0.1932,0.2807,0.2209,0.335,0.0,0.0,0.0,0.43,0.43,0.43,0.4164,0.3825,0.3959,0.0,0.0,0.0,0.0,0.0,0.0,0.0,0.0,0.6646,0.0,0.6708,0.6688,0.6783,0.689,0.6958,0.7026,0.7105,0.7038,0.6909,0.6741,0.6613,0.6486,0.642,0.6482,0.6449,0.6387,0.6387,0.6387,0.6387,0.6387,0.6534,0.6712,-0.8085,-0.7443,-0.6829,-0.6623,-0.6591,-0.6554,-0.6436,-0.6218,-0.6083,-0.6083,-0.5918,-0.5785,-0.5785,-0.5716,0.0,-0.5315,-0.5084,-0.4818,-0.4589,-0.4589,-0.4589,-0.4589,-0.4589,-0.4589,-0.4589,-0.4589,0.0,-0.4589,-0.4589,-0.4187,-0.3451,-0.2547,-0.198,-0.1712,-0.1276,-0.1109,-0.1109,-0.1109,-0.0975,-0.0806,-0.0806,-0.0488,0.0,0.0,0.0178,0.0421,0.0533,0.0812,0.1062,0.0756,0.0924,0.1121,0.0533,0.0336,0.028,-0.0028,-0.0168,-0.0196,-0.0252,-0.0336,-0.0364,-0.028,-0.0224,-0.0196,-0.014,0.0112,0.0449,0.0814,0.126,0.1428,0.0981,0.2037,0.2768,0.2181,0.3101,0.3995,0.4267,0.0,0.43,0.0,0.0,0.0,0.0,0.3558,0.3556,0.0,0.0,0.0,0.0,0.0,0.0,0.6716,0.6519,0.0,0.671,0.6791,0.6884,0.7028,0.7024,0.6963,0.6913,0.6848,0.6778,0.6675,0.6482,0.6387,0.6387,0.6387,0.6387,0.6387,0.6387,0.6387,0.6395,0.6497,0.6635,0.6853,-0.7816,-0.7201,-0.6607,0.0,-0.6383,0.0,-0.635,-0.5881,-0.555,-0.555,-0.5113,-0.4815,-0.4815,-0.4782,-0.4749,-0.4716,0.0,0.0,0.0,-0.3215,-0.3215,-0.3215,-0.3215,-0.3215,-0.3215,-0.3215,-0.3215,-0.3215,-0.3149,-0.2781,-0.2114,-0.2045,-0.1712,-0.1109,-0.1109,-0.1076,-0.1042,-0.1042,-0.0739,-0.0235,-0.0235,0.0065,0.0556,0.0556,0.0534,0.0505,0.0505,0.0812,0.1202,0.1174,0.1454,0.1762,0.1149,0.0953,0.0841,0.0196,-0.0084,-0.014,0.0028,-0.0112,-0.0252,0.0056,0.0028,-0.0028,0.0084,0.0561,0.0981,0.1009,0.193,0.2347,0.1232,0.2096,0.2797,0.2242,0.2777,0.352,0.4197,0.0,0.43,0.0,0.0,0.0,0.0,0.3192,0.3025,0.0,0.0,0.0,0.0,0.0,0.6145,0.6383,0.6387,0.6501,0.6706,0.6894,0.7073,0.7167,0.7205,0.7069,0.6848,0.6741,0.6708,0.6675,0.6482,0.6387,0.6387,0.6387,0.6387,0.6387,0.6387,0.6395,0.6461,0.6631,0.6845,0.7033,0.0,0.0,-0.6465,-0.6391,-0.605,-0.5782,-0.5782,-0.5348,-0.4981,-0.4981,-0.4882,-0.4815,-0.4815,-0.4422,-0.409,-0.3818,-0.3885,-0.3751,-0.3215,-0.3215,-0.3215,-0.3215,-0.3215,-0.3215,-0.3215,-0.3215,-0.3215,-0.3215,-0.2648,-0.228,-0.2079,-0.1577,-0.1243,-0.1109,-0.1109,-0.0874,-0.0504,-0.0504,-0.0168,0.0302,0.0302,0.0617,0.1047,0.1047,0.1216,0.1459,0.1459,0.1822,0.224,0.179,0.2012,0.2374,0.179,0.1595,0.1371,0.0308,-0.0028,0.0056,0.0561,0.0645,0.0729,0.1231,0.1343,0.1343,0.1371,0.1483,0.1706,0.2179,0.2514,0.2625,0.2319,0.3035,0.3475,0.2891,0.3492,0.4097,0.4267,0.43,0.0,0.0,0.4064,0.3727,0.3259,0.2956,0.2787,0.0,0.0,0.0,0.0,0.4981,0.5514,0.6383,0.6387,0.6501,0.6706,0.6894,0.7008,0.7053,0.7143,0.6965,0.6515,0.6642,0.6609,0.6482,0.6416,0.6387,0.6387,0.6387,0.6387,0.6387,0.6387,0.6505,0.6635,0.6668,0.6883,0.7167,-0.6083,-0.6017,-0.5951,-0.5716,-0.5415,-0.5249,-0.5249,-0.4785,-0.4422,-0.4422,-0.422,-0.4054,-0.4054,-0.3825,-0.3491,-0.3155,-0.3153,-0.2986,-0.2517,-0.2315,-0.2248,-0.2248,-0.2248,-0.2248,-0.2248,-0.2248,-0.2248,-0.2248,-0.1846,-0.1646,-0.1646,-0.1276,-0.0975,-0.0739,-0.0739,-0.0437,0.0067,0.0067,0.037,0.0874,0.0874,0.1137,0.157,0.157,0.1661,0.1797,0.1797,0.2076,0.2437,0.2268,0.2517,0.2794,0.2347,0.2207,0.204,0.1091,0.0812,0.0896,0.1232,0.1316,0.14,0.1706,0.179,0.179,0.179,0.2014,0.2291,0.2625,0.2905,0.3019,0.2764,0.3094,0.3352,0.3046,0.3459,0.3925,0.4267,0.43,0.0,0.43,0.3995,0.3725,0.3491,0.3157,0.2855,0.272,0.2686,0.0,0.4517,0.4586,0.5117,0.6354,0.6497,0.6623,0.6837,0.7098,0.7192,0.7078,0.7096,0.6906,0.6534,0.6552,0.6515,0.6387,0.6387,0.6387,0.6387,0.6387,0.6387,0.6395,0.6513,0.6607,0.6717,0.6871,0.7054,0.7199,-0.558,-0.5484,-0.5348,-0.4882,-0.4716,-0.4683,-0.4683,-0.4225,-0.3894,-0.3894,-0.3493,-0.3192,-0.3192,-0.3192,-0.3092,-0.2787,-0.2453,-0.2085,-0.1614,-0.1344,-0.1143,-0.1109,-0.1143,-0.1176,-0.1176,-0.1109,-0.1042,-0.0975,-0.0908,-0.0874,-0.0874,-0.0874,-0.0605,-0.0168,-0.0168,0.0134,0.0605,0.0605,0.0941,0.1446,0.1446,0.1662,0.2016,0.2006,0.1934,0.1809,0.18,0.1964,0.224,0.2521,0.2828,0.3047,0.2794,0.2766,0.2738,0.2153,0.2041,0.2041,0.1958,0.2014,0.2069,0.2069,0.2069,0.2069,0.2069,0.246,0.285,0.285,0.3244,0.3441,0.2933,0.2949,0.3075,0.3138,0.3264,0.3587,0.4197,0.0,0.43,0.43,0.3995,0.3792,0.3792,0.3426,0.3092,0.2787,0.282,0.332,0.432,0.442,0.506,0.639,0.6599,0.6816,0.7029,0.7355,0.7399,0.7187,0.707,0.6918,0.6706,0.6526,0.6444,0.6387,0.6387,0.6387,0.6387,0.6444,0.6457,0.6477,0.6664,0.6753,0.6814,0.7078,0.7207,0.7285,-0.4948,-0.4915,-0.4882,-0.4815,-0.442,-0.4125,-0.4125,-0.3658,-0.3326,-0.3326,-0.3259,-0.3192,-0.3192,-0.3192,-0.3192,-0.3125,-0.2822,-0.2318,-0.1648,-0.1547,-0.1412,-0.1109,-0.1379,-0.1513,-0.1513,-0.1076,-0.0706,-0.0437,0.0034,0.0235,0.0235,0.0235,0.0302,0.037,0.037,0.0672,0.1176,0.1176,0.1513,0.2052,0.2052,0.2079,0.2076,0.2023,0.1959,0.189,0.1813,0.1964,0.2212,0.2268,0.2631,0.3047,0.2772,0.3051,0.3385,0.3019,0.3105,0.3218,0.271,0.2935,0.3332,0.3332,0.3332,0.3332,0.3332,0.3388,0.3471,0.3471,0.3527,0.3583,0.3471,0.3629,0.375,0.375,0.3977,0.4164,0.43,0.0,0.43,0.43,0.3995,0.3792,0.3792,0.3426,0.3192,0.3125,0.3424,0.3956,0.4683,0.5047,0.567,0.6631,0.6672,0.6851,0.7179,0.7382,0.7399,0.7187,0.7196,0.7013,0.6692,0.6668,0.6566,0.6387,0.6387,0.6387,0.6428,0.6574,0.6669,0.669,0.6873,0.7005,0.7114,0.7167,0.7317,0.7447,-0.442,-0.4356,-0.4289,-0.399,-0.3725,-0.356,-0.356,-0.336,-0.3192,-0.3192,-0.3192,-0.3192,-0.3192,-0.2889,-0.2653,-0.2653,-0.2149,-0.1578,-0.0941,-0.1076,-0.0908,-0.037,-0.0504,-0.0571,-0.0571,-0.0336,-0.0101,0.0134,0.037,0.0504,0.0504,0.0504,0.0638,0.0941,0.0941,0.1244,0.1783,0.1783,0.1951,0.2188,0.2188,0.215,0.2088,0.2026,0.1965,0.1903,0.1817,0.188,0.2018,0.2156,0.2378,0.2631,0.2689,0.2886,0.3109,0.3105,0.333,0.3527,0.3272,0.3385,0.3613,0.3613,0.3613,0.3613,0.3613,0.3613,0.3613,0.3613,0.3613,0.363,0.3693,0.3816,0.3924,0.3992,0.4183,0.0,0.0,0.43,0.43,0.43,0.3995,0.3859,0.4061,0.3527,0.3192,0.3192,0.3558,0.4023,0.4519,0.5155,0.5915,0.6818,0.6928,0.7106,0.7362,0.7443,0.7443,0.7362,0.7231,0.7102,0.6976,0.6879,0.6824,0.6708,0.6708,0.6708,0.6712,0.6829,0.6861,0.6878,0.7029,0.7151,0.7199,0.733,0.7415,0.7484,-0.3892,-0.3828,-0.3694,-0.3259,-0.3192,-0.3192,-0.3192,-0.3192,-0.3192,-0.3192,-0.3058,-0.2956,-0.2956,-0.235,-0.1946,-0.1946,-0.1411,-0.084,-0.0202,-0.0403,-0.0302,0.0269,0.0168,0.0134,0.0168,0.0269,0.047,0.0672,0.084,0.0908,0.0908,0.0908,0.1109,0.1513,0.1513,0.1783,0.2188,0.2188,0.2188,0.2188,0.2188,0.2159,0.211,0.2048,0.1986,0.1923,0.1837,0.1808,0.1825,0.2046,0.2156,0.224,0.2493,0.2689,0.2828,0.3049,0.333,0.3613,0.3613,0.3613,0.3613,0.3613,0.3613,0.3613,0.3613,0.3613,0.3613,0.3613,0.3613,0.3649,0.3761,0.3852,0.3943,0.4067,0.0,0.0,0.0,0.43,0.43,0.43,0.4064,0.3995,0.4164,0.3663,0.3326,0.3326,0.3758,0.42,0.4596,0.5406,0.622,0.7009,0.7192,0.735,0.748,0.7484,0.7484,0.748,0.7346,0.7227,0.7183,0.7082,0.7029,0.7023,0.7202,0.7166,0.7027,0.7244,0.7229,0.7069,0.7216,0.7285,0.7301,0.7435,0.7484,0.7484,-0.3259,-0.3259,-0.3259,-0.3192,-0.3192,-0.3192,-0.3192,-0.3192,-0.3192,-0.3192,-0.2653,-0.2281,-0.2281,-0.1612,-0.1176,-0.1176,-0.1143,-0.0706,0.0202,0.0235,0.0235,0.0302,-0.0168,-0.037,-0.0269,0.0235,0.0739,0.1244,0.1817,0.2087,0.2087,0.2087,0.2087,0.212,0.212,0.2154,0.2188,0.2188,0.2188,0.2188,0.2188,0.2185,0.2174,0.2113,0.2049,0.1988,0.1926,0.1841,0.1797,0.1825,0.199,0.2212,0.224,0.2631,0.3077,0.3102,0.333,0.3613,0.3613,0.3613,0.3613,0.3613,0.3613,0.3613,0.3613,0.3613,0.3613,0.3613,0.3613,0.3649,0.3761,0.3852,0.3943,0.4067,0.0,0.0,0.43,0.43,0.43,0.43,0.4267,0.4164,0.3859,0.3792,0.3758,0.3758,0.4353,0.4937,0.548,0.6218,0.6803,0.7159,0.7374,0.7472,0.7484,0.7484,0.7484,0.7484,0.7472,0.7378,0.7187,0.7175,0.711,0.7059,0.7801,0.7695,0.7071,0.7956,0.7855,0.722,0.7399,0.7464,0.7464,0.748,0.7484,0.7484,-0.3192,-0.3192,-0.3192,-0.3192,-0.3192,-0.3192,-0.3192,-0.2855,-0.2584,-0.2584,-0.1947,-0.1511,-0.1511,-0.0873,-0.0403,-0.0403,0.0,0.0437,0.0908,0.084,0.084,0.0908,0.0638,0.0605,0.0874,0.1076,0.1412,0.185,0.2087,0.2188,0.2188,0.2188,0.2188,0.2188,0.2188,0.2188,0.2188,0.2188,0.2453,0.2818,0.2818,0.3086,0.3511,0.3443,0.338,0.3366,0.3294,0.3166,0.3029,0.3029,0.3041,0.3072,0.3158,0.3352,0.3602,0.3879,0.3962,0.3962,0.3962,0.3802,0.3613,0.3613,0.3613,0.3613,0.3613,0.3613,0.3613,0.3613,0.3668,0.3753,0.3844,0.3966,0.4056,0.4211,0.0,0.43,0.43,0.43,0.43,0.43,0.43,0.4164,0.3825,0.399,0.4051,0.3947,0.477,0.5449,0.5779,0.6559,0.7131,0.7378,0.7447,0.7484,0.7484,0.7484,0.7484,0.7484,0.7484,0.7447,0.7382,0.7382,0.7647,0.8059,0.8393,0.8611,0.8795,0.8655,0.8397,0.8105,0.7647,0.7484,0.7484,0.7484,0.7484,0.7484,-0.3192,-0.3192,-0.3125,-0.2922,-0.2889,-0.2822,-0.2587,-0.2149,-0.1846,-0.1846,-0.1209,-0.0739,-0.0739,-0.0101,0.0336,0.0336,0.0807,0.1143,0.1244,0.1143,0.1143,0.1244,0.1143,0.1244,0.158,0.1614,0.1783,0.2188,0.2188,0.2188,0.2188,0.2188,0.2188,0.2188,0.2188,0.2188,0.2221,0.2421,0.2785,0.3215,0.3451,0.3851,0.4309,0.4259,0.4204,0.4189,0.4137,0.4027,0.3897,0.3897,0.3838,0.3795,0.4026,0.4172,0.4307,0.4615,0.4577,0.4426,0.4426,0.4211,0.3941,0.3666,0.3613,0.3613,0.3613,0.3613,0.3621,0.3657,0.3728,0.3832,0.3932,0.4029,0.4159,0.4281,0.43,0.43,0.43,0.43,0.43,0.43,0.44,0.4347,0.4074,0.4346,0.4563,0.458,0.5294,0.5888,0.6302,0.6949,0.7362,0.748,0.7484,0.7484,0.7484,0.7484,0.7484,0.7484,0.7484,0.7484,0.7484,0.7484,0.7787,0.836,0.8851,0.9263,0.9523,0.949,0.9155,0.8661,0.8093,0.771,0.7484,0.7484,0.7484,0.7484,-0.3192,-0.3192,-0.2989,-0.2315,-0.2181,-0.1946,-0.121,-0.1109,-0.1076,-0.1076,-0.0437,0.0,0.0,0.0672,0.1109,0.1109,0.1109,0.1109,0.1109,0.1109,0.1109,0.111,0.1109,0.1244,0.1581,0.1615,0.1784,0.2189,0.2189,0.2189,0.2189,0.2188,0.2188,0.2188,0.2221,0.2221,0.2255,0.2919,0.3215,0.3282,0.402,0.432,0.432,0.432,0.4276,0.4203,0.4203,0.4185,0.4108,0.4108,0.4108,0.4199,0.4655,0.4981,0.5212,0.5212,0.5063,0.4904,0.4904,0.4904,0.4712,0.3833,0.3613,0.3613,0.3613,0.3613,0.3646,0.3787,0.3812,0.386,0.4072,0.4086,0.4159,0.4281,0.43,0.43,0.43,0.43,0.4303,0.4303,0.46,0.4751,0.4634,0.4922,0.5326,0.5864,0.5914,0.6273,0.7142,0.7391,0.7484,0.7484,0.7484,0.7484,0.7484,0.7484,0.7484,0.7484,0.7484,0.7484,0.7484,0.7484,0.7522,0.7595,0.9216,0.9448,0.8851,1.0432,1.0169,0.8703,0.8703,0.8208,0.7484,0.7484,0.7484,0.7484,-0.2484,-0.2082,-0.1647,-0.1478,-0.1444,-0.1344,-0.1143,-0.0672,-0.0336,-0.0336,0.0302,0.0773,0.0773,0.0975,0.1109,0.1109,0.1109,0.1084,0.1106,0.1108,0.1117,0.1174,0.1119,0.1281,0.1662,0.1658,0.1852,0.2281,0.2281,0.2281,0.2281,0.2237,0.2182,0.2215,0.2676,0.2919,0.2952,0.3651,0.4284,0.4779,0.4981,0.5348,0.5785,0.5785,0.5756,0.5745,0.5745,0.567,0.556,0.556,0.5486,0.5393,0.5631,0.5715,0.5761,0.6096,0.5999,0.5806,0.5806,0.5806,0.5599,0.4737,0.4515,0.4515,0.4515,0.4629,0.4633,0.4297,0.4399,0.4463,0.4168,0.4189,0.4259,0.4295,0.43,0.43,0.43,0.4744,0.5074,0.5074,0.561,0.5828,0.5409,0.5874,0.6187,0.6126,0.669,0.712,0.7403,0.7456,0.7484,0.7484,0.7484,0.7484,0.7484,0.7484,0.7484,0.7484,0.7484,0.7484,0.7484,0.7484,0.7825,0.8394,0.9442,1.0088,1.0432,1.0887,1.047,0.9485,0.8927,0.8208,0.7484,0.7484,0.7484,0.7484,-0.1779,-0.1411,-0.1008,-0.0706,-0.0672,-0.0571,-0.0269,0.0134,0.0437,0.0437,0.0807,0.1109,0.1109,0.1109,0.1109,0.1109,0.1087,0.1102,0.1085,0.1132,0.1147,0.1202,0.116,0.1331,0.1709,0.17,0.1897,0.2299,0.2299,0.2479,0.2805,0.2759,0.2915,0.3229,0.3584,0.3743,0.3808,0.447,0.4981,0.5411,0.5679,0.605,0.6387,0.6387,0.6387,0.6387,0.6387,0.6347,0.6286,0.6286,0.628,0.6318,0.6403,0.641,0.6472,0.6751,0.6636,0.6426,0.6426,0.6426,0.6309,0.578,0.538,0.5148,0.5148,0.5231,0.5233,0.4966,0.5064,0.5145,0.4858,0.4874,0.493,0.493,0.493,0.4949,0.5033,0.5422,0.5741,0.5839,0.6356,0.6618,0.6353,0.676,0.694,0.6738,0.719,0.7484,0.7484,0.7484,0.7484,0.7484,0.7484,0.7484,0.7484,0.7484,0.7484,0.7484,0.7484,0.7484,0.7484,0.7484,0.7748,0.8284,0.9405,1.0196,1.0651,1.1292,1.1105,1.0314,0.983,0.896,0.7978,0.7978,0.7787,0.7484,-0.1008,-0.0941,-0.0706,-0.0034,0.0101,0.0336,0.1008,0.1109,0.1109,0.1109,0.1109,0.1109,0.1109,0.1109,0.1109,0.1109,0.1104,0.1088,0.1094,0.1155,0.1208,0.1211,0.1201,0.1391,0.1799,0.1762,0.1946,0.2424,0.2424,0.2862,0.3732,0.3724,0.4116,0.4795,0.4739,0.4711,0.4726,0.5286,0.5491,0.5547,0.6148,0.6387,0.6387,0.6387,0.6387,0.6387,0.6387,0.6387,0.6387,0.6387,0.6618,0.6848,0.6881,0.7016,0.7187,0.7187,0.7054,0.6878,0.6878,0.6878,0.6878,0.6878,0.6263,0.567,0.5638,0.5642,0.567,0.5735,0.5776,0.5802,0.5895,0.5888,0.5888,0.5888,0.5888,0.5977,0.6173,0.6241,0.6387,0.6559,0.6917,0.7207,0.7368,0.75,0.7534,0.751,0.7522,0.7522,0.7522,0.7522,0.7484,0.7484,0.7484,0.7484,0.7484,0.7484,0.7484,0.7484,0.7484,0.7484,0.7484,0.7484,0.7484,0.7599,0.9145,0.982,1.0008,1.1552,1.1744,1.1074,1.1037,1.0056,0.8699,0.8627,0.8131,0.7484,-0.0235,0.0235,0.0672,0.084,0.0874,0.0908,0.1076,0.1109,0.1109,0.1109,0.1109,0.1109,0.1109,0.1109,0.1109,0.1109,0.1104,0.1105,0.1189,0.1198,0.1213,0.1275,0.1283,0.1748,0.2777,0.2164,0.2396,0.3467,0.3467,0.3889,0.4693,0.464,0.471,0.489,0.5384,0.5544,0.5431,0.6116,0.6336,0.6181,0.635,0.6387,0.6387,0.6387,0.6387,0.6387,0.6387,0.6387,0.6387,0.6387,0.6453,0.6552,0.6679,0.6846,0.6982,0.714,0.727,0.7361,0.7361,0.7361,0.7361,0.7361,0.7196,0.6985,0.6614,0.6695,0.6728,0.6333,0.6386,0.6367,0.5984,0.5888,0.5888,0.5888,0.5888,0.5977,0.6173,0.6693,0.713,0.7346,0.7948,0.8285,0.8179,0.8036,0.7905,0.7757,0.7723,0.7723,0.7723,0.7603,0.7484,0.7484,0.7484,0.7484,0.7484,0.7484,0.7484,0.7484,0.7484,0.7484,0.7484,0.7484,0.7484,0.7561,0.8546,0.9334,0.997,1.0956,1.126,1.1037,1.0426,0.9561,0.8627,0.7978,0.7633,0.7484,0.0538,0.084,0.1109,0.1109,0.1109,0.1109,0.1109,0.1109,0.1109,0.1109,0.1109,0.1109,0.1109,0.1109,0.1116,0.1096,0.1138,0.1178,0.121,0.1226,0.1279,0.1295,0.1765,0.2352,0.3093,0.3173,0.36,0.4377,0.4377,0.4766,0.558,0.5549,0.5743,0.6156,0.6419,0.6447,0.639,0.661,0.6623,0.6534,0.6453,0.6387,0.6387,0.6387,0.6387,0.6387,0.6387,0.6387,0.642,0.6515,0.6581,0.6683,0.6872,0.7036,0.7204,0.7297,0.7428,0.7489,0.7489,0.7489,0.7489,0.7489,0.7423,0.7307,0.716,0.7256,0.7268,0.698,0.6997,0.7003,0.6708,0.6675,0.6675,0.6675,0.6751,0.6874,0.709,0.7531,0.7906,0.81,0.8481,0.8627,0.8403,0.8289,0.8102,0.7842,0.7804,0.7761,0.7642,0.7561,0.7484,0.7484,0.7484,0.7484,0.7484,0.7484,0.7484,0.7484,0.7484,0.7484,0.7484,0.7484,0.7484,0.7561,0.836,0.8927,0.941,1.0619,1.1111,1.1111,1.1062,1.0539,0.9793,0.9372,0.8732,0.8016,0.1109,0.1109,0.1109,0.1109,0.1109,0.1109,0.1109,0.1109,0.1109,0.1109,0.1109,0.1109,0.1109,0.1114,0.1095,0.1126,0.118,0.1214,0.1219,0.1282,0.1375,0.1492,0.2313,0.2974,0.3521,0.4416,0.496,0.5198,0.5198,0.5622,0.6437,0.6437,0.6822,0.7476,0.7334,0.7215,0.7171,0.6899,0.6788,0.6743,0.6538,0.6465,0.6465,0.6399,0.6387,0.6387,0.6387,0.6387,0.6416,0.6642,0.6778,0.6913,0.7138,0.733,0.7456,0.7489,0.7489,0.7489,0.7489,0.7489,0.7489,0.7489,0.7363,0.7297,0.7456,0.7456,0.7456,0.7489,0.7489,0.7489,0.7489,0.7522,0.7546,0.7546,0.7726,0.7935,0.8108,0.8288,0.8477,0.8675,0.8703,0.8627,0.8403,0.8403,0.8268,0.7923,0.7889,0.7781,0.7651,0.7612,0.7573,0.7573,0.7573,0.7573,0.7573,0.7573,0.7573,0.7573,0.7573,0.7541,0.7484,0.7484,0.7484,0.7522,0.8208,0.8585,0.8813,1.0132,1.0844,1.1149,1.1663,1.1552,1.1074,1.0775,0.983,0.8589,0.1109,0.1109,0.1109,0.1109,0.1109,0.1109,0.1109,0.1109,0.1109,0.1109,0.1109,0.1109,0.1109,0.1099,0.1127,0.1194,0.1192,0.1223,0.1288,0.1294,0.161,0.2315,0.247,0.3405,0.5234,0.5389,0.5661,0.6047,0.6047,0.6475,0.7326,0.7326,0.7407,0.7484,0.746,0.7366,0.7183,0.7135,0.7058,0.6935,0.6729,0.6656,0.6639,0.6481,0.6387,0.6387,0.6387,0.6387,0.6416,0.6642,0.6708,0.6773,0.7101,0.7232,0.7269,0.7461,0.7489,0.7489,0.7489,0.7489,0.7489,0.7489,0.7493,0.7456,0.7489,0.7363,0.7297,0.7456,0.7489,0.7489,0.7489,0.7645,0.7769,0.7769,0.7944,0.8113,0.8325,0.8387,0.8477,0.8675,0.8703,0.8627,0.8403,0.8403,0.836,0.833,0.815,0.8108,0.8187,0.8024,0.7939,0.7939,0.7939,0.7939,0.7939,0.7939,0.7939,0.7939,0.7939,0.778,0.7484,0.7484,0.7484,0.7522,0.7595,0.8055,0.8703,0.8927,0.983,1.1031,1.0458,1.0576,1.0925,0.9533,0.8889,0.8589,0.1109,0.1109,0.1109,0.1109,0.1109,0.1109,0.1109,0.1109,0.1109,0.1109,0.1109,0.1109,0.1109,0.1118,0.1152,0.1202,0.1662,0.194,0.1961,0.243,0.2898,0.3368,0.3951,0.4699,0.5626,0.6197,0.6532,0.6663,0.6847,0.7134,0.7484,0.7484,0.7484,0.7484,0.7484,0.7439,0.7362,0.7265,0.7179,0.709,0.6947,0.6873,0.6865,0.6784,0.6656,0.6558,0.6457,0.6387,0.6416,0.6642,0.6741,0.6861,0.7241,0.7377,0.7429,0.7739,0.7772,0.7669,0.7669,0.7737,0.7806,0.7703,0.7669,0.7703,0.7806,0.7674,0.7541,0.7508,0.7489,0.7527,0.765,0.775,0.7854,0.7963,0.8122,0.8292,0.8392,0.85,0.86,0.8689,0.8703,0.8627,0.8403,0.8508,0.8495,0.826,0.8207,0.8183,0.8139,0.8057,0.8012,0.8012,0.8012,0.8012,0.8012,0.8012,0.8012,0.8012,0.8012,0.7882,0.7677,0.7677,0.762,0.7484,0.7484,0.771,0.8055,0.8513,0.9117,0.9755,0.9857,1.0121,1.0276,0.9117,0.8703,0.8589]},{"header":{"parameterUnit":"m.s-1","parameterCategory":1,"la1":30.6,"la2":28.766,"lo1":-90.7593,"lo2":-88.6598,"dy":0.0162,"dx":0.0183,"nx":116,"ny":114,"refTime":"2023-07-25T06:00:00:Z","depth":0,"parameterNumber":3,"parameterNumberName":"V-component_of_WINDS"},"data":[0.0,0.0,0.0,0.0,0.0,0.0,0.0,0.0,0.0,0.0,0.0,0.0,0.0,0.0,0.0,0.0,0.0,0.0,0.0,0.0,0.0,0.0,0.0,0.0,0.0,0.0,0.0,0.0,0.0,0.0,0.0,0.0,0.0,0.0,0.0,0.0,0.0,0.0,0.0,0.0,0.0,0.0,0.0,0.0,0.0,0.0,0.0,0.0,0.0,0.0,0.0,0.0,0.0,0.0,0.0,0.0,0.0,0.0,0.0,0.0,0.0,0.0,0.0,0.0,0.0,0.0,0.0,0.0,0.0,0.0,0.0,0.0,0.0,0.0,0.0,0.0,0.0,0.0,0.0,0.0,0.0,0.0,0.0,0.0,0.0,0.0,0.0,0.0,0.0,0.0,0.0,0.0,0.0,0.0,0.0,0.0,0.0,0.0,0.0,0.0,0.0,0.0,0.0,0.0,0.0,0.0,0.0,0.0,0.0,0.0,0.0,0.0,0.0,0.0,0.0,0.0,0.0,0.0,0.0,0.0,0.0,0.0,0.0,0.0,0.0,0.0,0.0,0.0,0.0,0.0,0.0,0.0,0.0,0.0,0.0,0.0,0.0,0.0,0.0,0.0,0.0,0.0,0.0,0.0,0.0,0.0,0.0,0.0,0.0,0.0,0.0,0.0,0.0,0.0,0.0,0.0,0.0,0.0,0.0,0.0,0.0,0.0,0.0,0.0,0.0,0.0,0.0,0.0,0.0,0.0,0.0,0.0,0.0,0.0,0.0,0.0,0.0,0.0,0.0,0.0,0.0,0.0,0.0,0.0,0.0,0.0,0.0,0.0,0.0,0.0,0.0,0.0,0.0,0.0,0.0,0.0,0.0,0.0,0.0,0.0,0.0,0.0,0.0,0.0,0.0,0.0,0.0,0.0,0.0,0.0,0.0,0.0,0.0,0.0,0.0,0.0,0.0,0.0,0.0,0.0,0.0,0.0,0.0,0.0,0.0,0.0,0.0,0.0,0.0,0.0,0.0,0.0,0.0,0.0,0.0,0.0,0.0,0.0,0.0,0.0,0.0,0.0,0.0,0.0,0.0,0.0,0.0,0.0,0.0,0.0,0.0,0.0,0.0,0.0,0.0,0.0,0.0,0.0,0.0,0.0,0.0,0.0,0.0,0.0,0.0,0.0,0.0,0.0,0.0,0.0,0.0,0.0,0.0,0.0,0.0,0.0,0.0,0.0,0.0,0.0,0.0,0.0,0.0,0.0,0.0,0.0,0.0,0.0,0.0,0.0,0.0,0.0,0.0,0.0,0.0,0.0,0.0,0.0,0.0,0.0,0.0,0.0,0.0,0.0,0.0,0.0,0.0,0.0,0.0,0.0,0.0,0.0,0.0,0.0,0.0,0.0,0.0,0.0,0.0,0.0,0.0,0.0,0.0,0.0,0.0,0.0,0.0,0.0,0.0,0.0,0.0,0.0,0.0,0.0,0.0,0.0,0.0,0.0,0.0,0.0,0.0,0.0,0.0,0.0,0.0,0.0,0.0,0.0,0.0,0.0,0.0,0.0,0.0,0.0,0.0,0.0,0.0,0.0,0.0,0.0,0.0,0.0,0.0,0.0,0.0,0.0,0.0,0.0,0.0,0.0,0.0,0.0,0.0,0.0,0.0,0.0,0.0,0.0,0.0,0.0,0.0,0.0,0.0,0.0,0.0,0.0,0.0,0.0,0.0,0.0,0.0,0.0,0.0,0.0,0.0,0.0,0.0,0.0,0.0,0.0,0.0,0.0,0.0,0.0,0.0,0.0,0.0,0.0,0.0,0.0,0.0,0.0,0.0,0.0,0.0,0.0,0.0,0.0,0.0,0.0,0.0,0.0,0.0,0.0,0.0,0.0,0.0,0.0,0.0,0.0,0.0,0.0,0.0,0.0,0.0,0.0,0.0,0.0,0.0,0.0,0.0,0.0,0.0,0.0,0.0,0.0,0.0,0.0,0.0,0.0,0.0,0.0,0.0,0.0,0.0,0.0,0.0,0.0,0.0,0.0,0.0,0.0,0.0,0.0,0.0,0.0,0.0,0.0,0.0,0.0,0.0,0.0,0.0,0.0,0.0,0.0,0.0,0.0,0.0,0.0,0.0,0.0,0.0,0.0,0.0,0.0,0.0,0.0,0.0,0.0,0.0,0.0,0.0,0.0,0.0,0.0,0.0,0.0,0.0,0.0,0.0,0.0,0.0,0.0,0.0,0.0,0.0,0.0,0.0,0.0,0.0,0.0,0.0,0.0,0.0,0.0,0.0,0.0,0.0,0.0,0.0,0.0,0.0,0.0,0.0,0.0,0.0,0.0,0.0,0.0,0.0,0.0,0.0,0.0,0.0,0.0,0.0,0.0,0.0,0.0,0.0,0.0,0.0,0.0,0.0,0.0,0.0,0.0,0.0,0.0,0.0,0.0,0.0,0.0,0.0,0.0,0.0,0.0,0.0,0.0,0.0,0.0,0.0,0.0,0.0,0.0,0.0,0.0,0.0,0.0,0.0,0.0,0.0,0.0,0.0,0.0,0.0,0.0,0.0,0.0,0.0,0.0,0.0,0.0,0.0,0.0,0.0,0.0,0.0,0.0,0.0,0.0,0.0,0.0,0.0,0.0,0.0,0.0,0.0,0.0,0.0,0.0,0.0,0.0,0.0,0.0,0.0,0.0,0.0,0.0,0.0,0.0,0.0,0.0,0.0,0.0,0.0,0.0,0.0,0.0,0.0,0.0,0.0,0.0,0.0,0.0,0.0,0.0,0.0,0.0,0.0,0.0,0.0,0.0,0.0,0.0,0.0,0.0,0.0,0.0,0.0,0.0,0.0,0.0,0.0,0.0,0.0,0.0,0.0,0.0,0.0,0.0,0.0,0.0,0.0,0.0,0.0,0.0,0.0,0.0,0.0,0.0,0.0,0.0,0.0,0.0,0.0,0.0,0.0,0.0,0.0,0.0,0.0,0.0,0.0,0.0,0.0,0.0,0.0,0.0,0.0,0.0,0.0,0.0,0.0,0.0,0.0,0.0,0.0,0.0,0.0,0.0,0.0,0.0,0.0,0.0,0.0,0.0,0.0,0.0,0.0,0.0,0.0,0.0,0.0,0.0,0.0,0.0,0.0,0.0,0.0,0.0,0.0,0.0,0.0,0.0,0.0,0.0,0.0,0.0,0.0,0.0,0.0,0.0,0.0,0.0,0.0,0.0,0.0,0.0,0.0,0.0,0.0,0.0,0.0,0.0,0.0,0.0,0.0,0.0,0.0,0.0,0.0,0.0,0.0,0.0,0.0,0.0,0.0,0.0,0.0,0.0,0.0,0.0,0.0,0.0,0.0,0.0,0.0,0.0,0.0,0.0,0.0,0.0,0.0,0.0,0.0,0.0,0.0,0.0,0.0,0.0,0.0,0.0,0.0,0.0,0.0,0.0,0.0,0.0,0.0,0.0,0.0,0.0,0.0,0.0,0.0,0.0,0.0,0.0,0.0,0.0,0.0,0.0,0.0,0.0,0.0,0.0,0.0,0.0,0.0,0.0,0.0,0.0,0.0,0.0,0.0,0.0,0.0,0.0,0.0,0.0,0.0,0.0,0.0,0.0,0.0,0.0,0.0,0.0,0.0,0.0,0.0,0.0,0.0,0.0,0.0,0.0,0.0,0.0,0.0,0.0,0.0,0.0,0.0,0.0,0.0,0.0,0.0,0.0,0.0,0.0,0.0,0.0,0.0,0.0,0.0,0.0,0.0,0.0,0.0,0.0,0.0,0.0,0.0,0.0,0.0,0.0,0.0,0.0,0.0,0.0,0.0,0.0,0.0,0.0,0.0,0.0,0.0,0.0,0.0,0.0,0.0,0.0,0.0,0.0,0.0,0.0,0.0,0.0,0.0,0.0,0.0,0.0,0.0,0.0,0.0,0.0,0.0,0.0,0.0,0.0,0.0,0.0,0.0,0.0,0.0,0.0,0.0,0.0,0.0,0.0,0.0,0.0,0.0,0.0,0.0,0.0,0.0,0.0,0.0,0.0,0.0,0.0,0.0,0.0,0.0,0.0,0.0,0.0,0.0,0.0,0.0,0.0,0.0,0.0,0.0,0.0,0.0,0.0,0.0,0.0,0.0,0.0,0.0,0.0,0.0,0.0,0.0,0.0,0.0,0.0,0.0,0.0,0.0,0.0,0.0,0.0,0.0,0.0,0.0,0.0,0.0,0.0,0.0,0.0,0.0,0.0,0.0,0.0,0.0,0.0,0.0,0.0,0.0,0.0,0.0,0.0,0.0,0.0,0.0,0.0,0.0,0.0,0.0,0.0,0.0,0.0,0.0,0.0,0.0,0.0,0.0,0.0,0.0,0.0,0.0,0.0,0.0,0.0,0.0,0.0,0.0,0.0,0.0,0.0,0.0,0.0,0.0,0.0,0.0,0.0,0.0,0.0,0.0,0.0,0.0,0.0,0.0,0.0,0.0,0.0,0.0,0.0,0.0,0.0,0.0,0.0,0.0,0.0,0.0,0.0,0.0,0.0,0.0,0.0,0.0,0.0,0.0,0.0,0.0,0.0,0.0,0.0,0.0,0.0,0.0,0.0,0.0,0.0,0.0,0.0,0.0,0.0,0.0,0.0,0.0,0.0,0.0,0.0,0.0,0.0,0.0,0.0,0.0,0.0,0.0,0.0,0.0,0.0,0.0,0.0,0.0,0.0,0.0,0.0,0.0,0.0,0.0,0.0,0.0,0.0,0.0,0.0,0.0,0.0,0.0,0.0,0.0,0.0,0.0,0.0,0.0,0.0,0.0,0.0,0.0,0.0,0.0,0.0,0.0,0.0,0.0,0.0,0.0,0.0,0.0,0.0,0.0,0.0,0.0,0.0,0.0,0.0,0.0,0.0,0.0,0.0,0.0,0.0,0.0,0.0,0.0,0.0,0.0,0.0,0.0,0.0,0.0,0.0,0.0,0.0,0.0,0.0,0.0,0.0,0.0,0.0,0.0,0.0,0.0,0.0,0.0,0.0,0.0,0.0,0.0,0.0,0.0,0.0,0.0,0.0,0.0,0.0,0.0,0.0,0.0,0.0,0.0,0.0,0.0,0.0,0.0,0.0,0.0,0.0,0.0,0.0,0.0,0.0,0.0,0.0,0.0,0.0,0.0,0.0,0.0,0.0,0.0,0.0,0.0,0.0,0.0,0.0,0.0,0.0,0.0,0.0,0.0,0.0,0.0,0.0,0.0,0.0,0.0,0.0,0.0,0.0,0.0,0.0,0.0,0.0,0.0,0.0,0.0,0.0,0.0,0.0,0.0,0.0,0.0,0.0,0.0,0.0,0.0,0.0,0.0,0.0,0.0,0.0,0.0,0.0,0.0,0.0,0.0,0.0,0.0,0.0,0.0,0.0,0.0,0.0,0.0,0.0,0.0,0.0,0.0,0.0,0.0,0.0,0.0,0.0,0.0,0.0,0.0,0.0,0.0,0.0,0.0,0.0,0.0,0.0,0.0,0.0,0.0,0.0,0.0,0.0,0.0,0.0,0.0,0.0,0.0,0.0,0.0,0.0,0.0,0.0,0.0,0.0,0.0,0.0,0.0,0.0,0.0,0.0,0.0,0.0,0.0,0.0,0.0,0.0,0.0,0.0,0.0,0.0,0.0,0.0,0.0,0.0,0.0,0.0,0.0,0.0,0.0,0.0,0.0,0.0,0.0,0.0,0.0,0.0,0.0,0.0,0.0,0.0,0.0,0.0,0.0,0.0,0.0,0.0,0.0,0.0,0.0,0.0,0.0,0.0,0.0,0.0,0.0,0.0,0.0,0.0,0.0,0.0,0.0,0.0,0.0,0.0,0.0,0.0,0.0,0.0,0.0,0.0,0.0,0.0,0.0,0.0,0.0,0.0,0.0,0.0,0.0,0.0,0.0,0.0,0.0,0.0,0.0,0.0,0.0,0.0,0.0,0.0,0.0,0.0,0.0,0.0,0.0,0.0,0.0,0.0,0.0,0.0,0.0,0.0,0.0,0.0,0.0,0.0,0.0,0.0,0.0,0.0,0.0,0.0,0.0,0.0,0.0,0.0,0.0,0.0,0.0,0.0,0.0,0.0,0.0,0.0,2.6661,0.0,0.0,0.0,0.0,0.0,0.0,0.0,0.0,0.0,0.0,0.0,0.0,0.0,0.0,0.0,0.0,0.0,0.0,0.0,0.0,0.0,0.0,0.0,0.0,0.0,0.0,0.0,0.0,0.0,0.0,0.0,0.0,0.0,0.0,0.0,0.0,0.0,0.0,0.0,0.0,0.0,0.0,0.0,0.0,0.0,0.0,0.0,0.0,0.0,0.0,0.0,0.0,0.0,0.0,0.0,0.0,0.0,0.0,0.0,0.0,0.0,0.0,0.0,0.0,0.0,0.0,0.0,0.0,0.0,0.0,0.0,0.0,0.0,0.0,0.0,0.0,0.0,0.0,0.0,0.0,0.0,0.0,0.0,0.0,0.0,0.0,0.0,0.0,0.0,0.0,0.0,0.0,0.0,0.0,0.0,0.0,0.0,0.0,0.0,0.0,0.0,0.0,0.0,0.0,0.0,0.0,0.0,0.0,0.0,0.0,0.0,0.0,0.0,0.0,0.0,0.0,2.672,0.0,0.0,0.0,0.0,0.0,0.0,0.0,0.0,0.0,0.0,0.0,0.0,0.0,0.0,0.0,0.0,0.0,0.0,0.0,0.0,0.0,0.0,0.0,0.0,0.0,0.0,0.0,0.0,0.0,0.0,0.0,0.0,0.0,0.0,0.0,0.0,0.0,0.0,0.0,0.0,0.0,0.0,0.0,0.0,0.0,0.0,0.0,0.0,0.0,0.0,0.0,0.0,0.0,0.0,0.0,0.0,0.0,0.0,0.0,0.0,0.0,0.0,0.0,0.0,0.0,0.0,0.0,0.0,0.0,0.0,0.0,0.0,0.0,0.0,0.0,0.0,0.0,0.0,0.0,0.0,0.0,0.0,0.0,0.0,0.0,0.0,0.0,0.0,0.0,0.0,0.0,0.0,0.0,0.0,0.0,0.0,0.0,0.0,0.0,0.0,0.0,0.0,0.0,0.0,0.0,0.0,0.0,0.0,2.7386,2.7258,2.7382,2.7463,2.7514,2.7549,2.7499,2.7125,2.6545,2.6209,0.0,0.0,0.0,0.0,0.0,0.0,0.0,0.0,0.0,0.0,0.0,0.0,0.0,0.0,0.0,0.0,0.0,0.0,0.0,0.0,0.0,0.0,0.0,0.0,0.0,0.0,0.0,0.0,0.0,0.0,0.0,0.0,0.0,0.0,0.0,0.0,0.0,0.0,2.6226,2.6243,2.5868,2.5173,2.5438,0.0,0.0,0.0,0.0,0.0,0.0,0.0,0.0,0.0,0.0,0.0,0.0,0.0,0.0,0.0,0.0,0.0,0.0,0.0,0.0,0.0,0.0,0.0,0.0,0.0,0.0,0.0,0.0,0.0,0.0,0.0,0.0,0.0,0.0,0.0,0.0,0.0,0.0,0.0,0.0,0.0,0.0,0.0,2.8458,2.9035,0.0,0.0,0.0,0.0,0.0,0.0,0.0,0.0,0.0,0.0,0.0,0.0,0.0,2.7524,2.7913,2.77,2.7849,2.8367,2.8076,2.8027,2.8158,2.7999,2.8024,2.8183,2.84,0.0,2.7179,2.5996,0.0,0.0,0.0,0.0,0.0,0.0,0.0,0.0,0.0,0.0,0.0,0.0,0.0,0.0,0.0,0.0,0.0,0.0,0.0,0.0,0.0,0.0,0.0,0.0,0.0,0.0,0.0,0.0,0.0,0.0,0.0,0.0,0.0,0.0,0.0,0.0,2.6808,2.6641,2.6741,2.6401,2.6138,2.5975,2.5975,2.546,2.4578,2.4695,0.0,0.0,0.0,0.0,0.0,0.0,0.0,0.0,0.0,0.0,0.0,0.0,0.0,0.0,0.0,0.0,0.0,0.0,0.0,0.0,0.0,0.0,0.0,0.0,0.0,0.0,0.0,0.0,0.0,0.0,0.0,0.0,0.0,0.0,0.0,0.0,0.0,0.0,0.0,2.8158,2.8347,2.9019,2.8767,2.8672,0.0,0.0,0.0,0.0,0.0,0.0,0.0,0.0,0.0,2.8008,2.7795,2.7953,2.8574,2.8231,2.8312,2.8842,2.863,2.8535,2.8519,2.8598,2.8574,2.8543,2.8724,2.8598,2.8137,2.6881,2.6087,2.5601,0.0,0.0,0.0,0.0,2.3998,2.3668,0.0,0.0,0.0,0.0,0.0,0.0,0.0,0.0,0.0,0.0,0.0,0.0,0.0,0.0,0.0,2.9725,0.0,0.0,0.0,0.0,0.0,0.0,0.0,0.0,0.0,0.0,0.0,0.0,2.7164,2.6939,2.7103,2.659,2.6453,2.6589,2.6504,2.5762,2.4619,2.4755,2.4609,0.0,0.0,0.0,0.0,0.0,0.0,0.0,0.0,0.0,0.0,0.0,0.0,0.0,0.0,0.0,0.0,0.0,0.0,0.0,0.0,0.0,0.0,0.0,0.0,0.0,0.0,0.0,0.0,0.0,0.0,0.0,0.0,0.0,0.0,0.0,0.0,0.0,0.0,2.8542,2.8196,2.8774,2.841,2.83,0.0,0.0,0.0,0.0,0.0,0.0,2.7883,2.8012,2.8231,2.8583,2.8304,2.8535,2.9266,2.885,2.8857,2.928,2.9097,2.8982,2.8896,2.9028,2.9051,2.8989,2.9143,2.9227,2.915,2.8031,2.7126,2.6405,2.6036,2.5813,2.5694,2.5444,2.5076,2.4677,0.0,0.0,0.0,0.0,0.0,0.0,0.0,0.0,0.0,0.0,0.0,0.0,0.0,0.0,3.0346,3.0355,3.0115,2.9962,0.0,0.0,0.0,0.0,0.0,0.0,0.0,0.0,0.0,2.7803,2.7502,2.7272,2.7103,2.707,2.6891,2.6606,2.6791,2.623,2.5173,2.5291,2.4958,2.4302,0.0,0.0,0.0,0.0,0.0,0.0,0.0,0.0,0.0,0.0,0.0,0.0,0.0,0.0,0.0,0.0,0.0,0.0,0.0,0.0,0.0,0.0,0.0,0.0,0.0,0.0,0.0,0.0,0.0,0.0,0.0,0.0,0.0,0.0,0.0,0.0,0.0,0.0,0.0,2.8129,2.811,0.0,0.0,0.0,0.0,2.8535,2.8456,2.8273,2.7923,2.8255,2.8598,2.8858,2.8858,2.9143,2.975,2.9607,2.9607,2.975,2.9512,2.9361,2.9361,2.9173,2.9325,2.975,3.0022,3.0124,3.0081,2.9196,2.8349,2.7623,2.7729,2.7299,2.6595,2.6421,2.6317,2.6149,0.0,0.0,0.0,0.0,0.0,0.0,0.0,0.0,0.0,0.0,0.0,0.0,0.0,3.0371,3.0334,3.0342,3.0209,3.0143,3.0196,0.0,0.0,0.0,0.0,0.0,0.0,0.0,2.8565,2.8313,2.7826,2.7592,2.7607,2.7276,2.7149,2.7244,2.7132,2.6691,2.6017,2.5868,2.5419,2.4795,2.4775,2.465,0.0,0.0,0.0,0.0,0.0,0.0,0.0,0.0,0.0,0.0,0.0,0.0,0.0,0.0,0.0,0.0,0.0,0.0,0.0,0.0,0.0,0.0,0.0,0.0,0.0,0.0,0.0,0.0,0.0,0.0,0.0,0.0,0.0,0.0,0.0,0.0,0.0,2.951,2.8995,0.0,2.9149,2.8748,2.8579,2.8865,2.8489,2.838,2.8677,2.8974,2.9182,2.9289,2.9289,2.9403,2.9589,2.9566,2.9617,2.9793,2.9875,2.9919,2.9919,2.9984,3.0006,3.0065,3.0295,3.0401,3.033,2.9543,2.9059,2.8776,2.8519,2.8286,2.8042,2.7408,2.6815,2.6262,0.0,0.0,0.0,0.0,0.0,0.0,0.0,0.0,0.0,0.0,0.0,3.0477,3.0469,3.0428,3.0398,3.0406,3.034,3.0322,3.0364,0.0,0.0,0.0,0.0,0.0,0.0,2.9237,2.8997,2.8707,2.8316,2.8088,2.7978,2.7636,2.7532,2.7669,2.7504,2.721,2.6824,2.6522,2.5959,2.523,2.5192,2.5056,2.4871,0.0,0.0,0.0,0.0,0.0,0.0,0.0,0.0,0.0,0.0,0.0,0.0,0.0,0.0,0.0,0.0,0.0,0.0,0.0,0.0,0.0,0.0,0.0,0.0,0.0,0.0,0.0,0.0,0.0,0.0,0.0,0.0,0.0,0.0,2.9671,2.9196,3.0021,2.9478,2.9193,2.9624,2.9221,2.9024,2.9325,2.8927,2.8812,2.9082,2.9282,2.9418,2.9493,2.9493,2.9582,2.9738,2.9738,2.9804,2.9941,3.0124,3.0189,3.0189,3.0074,2.998,2.9922,2.9836,2.9798,2.9748,2.9268,2.9054,2.9022,2.8718,2.8646,2.8642,2.7973,2.7324,2.6679,0.0,0.0,0.0,0.0,0.0,0.0,0.0,0.0,0.0,0.0,0.0,3.0606,3.0608,3.0608,3.0595,3.0592,3.0545,3.0506,3.0506,3.0377,0.0,0.0,0.0,0.0,2.9715,2.9652,2.9388,2.8911,2.8975,2.8742,2.8224,2.8224,2.8075,2.784,2.7897,2.7786,2.7509,2.7307,2.659,2.558,2.5684,2.5719,2.5663,0.0,0.0,0.0,0.0,0.0,0.0,0.0,0.0,0.0,0.0,0.0,0.0,0.0,0.0,0.0,0.0,0.0,0.0,0.0,0.0,0.0,0.0,0.0,0.0,0.0,0.0,0.0,0.0,0.0,0.0,0.0,0.0,0.0,3.108,3.0537,2.9966,2.952,2.946,2.946,2.946,3.0087,3.0309,2.9859,2.9815,2.9611,2.9144,2.9121,2.9259,2.9515,2.9515,2.9738,3.021,3.021,3.021,3.0199,3.0199,3.0182,3.0133,2.9428,2.9202,2.9354,2.8694,2.8412,2.8412,2.8395,2.8398,2.8379,2.8412,2.8409,2.8354,2.8073,2.7822,2.7461,0.0,0.0,0.0,0.0,0.0,0.0,0.0,0.0,0.0,0.0,3.0733,3.0726,3.0673,3.0675,3.0678,3.0675,3.0661,3.0647,3.0655,0.0,0.0,0.0,0.0,0.0,2.9928,2.9908,2.9738,2.9398,2.9237,2.9038,2.8842,2.8597,2.8511,2.8533,2.8545,2.8438,2.8219,2.8057,2.7698,2.7187,2.6436,2.5905,2.5577,0.0,0.0,0.0,0.0,0.0,0.0,0.0,0.0,0.0,0.0,0.0,0.0,0.0,0.0,0.0,0.0,0.0,0.0,0.0,0.0,0.0,0.0,0.0,0.0,0.0,0.0,0.0,0.0,0.0,0.0,0.0,3.1881,3.1794,3.162,3.0982,3.0688,3.109,3.0838,3.0625,3.0625,3.0549,3.0456,3.033,3.0309,3.0097,2.9633,2.9782,2.9957,3.0075,2.9837,3.0075,3.0845,3.0456,3.0174,2.9967,2.9967,2.9777,2.9406,2.9186,2.9139,2.9159,2.8991,2.8907,2.8873,2.8384,2.8147,2.8128,2.8312,2.8312,2.8109,2.7509,2.6717,2.5937,0.0,0.0,0.0,0.0,0.0,0.0,0.0,0.0,0.0,0.0,3.0725,3.0739,3.0694,3.0698,3.0702,3.0702,0.0,0.0,3.0691,0.0,0.0,0.0,0.0,3.038,3.0257,3.0202,3.0065,2.9855,2.9718,2.9592,2.9439,2.9152,2.9045,2.91,2.903,2.8938,2.8823,2.8695,2.8548,2.8335,2.7624,2.6997,2.6488,2.6455,2.6589,2.6833,2.6802,2.6819,2.6868,2.69,0.0,0.0,0.0,0.0,0.0,0.0,0.0,0.0,0.0,0.0,0.0,0.0,0.0,0.0,0.0,0.0,0.0,0.0,0.0,0.0,0.0,0.0,0.0,0.0,3.2402,3.2453,3.2266,3.1619,3.1317,3.1748,3.156,3.1272,3.0965,3.0722,3.0491,3.0312,3.0316,3.0272,3.0128,3.0347,3.0472,3.0502,2.998,3.0017,3.0594,2.9998,2.9632,2.9554,2.9554,2.9389,2.9089,2.8817,2.868,2.8663,2.8357,2.822,2.8186,2.781,2.7622,0.0,0.0,0.0,0.0,0.0,2.611,2.5746,0.0,0.0,0.0,0.0,0.0,0.0,0.0,0.0,0.0,0.0,0.0,3.0726,3.0728,3.0714,3.0718,3.0718,0.0,3.0716,0.0,0.0,0.0,3.0611,3.0571,3.0554,3.0597,3.0477,3.0356,3.0227,3.0295,3.0198,2.9931,2.9752,2.9631,2.9565,2.9437,2.94,2.9381,2.9251,2.9195,2.9167,2.8986,2.8535,2.7932,2.7377,2.7572,2.8018,2.7397,2.7237,2.7365,2.7581,0.0,0.0,0.0,0.0,0.0,0.0,0.0,0.0,0.0,0.0,0.0,0.0,0.0,0.0,0.0,0.0,0.0,0.0,0.0,0.0,0.0,0.0,0.0,0.0,3.2827,3.2842,3.2795,3.23,3.1911,3.1856,3.1787,3.151,3.0886,3.0766,3.0589,3.0272,3.0294,3.0434,3.0677,0.0,0.0,0.0,0.0,2.99,3.0185,2.9401,2.9101,2.9212,2.9126,2.9023,2.8904,2.8339,2.8048,2.8031,2.7362,2.7086,2.7086,2.7086,2.7086,2.7053,2.6903,2.6836,2.6719,2.5729,2.5782,2.6236,0.0,0.0,0.0,0.0,0.0,0.0,0.0,0.0,0.0,3.0859,3.0859,3.0859,3.0859,3.0859,3.0859,0.0,3.0858,3.0839,0.0,0.0,3.0756,3.0756,3.0746,3.0696,3.0609,3.0572,3.0514,3.0444,3.0445,3.0389,3.0226,3.0185,3.009,2.9973,2.9966,2.996,2.9947,2.9806,2.9755,2.973,2.9591,2.9107,2.8491,2.8747,2.8798,2.8734,2.8805,2.8787,2.8691,2.8524,2.8346,2.8211,2.8116,0.0,0.0,0.0,0.0,0.0,0.0,0.0,0.0,0.0,0.0,0.0,0.0,0.0,0.0,0.0,0.0,0.0,0.0,0.0,0.0,3.3006,3.3096,3.3108,3.2827,3.2729,3.2568,3.2249,3.174,3.1479,3.1652,3.1185,3.1098,3.1652,3.1722,3.1593,3.1264,3.1264,3.1321,3.1433,3.1029,3.1172,3.1899,3.0924,3.0231,2.9893,0.0,0.0,2.7971,2.7831,2.7779,2.7777,2.7637,2.755,2.755,2.755,2.755,2.7452,2.6239,2.5793,2.5744,2.538,2.533,2.5548,0.0,0.0,0.0,0.0,0.0,0.0,0.0,0.0,0.0,0.0,3.0892,3.0893,3.0896,3.0849,3.0824,0.0,3.0838,0.0,0.0,3.0696,3.0703,3.0699,3.0694,3.0641,3.0544,3.0584,3.0563,3.0508,3.0609,3.0588,3.0446,3.0485,3.0422,3.0302,3.0331,3.0332,3.0294,3.0269,3.025,3.0236,3.0179,2.9927,2.9594,2.9448,2.9446,2.9489,2.9452,2.9383,2.9295,2.9295,2.9145,2.8964,2.895,2.8901,2.8925,0.0,0.0,0.0,0.0,0.0,0.0,0.0,0.0,0.0,0.0,0.0,0.0,0.0,0.0,3.493,3.4863,0.0,3.4782,3.4113,3.4146,3.4043,3.3444,3.3415,3.3237,3.2666,3.2327,3.2078,3.1918,3.1598,3.1497,3.1737,3.1936,3.2044,3.2039,3.2247,3.2383,3.2451,3.1929,3.1853,3.2295,3.1364,3.0777,3.0555,3.0144,2.9748,2.9336,2.9336,2.914,2.875,2.875,2.8504,2.8102,2.8102,2.8102,2.7986,2.688,2.6513,2.6542,2.6042,2.6082,2.6423,0.0,0.0,0.0,0.0,0.0,0.0,0.0,0.0,0.0,0.0,0.0,3.0862,3.0844,3.0757,3.0724,0.0,0.0,0.0,0.0,3.0593,3.0605,3.061,3.0603,3.0569,3.0514,3.0569,3.0575,3.0499,3.0681,3.0693,3.0587,3.0641,3.0605,3.0506,3.0547,3.0527,3.0485,3.0541,3.0558,3.0558,3.0558,3.0558,3.0506,2.9906,2.989,3.0133,2.987,2.9741,2.9707,2.9889,2.975,2.9503,2.9641,2.9671,2.9786,3.0631,3.0899,0.0,0.0,0.0,0.0,0.0,0.0,0.0,0.0,3.5078,3.5501,3.6159,3.649,3.6652,3.6532,3.6496,3.6164,3.522,3.5142,3.4907,3.405,3.3972,3.3792,3.3189,3.3003,3.27,3.2202,3.2036,3.1915,3.1787,3.2059,3.2421,3.2811,3.3108,3.3306,3.3306,3.2719,3.2407,3.2407,3.1637,3.1234,3.1234,3.107,3.0921,3.0762,3.0762,3.0313,2.9557,2.9557,2.9145,2.8504,2.8504,2.8504,2.8444,2.7846,2.7707,2.7752,2.6972,2.7049,2.7493,0.0,0.0,0.0,0.0,0.0,0.0,0.0,0.0,0.0,0.0,0.0,0.0,0.0,0.0,0.0,0.0,0.0,0.0,3.0597,3.0593,3.0593,3.0593,3.06,3.0597,3.0595,3.0593,3.0579,3.0489,3.0581,3.0581,3.0503,3.0522,3.0503,3.0506,3.045,3.0412,3.0413,3.0429,3.0422,3.0427,3.0427,3.0427,3.0415,3.0336,3.033,3.0386,3.0458,3.0409,3.0293,3.0196,3.0145,3.0047,2.9777,2.9697,2.9832,3.0583,3.1213,3.1879,3.2776,3.3419,3.3938,3.4172,3.4655,3.5179,0.0,3.6061,3.6536,3.6628,3.6634,3.6607,3.6581,3.6477,3.6168,3.5388,3.5242,3.4921,3.4102,3.4049,3.4061,3.3979,3.3123,3.2698,3.303,3.2531,3.2419,3.3033,3.3132,3.3183,3.3229,3.3276,3.3306,3.3306,3.3215,3.3179,3.3179,3.2444,3.2077,3.2059,3.1343,3.0635,2.9932,2.9932,2.9466,2.8643,2.8643,2.8589,2.8504,2.8504,2.8504,2.8485,2.8407,2.8388,2.8307,2.7579,2.7362,2.7482,0.0,0.0,0.0,0.0,0.0,0.0,0.0,0.0,0.0,0.0,0.0,0.0,0.0,0.0,0.0,0.0,0.0,0.0,3.0307,3.0238,3.019,3.0145,3.017,3.0164,3.0145,3.0164,3.0139,3.0027,3.013,3.014,3.0037,3.0069,3.0067,3.0033,2.9958,2.9934,2.994,2.994,2.9934,2.9946,3.0068,3.0118,3.0124,3.0282,3.0374,3.0409,3.0507,3.0523,0.0,0.0,3.0419,3.0351,3.0212,3.0145,3.0256,3.1039,3.1795,3.2622,3.3796,3.4217,3.4351,3.4416,3.4601,3.5092,3.6246,3.671,3.7143,3.8134,3.8402,3.842,3.8264,3.8278,3.7891,3.6562,3.6363,3.5925,3.4637,3.4516,3.4567,3.4567,3.4183,3.3876,3.3795,3.3524,3.3435,3.3574,3.3743,3.3757,3.3611,3.3743,3.3818,3.3818,3.3818,3.3818,3.3818,3.3519,3.3366,3.3348,3.2551,3.198,3.1648,3.1188,3.0507,2.9704,2.9225,2.9012,2.9012,2.9012,2.9012,2.9012,2.9012,2.9012,2.8941,2.8294,2.8045,2.8081,0.0,0.0,0.0,0.0,0.0,0.0,0.0,0.0,0.0,0.0,0.0,0.0,0.0,0.0,0.0,0.0,0.0,0.0,0.0,2.9939,2.9886,2.9826,2.9878,2.9878,2.9801,2.9861,2.981,2.9706,2.9804,2.979,2.9643,2.9601,2.9547,2.947,2.9307,2.9233,2.924,2.9231,2.9279,2.9401,2.9538,2.9643,2.9758,2.9954,3.0118,3.0276,3.0417,3.0538,0.0,0.0,3.0579,3.055,3.0528,3.0473,3.0598,3.1391,3.234,3.3341,3.4348,3.468,3.4723,3.4682,3.4789,3.5238,3.6554,3.7173,3.7796,3.9009,3.9543,3.9731,3.9537,3.9614,3.9225,3.774,3.7343,3.6711,3.5342,3.5002,3.4908,3.4908,3.4908,3.4772,3.4424,3.4351,3.4233,3.4036,3.4136,3.4148,3.4023,3.4209,3.434,3.439,3.4383,3.4394,3.4394,3.4405,3.4416,3.4416,3.3571,3.3066,3.2826,3.1723,3.0897,3.028,2.9712,2.9481,2.954,2.9471,2.947,2.9441,2.9409,2.9396,2.9347,2.8902,2.8742,2.8706,0.0,0.0,0.0,0.0,0.0,0.0,0.0,0.0,0.0,0.0,0.0,0.0,0.0,0.0,0.0,0.0,0.0,0.0,0.0,2.9878,2.9894,2.9894,2.9894,2.9878,2.9801,2.9809,2.9767,2.9689,2.9698,2.9635,2.9495,2.9171,2.8993,2.892,2.85,2.8336,2.8347,2.8336,2.8536,2.8819,2.8831,2.903,2.9324,2.9334,2.9569,2.9963,3.0281,0.0,0.0,3.0616,3.0644,3.0686,3.0626,3.0555,3.0669,3.145,3.2781,3.3956,3.3945,3.4511,3.507,3.5089,3.5623,3.6169,3.6207,3.7431,3.8572,3.8609,3.9256,3.9797,3.9786,3.9742,3.9448,3.8671,3.7804,3.694,3.6168,3.5391,3.4908,3.4908,3.4908,3.4889,3.487,3.471,3.4572,3.4591,3.434,3.4305,3.4561,3.4572,3.4678,3.486,3.4879,3.4879,3.4879,3.4944,3.4971,3.4952,3.4034,3.3199,3.2461,3.0598,2.9701,2.9636,2.9598,2.9707,2.9869,2.9681,2.9598,2.958,2.9441,2.9396,2.9396,2.9386,2.9357,2.9246,0.0,0.0,0.0,0.0,0.0,0.0,0.0,0.0,0.0,0.0,0.0,0.0,0.0,0.0,0.0,0.0,0.0,0.0,0.0,2.9841,2.9522,2.9579,2.9307,2.9156,2.9135,2.8867,2.8735,2.87,2.8615,2.8542,2.8492,2.8301,2.8196,2.8152,2.7976,2.7897,2.7897,2.7911,2.7966,2.8107,2.8455,2.867,2.8807,2.922,2.9437,2.9586,0.0,0.0,0.0,3.0544,3.0576,3.0637,3.0605,3.0649,3.0854,3.1665,3.2146,3.2656,3.3845,3.4231,3.4434,3.4967,3.5256,3.5583,3.6258,3.6825,3.7525,3.8642,3.9182,3.9581,3.9996,4.0157,3.9971,3.9184,3.8793,3.8306,3.748,3.6637,3.6101,3.6101,3.5614,3.5308,3.5308,3.5001,3.4801,3.4801,3.4722,3.4711,3.4782,3.4803,3.4832,3.4898,3.4944,3.4971,3.4971,3.4988,3.4997,3.4969,3.351,3.2096,3.0744,3.0124,2.982,2.9803,2.9803,2.9845,2.9894,2.9828,2.9803,2.9794,2.9761,2.9735,2.9735,2.9735,2.9368,2.8807,0.0,0.0,0.0,0.0,0.0,0.0,0.0,0.0,0.0,0.0,0.0,0.0,0.0,0.0,0.0,0.0,0.0,0.0,0.0,0.0,2.9429,2.9093,2.8778,2.8603,2.8597,2.8342,2.8143,2.8012,2.7858,2.773,2.7596,2.7324,2.7186,2.7156,2.7,2.6919,2.6919,2.6919,2.7219,2.7714,2.7786,2.814,2.8636,2.8846,2.9005,0.0,0.0,0.0,0.0,3.0281,3.0455,3.0594,3.0601,3.0671,3.0875,3.1418,3.1654,3.2008,3.3151,3.3799,3.4241,3.4756,3.509,3.5464,3.6105,3.6472,3.6973,3.8057,3.8864,3.9482,3.9884,4.0299,4.0407,3.9914,3.9553,3.9133,3.8574,3.7745,3.7089,3.6738,3.6231,3.5827,3.5538,3.5266,3.5081,3.5019,3.4945,3.4926,3.499,3.5006,3.5039,3.5141,3.5189,3.5212,3.5212,3.5247,3.5086,3.4726,3.3325,3.1897,3.046,3.0152,2.9985,2.9962,2.9962,3.0019,3.0063,3.0004,2.9962,2.9981,2.9918,2.9902,2.9902,2.9902,2.9174,2.8141,0.0,0.0,0.0,0.0,0.0,0.0,0.0,0.0,0.0,0.0,0.0,0.0,0.0,0.0,0.0,0.0,0.0,0.0,0.0,0.0,0.0,2.8607,2.8381,2.8246,2.817,2.8143,2.7956,2.7651,2.7457,2.718,2.6833,2.632,2.6041,2.595,2.5638,2.5503,2.5503,2.5503,2.6307,2.7535,2.686,2.7446,2.8636,2.823,0.0,0.0,0.0,0.0,2.9626,2.9882,3.0256,3.0574,3.0606,3.0634,3.0708,3.0778,3.1327,3.1941,3.1991,3.3167,3.4382,3.4486,3.5118,3.5752,3.5791,3.64,3.6946,3.6985,3.8294,3.9446,3.9485,4.0162,4.0729,4.0791,4.0045,3.9468,3.9468,3.8713,3.7828,3.6939,3.6796,3.6442,3.5635,3.5558,3.5463,3.5234,0.0,3.5008,3.5208,3.5224,3.534,3.5598,3.5589,3.5606,3.5606,3.5673,3.5229,3.4293,3.3481,3.2548,3.1499,3.0604,3.0176,3.0122,3.0122,3.0215,3.0392,3.0196,3.0122,3.0109,2.9981,2.9926,2.9926,2.9888,2.8825,2.7414,0.0,0.0,0.0,0.0,0.0,0.0,0.0,0.0,0.0,0.0,0.0,0.0,0.0,0.0,0.0,0.0,0.0,0.0,0.0,0.0,0.0,0.0,0.0,0.0,0.0,0.0,0.0,0.0,0.0,2.6454,2.6213,2.5999,2.5783,2.5617,2.554,2.5503,2.5503,2.5503,2.5731,2.6083,0.0,2.6842,2.7226,0.0,0.0,0.0,0.0,0.0,2.9425,2.9678,3.0009,3.0342,3.0536,3.061,3.0637,3.0655,3.0821,3.1171,3.1813,3.2315,3.2944,3.4255,3.4703,3.5004,3.565,3.5963,3.6271,3.6872,3.7852,3.8788,3.9392,4.0204,4.0776,4.0806,4.0592,4.0441,4.0441,3.9655,3.8986,3.8736,3.8097,3.7334,3.6481,3.6451,3.6181,3.5481,3.5381,3.5362,3.5411,3.5464,3.5527,3.5589,3.5643,3.5673,3.5673,3.5684,3.5259,3.4364,3.347,3.2576,3.1682,3.0763,3.0349,3.0317,3.0317,3.0355,3.0398,3.0329,3.0317,3.0311,3.028,3.0267,3.019,2.9545,2.8644,2.7685,0.0,0.0,0.0,0.0,0.0,0.0,0.0,0.0,0.0,0.0,0.0,0.0,0.0,0.0,0.0,0.0,0.0,0.0,0.0,0.0,0.0,0.0,0.0,0.0,0.0,0.0,0.0,0.0,0.0,0.0,0.0,2.5272,2.5079,2.4981,2.4981,2.4981,2.4981,0.0,0.0,0.0,0.0,0.0,0.0,0.0,0.0,0.0,0.0,0.0,2.9351,2.9644,2.9973,3.0288,3.049,3.056,3.0552,3.06,3.0645,3.0812,3.1292,3.2009,3.2845,3.3821,3.4613,3.5285,3.5773,3.588,3.6025,3.6462,3.7559,3.8578,3.9013,4.0077,4.0902,4.0938,4.0914,4.089,4.089,4.0421,3.9942,3.9547,3.9021,3.82,3.6944,3.687,3.6519,3.5653,3.557,3.5559,3.559,3.5623,3.5664,3.5687,3.572,3.5743,3.5743,3.5743,3.5506,3.4997,3.4089,3.3214,3.2343,3.1427,3.0794,3.0404,0.0,3.0404,3.0404,3.0404,3.0404,3.0404,3.0404,3.0404,3.0288,2.941,2.8588,2.7775,0.0,0.0,0.0,0.0,0.0,0.0,0.0,0.0,0.0,0.0,0.0,0.0,0.0,0.0,0.0,0.0,0.0,0.0,0.0,0.0,0.0,0.0,0.0,0.0,0.0,0.0,0.0,0.0,0.0,0.0,0.0,0.0,0.0,0.0,0.0,0.0,0.0,0.0,0.0,0.0,0.0,0.0,0.0,0.0,0.0,0.0,0.0,2.8968,2.938,2.9707,3.0007,3.0273,3.0432,3.0496,3.0496,3.0564,3.0699,3.0853,3.0864,3.2104,3.3412,3.3512,3.4686,3.5838,3.5956,3.5996,3.5993,3.5991,3.739,3.8593,3.8591,3.9928,4.1022,4.1085,4.1057,4.1006,4.1006,4.1016,4.0698,3.9874,3.9775,3.9129,3.7501,3.725,3.6814,3.5958,3.5718,3.5653,3.5715,3.5704,3.5733,3.5808,3.5791,3.5791,3.5791,3.5791,3.5805,3.5788,3.4922,3.4073,3.3248,3.2256,3.1346,3.0577,3.0442,0.0,3.0404,3.0404,3.0404,3.0404,3.0404,3.0404,3.0288,2.941,2.8582,2.775,0.0,0.0,0.0,0.0,0.0,0.0,0.0,0.0,0.0,0.0,0.0,0.0,0.0,0.0,0.0,0.0,0.0,0.0,0.0,0.0,0.0,0.0,0.0,0.0,0.0,0.0,0.0,0.0,0.0,0.0,0.0,0.0,0.0,0.0,0.0,0.0,0.0,0.0,0.0,0.0,0.0,0.0,0.0,0.0,0.0,0.0,2.8868,2.9291,2.957,2.9741,2.9875,3.0026,3.0323,3.0419,3.0425,3.0436,3.0999,3.1618,3.1685,3.2484,3.3485,3.4131,3.4547,3.4967,3.5741,3.5927,3.5935,3.5993,3.7392,3.8598,3.8593,3.9953,4.1081,4.1108,4.1085,4.108,4.108,4.1025,4.0948,4.0783,4.0664,4.0217,3.9237,3.849,3.775,3.6914,3.6184,3.5768,3.5772,3.5785,3.5797,3.5791,3.5791,3.5791,3.5791,3.5791,3.5805,3.5788,3.4922,3.4396,3.4124,3.2522,3.1674,3.1429,3.0712,0.0,3.0404,3.0404,3.0404,3.0404,3.0404,3.0404,3.0288,2.941,2.8552,2.7709,0.0,0.0,0.0,0.0,0.0,0.0,0.0,0.0,0.0,0.0,0.0,0.0,0.0,0.0,0.0,0.0,0.0,0.0,0.0,0.0,0.0,0.0,0.0,0.0,0.0,0.0,2.7053,2.6956,0.0,0.0,0.0,2.5422,2.5208,2.5188,0.0,0.0,0.0,0.0,0.0,0.0,0.0,0.0,0.0,0.0,0.0,0.0,0.0,2.938,2.9522,2.9775,3.0176,3.0559,3.0446,3.0712,3.1083,3.108,3.1719,3.243,3.2518,3.3215,3.402,3.4392,3.4831,3.529,3.5743,3.5874,3.5913,3.5937,3.7358,3.8595,3.8593,3.9977,4.1109,4.1109,4.1109,4.1109,4.1109,4.1074,4.1059,4.1059,4.0998,4.0635,3.9836,3.8965,3.8118,3.7274,3.6402,3.5889,3.5843,3.5887,3.5897,3.5897,3.5897,3.5897,3.5897,3.5897,3.5892,3.59,3.5486,3.5003,3.4485,3.3649,3.2722,3.1787,3.1362,0.0,3.046,3.046,3.0422,3.0404,3.0404,3.0404,3.0288,2.941,2.8552,2.7679,0.0,0.0,0.0,0.0,0.0,0.0,0.0,0.0,0.0,0.0,0.0,0.0,0.0,0.0,0.0,0.0,0.0,0.0,0.0,0.0,0.0,0.0,0.0,0.0,0.0,0.0,0.0,2.7244,2.6624,0.0,0.0,0.0,0.0,0.0,2.5017,2.4835,2.4899,0.0,0.0,0.0,0.0,2.6334,0.0,0.0,0.0,0.0,0.0,2.9417,2.9471,2.9782,3.0486,3.1165,3.0816,3.1293,3.1979,3.1989,3.2615,3.3296,3.3364,3.4048,3.4757,3.4756,3.5279,3.5775,3.5788,3.5834,3.5889,3.5893,3.7341,3.8591,3.8591,3.9977,4.1109,4.1109,4.1109,4.1109,4.1109,4.1109,4.1109,4.1091,4.1091,4.0842,4.0224,3.9212,3.8316,3.7636,3.6601,3.5975,3.5924,3.5975,3.5996,3.5996,3.5996,3.5996,3.5996,3.5996,3.5995,3.5991,3.5991,3.5605,3.4864,3.4689,3.3701,3.217,3.1976,0.0,0.0,3.0513,3.0482,3.0444,3.0444,3.0428,3.0348,2.9641,2.8844,2.7948,0.0,0.0,0.0,0.0,0.0,0.0,0.0,0.0,0.0,0.0,0.0,0.0,0.0,0.0,0.0,0.0,0.0,0.0,0.0,0.0,0.0,0.0,0.0,0.0,0.0,0.0,0.0,2.7745,2.726,0.0,0.0,0.0,0.0,0.0,0.0,2.5556,2.5926,2.55,0.0,0.0,0.0,0.0,0.0,0.0,0.0,0.0,0.0,2.944,2.9522,2.9807,3.0525,3.1338,3.1588,3.2229,3.2891,3.2943,3.3553,3.4202,3.4258,3.4927,3.559,3.5595,3.5658,3.5703,3.5713,3.5758,3.5825,3.5891,3.7341,3.8591,3.8591,3.9977,4.1109,4.1109,4.1109,4.1109,4.1109,4.1109,4.1091,4.1097,4.1098,4.1063,4.0993,3.9548,3.8573,3.8496,3.6934,3.5996,3.5996,3.5996,3.5996,3.5996,3.5996,3.5996,3.5996,3.5996,3.5995,3.5991,3.5991,3.5916,3.5755,3.4959,3.4032,3.3041,3.2248,3.1409,0.0,3.0582,3.0598,3.0571,3.0571,3.0543,3.0487,3.0409,2.9775,2.8858,0.0,0.0,0.0,0.0,0.0,0.0,0.0,0.0,0.0,0.0,0.0,0.0,0.0,0.0,0.0,0.0,0.0,0.0,0.0,0.0,0.0,0.0,0.0,0.0,0.0,0.0,2.836,2.8224,2.796,0.0,0.0,0.0,0.0,0.0,0.0,2.5943,2.6104,2.589,0.0,0.0,0.0,0.0,0.0,0.0,0.0,0.0,0.0,0.0,2.9742,3.0044,3.1051,3.2249,3.2505,3.3525,3.4511,3.3984,3.4428,3.511,3.5157,3.5438,3.5704,3.5704,3.5704,3.5706,3.5698,3.5756,3.5818,3.588,3.7343,3.8591,3.8591,3.9977,4.1109,4.1109,0.0,4.1109,4.1109,4.1109,4.109,4.1093,4.1097,4.1102,4.1108,3.9587,3.8163,3.7109,3.6387,3.5996,3.5996,3.5996,3.5996,3.5996,3.5996,3.5996,3.5996,3.5996,3.5996,3.5993,3.5992,3.5984,3.5944,3.5607,3.495,3.4055,3.3178,3.2284,0.0,3.087,3.0633,3.0593,3.0593,3.0575,3.0564,3.0564,2.9991,2.9168,0.0,0.0,0.0,0.0,0.0,0.0,0.0,0.0,0.0,0.0,0.0,0.0,0.0,0.0,0.0,0.0,0.0,0.0,0.0,0.0,0.0,0.0,0.0,0.0,0.0,0.0,2.8712,2.8676,2.846,2.8311,0.0,0.0,2.7736,2.789,0.0,0.0,0.0,0.0,0.0,0.0,0.0,0.0,0.0,0.0,0.0,0.0,0.0,0.0,0.0,0.0,0.0,3.2557,3.2974,3.4118,3.524,3.4831,3.5154,3.5643,3.5679,3.5704,3.5704,3.5704,3.5701,3.5707,3.5708,3.596,3.6237,3.6272,3.7714,3.8942,3.8942,4.0133,4.1109,0.0,0.0,4.1109,4.1109,4.1109,4.1109,4.1093,4.1098,4.1103,4.1108,3.9587,3.787,3.6133,3.5996,3.5996,3.5996,3.5996,3.5996,3.5996,3.5996,3.5996,3.5996,3.5996,3.5996,3.5995,3.5992,3.6009,3.6004,3.5996,3.5524,3.4647,3.3787,0.0,0.0,3.1098,3.0709,3.0653,3.0653,3.0642,3.0626,3.0626,3.0224,2.9633,0.0,0.0,0.0,0.0,0.0,0.0,0.0,0.0,0.0,0.0,0.0,0.0,0.0,0.0,0.0,0.0,0.0,0.0,0.0,0.0,0.0,0.0,0.0,0.0,0.0,0.0,0.0,2.9079,2.87,2.844,2.8298,2.8224,2.8622,2.9335,0.0,0.0,0.0,0.0,0.0,0.0,0.0,0.0,0.0,0.0,0.0,0.0,0.0,0.0,0.0,0.0,0.0,0.0,0.0,3.3692,0.0,0.0,3.5684,3.5704,3.5704,3.5704,3.5704,3.5704,3.5707,3.5708,3.5702,3.6472,3.7192,3.7185,3.857,3.98,3.98,4.0503,4.1109,4.1109,0.0,0.0,4.1109,4.1109,4.1091,4.1098,4.1104,4.1108,4.1092,3.9589,3.7871,3.6133,3.5996,0.0,3.5996,3.5996,3.5996,3.5996,3.5996,3.5996,3.5996,3.5996,3.5996,3.5995,3.5992,3.6009,3.6004,3.5996,3.5524,3.4647,3.3787,0.0,0.0,3.1152,3.08,3.08,3.08,3.0764,3.0709,3.0709,3.0653,3.045,0.0,0.0,0.0,0.0,0.0,0.0,0.0,0.0,0.0,0.0,0.0,0.0,0.0,0.0,0.0,0.0,0.0,0.0,0.0,0.0,0.0,0.0,0.0,0.0,0.0,0.0,0.0,0.0,0.0,2.941,2.9313,2.9122,2.9137,2.9315,2.8739,2.8675,0.0,0.0,0.0,0.0,0.0,0.0,0.0,0.0,0.0,0.0,0.0,0.0,0.0,0.0,0.0,0.0,0.0,0.0,0.0,3.4801,3.5277,3.5701,3.5757,3.5728,3.5704,3.5768,3.5776,3.5788,3.5834,3.6542,3.7204,3.7265,3.8624,3.98,3.98,4.0503,4.1109,4.1109,4.1109,0.0,4.1109,4.1109,4.109,4.1093,4.1098,4.0655,3.9509,3.8905,3.787,3.6133,3.5996,3.5996,3.5996,3.5996,3.5996,3.5996,3.5996,3.5996,3.5996,3.5996,3.5996,3.5996,3.5993,3.5991,3.6009,3.5999,3.5856,3.5504,3.404,0.0,0.0,3.1405,3.08,3.08,3.08,3.0795,3.0768,3.0768,3.0743,3.0673,0.0,0.0,0.0,0.0,0.0,0.0,0.0,0.0,0.0,0.0,0.0,0.0,0.0,0.0,0.0,0.0,0.0,0.0,0.0,0.0,0.0,0.0,0.0,0.0,0.0,0.0,0.0,0.0,0.0,0.0,0.0,0.0,2.9692,2.9917,2.9418,2.9359,0.0,0.0,0.0,0.0,0.0,0.0,2.995,0.0,0.0,0.0,0.0,0.0,0.0,0.0,0.0,0.0,0.0,0.0,0.0,0.0,3.487,3.5329,3.5706,3.5776,3.5757,3.5797,3.5821,3.5921,3.6311,3.7068,3.7793,3.8178,3.934,4.0288,4.0288,4.0738,4.1109,4.1109,4.1109,4.1109,4.1109,4.1109,4.109,4.1093,4.1097,4.0439,3.8767,3.8592,3.7889,3.6133,3.5996,3.5996,3.5954,3.5953,3.5953,3.5953,3.5996,3.5996,3.5996,3.5996,3.5996,3.5996,3.5994,3.5991,3.5991,3.5999,3.5992,3.5895,0.0,0.0,0.0,3.1522,3.08,3.08,3.08,3.08,3.08,3.08,3.0804,3.0791,0.0,0.0,0.0,0.0,0.0,0.0,0.0,0.0,0.0,0.0,0.0,0.0,0.0,0.0,0.0,0.0,0.0,0.0,0.0,0.0,0.0,0.0,0.0,0.0,0.0,0.0,0.0,3.0227,3.0037,2.9954,2.9946,0.0,0.0,3.0939,3.0178,3.0281,3.0936,3.0247,2.9943,2.9969,3.0013,3.0047,0.0,0.0,0.0,0.0,0.0,0.0,0.0,0.0,0.0,0.0,0.0,0.0,0.0,0.0,0.0,0.0,0.0,3.5764,3.5808,3.5808,3.5869,3.6138,3.701,3.7871,0.0,3.9629,4.0483,4.1109,4.1109,4.1109,4.1109,4.1109,4.1109,4.1109,4.1109,4.1109,4.1091,4.1097,4.1098,4.0439,3.8767,3.8591,3.7889,3.6133,3.5996,3.5974,3.5896,3.5892,3.5892,3.5892,3.5952,3.5996,3.5996,3.5996,3.5996,3.5996,3.5994,3.5991,3.5991,3.5999,3.5992,0.0,0.0,0.0,0.0,3.1522,3.08,3.08,3.08,3.08,3.08,3.08,3.0791,3.0794,0.0,0.0,0.0,0.0,0.0,0.0,0.0,0.0,0.0,0.0,0.0,0.0,0.0,0.0,0.0,0.0,0.0,0.0,0.0,0.0,0.0,0.0,0.0,0.0,0.0,0.0,0.0,3.0521,3.046,3.0437,3.0437,3.0428,0.0,0.0,0.0,3.0518,3.0681,3.0505,3.0431,3.0435,3.0517,3.0548,0.0,0.0,0.0,0.0,3.0647,3.0662,0.0,0.0,0.0,0.0,0.0,0.0,0.0,0.0,3.3619,3.4695,3.4898,0.0,3.589,3.5934,3.5957,3.6191,0.0,3.7956,3.8811,3.9626,4.0483,4.1109,4.1109,4.1109,4.1109,4.1109,4.1109,4.1109,4.1109,4.1109,4.1109,4.1091,4.1095,4.0437,3.8764,3.859,3.7889,3.6133,3.5951,3.5921,3.5895,3.5849,3.5809,3.5809,3.5841,3.5895,3.5996,3.5951,3.5951,3.5996,3.5994,3.5991,3.5991,3.5999,3.5992,0.0,0.0,0.0,3.326,3.1522,3.08,3.08,3.08,3.08,3.08,3.08,3.0803,3.0808,0.0,0.0,0.0,0.0,0.0,0.0,0.0,0.0,0.0,0.0,0.0,0.0,0.0,0.0,0.0,0.0,0.0,0.0,0.0,0.0,0.0,0.0,0.0,0.0,0.0,0.0,0.0,0.0,0.0,3.0603,0.0,0.0,0.0,0.0,0.0,3.0597,3.0603,3.0631,3.0656,3.0656,3.0697,0.0,0.0,0.0,0.0,0.0,3.0738,3.0759,0.0,3.0786,3.0809,3.0791,0.0,0.0,0.0,0.0,3.2773,3.3671,3.4487,3.5312,3.5955,3.5992,3.6008,3.6337,3.7616,3.8259,3.8942,4.0151,4.0777,4.1109,4.1109,4.1109,4.1109,4.1109,4.1109,4.1109,4.1109,4.1109,4.1109,4.1109,4.0763,4.0046,3.8724,3.8239,3.7422,3.605,3.5923,3.5861,3.5816,3.5765,3.5746,3.5746,3.5753,3.5804,3.5918,3.5862,3.5892,3.5955,3.5957,3.5975,3.6008,3.5998,3.5778,0.0,0.0,0.0,3.2695,3.1347,3.08,3.08,3.08,3.08,3.08,3.08,3.0799,3.0801,0.0,0.0,0.0,0.0,0.0,0.0,0.0,0.0,0.0,0.0,0.0,0.0,0.0,0.0,0.0,0.0,0.0,0.0,0.0,0.0,0.0,0.0,0.0,0.0,0.0,0.0,0.0,0.0,0.0,0.0,0.0,0.0,3.0633,0.0,0.0,3.0735,3.0622,3.0671,3.0695,3.0698,3.0692,0.0,0.0,0.0,0.0,0.0,0.0,0.0,0.0,3.0798,3.08,3.08,3.08,0.0,0.0,0.0,0.0,0.0,3.4061,3.5146,3.5835,3.5978,3.6109,3.6617,3.824,3.8708,3.9216,4.0777,4.1109,4.1109,4.1109,4.1109,4.1109,4.1109,4.1109,4.1109,4.1109,4.1109,4.1109,4.1109,4.0393,3.9559,3.8685,3.7809,3.6914,3.5975,3.589,3.5834,3.5706,3.5704,3.5696,3.5696,3.5693,3.5737,3.5781,3.5771,3.5814,3.5902,3.5891,3.5879,3.5792,3.5802,3.5329,3.4452,0.0,0.0,3.2032,3.1153,3.08,3.08,3.08,3.08,3.08,3.08,3.0803,3.0808,0.0,0.0,0.0,0.0,0.0,0.0,0.0,0.0,0.0,0.0,0.0,0.0,0.0,0.0,0.0,0.0,0.0,0.0,0.0,0.0,0.0,0.0,0.0,0.0,0.0,0.0,0.0,0.0,0.0,0.0,3.0846,3.0847,3.0817,3.08,3.1474,3.1385,3.0692,3.069,3.0705,3.0696,3.0695,0.0,0.0,0.0,0.0,0.0,0.0,0.0,0.0,3.0809,3.0809,3.0809,3.0809,0.0,0.0,0.0,0.0,0.0,3.3339,3.4239,3.508,3.5818,3.6558,3.736,3.8376,3.9138,3.9897,4.0894,4.1109,4.1109,4.1109,4.1109,4.1109,4.1109,4.1109,4.1109,4.1109,4.1109,4.1109,4.1109,4.0397,3.9563,3.8685,3.7811,3.6913,3.5975,3.5847,3.5774,3.5702,3.5699,3.5692,3.5692,3.5695,3.5706,3.5718,3.572,3.5775,3.5896,3.5905,3.5545,3.4902,3.4891,3.4413,3.3552,0.0,3.2226,3.2032,3.1153,3.08,3.08,3.08,3.08,3.08,3.08,3.0791,3.0788,0.0,0.0,0.0,0.0,0.0,0.0,0.0,0.0,0.0,0.0,0.0,0.0,0.0,0.0,0.0,0.0,0.0,0.0,0.0,0.0,0.0,0.0,0.0,0.0,0.0,0.0,0.0,0.0,0.0,3.0792,3.0794,3.0792,3.0783,3.0764,3.112,3.109,3.0709,3.0701,3.0694,3.0706,0.0,0.0,0.0,0.0,0.0,0.0,0.0,0.0,0.0,0.0,3.0768,3.08,3.08,0.0,0.0,0.0,0.0,0.0,3.3045,3.3689,3.4315,3.566,3.6657,3.7536,3.8396,3.9214,4.0054,4.0914,4.1109,4.1109,4.1109,4.1109,4.1109,4.1109,4.1109,4.1109,4.1109,4.1093,4.0938,4.0508,0.0,3.8846,3.7929,3.7067,3.6327,3.5828,3.5752,3.5722,3.5704,3.5697,3.5704,3.5704,3.5704,3.5477,3.4993,3.5001,3.5057,3.5145,3.5129,3.4734,3.3997,3.3996,3.3523,3.2675,0.0,3.1836,3.1368,3.0976,3.08,3.08,3.08,3.08,3.08,3.0792,3.0791,3.0806,0.0,0.0,0.0,0.0,0.0,0.0,0.0,0.0,0.0,0.0,0.0,0.0,0.0,0.0,0.0,0.0,0.0,0.0,0.0,0.0,0.0,0.0,0.0,0.0,0.0,0.0,3.0685,3.0695,3.0704,3.0704,3.0695,3.091,3.0896,3.0691,3.0892,3.0867,3.0689,3.0652,3.0643,3.0656,0.0,0.0,0.0,0.0,0.0,0.0,0.0,0.0,0.0,0.0,0.0,0.0,0.0,0.0,0.0,3.0798,3.0795,3.1162,3.2926,3.3396,3.3826,3.5563,3.6813,3.7789,3.8429,3.9364,4.0281,4.0964,4.1103,4.1103,4.1108,4.1109,4.1109,4.1109,4.1109,4.1109,4.1109,4.0939,4.0573,3.9952,3.8924,3.7987,3.7249,3.6398,3.5831,3.571,3.5698,3.5697,3.5695,3.5704,3.5607,3.54,3.54,3.4974,3.4098,3.4114,3.4139,3.4201,3.4202,3.3814,3.31,3.3104,3.2614,3.1804,3.1804,3.141,3.08,3.08,3.08,3.08,3.08,3.08,3.0799,3.0809,3.0792,3.0798,0.0,0.0,0.0,0.0,0.0,0.0,0.0,0.0,0.0,0.0,0.0,0.0,0.0,0.0,0.0,0.0,0.0,0.0,0.0,0.0,0.0,0.0,0.0,0.0,0.0,3.0607,3.0639,3.0691,3.0691,3.0691,3.0711,3.1523,3.1433,3.0639,3.1456,3.1355,3.0597,3.053,3.0506,3.0505,3.0436,0.0,0.0,0.0,0.0,0.0,0.0,0.0,0.0,0.0,0.0,0.0,0.0,0.0,3.0726,3.0771,3.0755,3.1098,3.2919,3.3396,3.3826,3.5563,3.7262,3.8509,3.8506,3.9809,4.1018,4.1096,4.1096,4.1105,4.1106,4.1109,4.1109,4.1109,4.1109,4.1109,4.1109,4.0469,3.9934,3.9824,3.8317,3.7248,3.7117,3.6316,3.5788,3.5706,3.5698,3.5697,3.5695,3.5704,3.5342,3.4529,3.449,3.4079,3.3204,3.3253,3.3288,3.3285,3.3355,3.2978,3.2185,3.2181,3.1718,3.0896,3.0896,3.0853,3.08,3.08,3.08,3.08,3.08,3.08,3.08,3.0799,3.08,3.0799,0.0,0.0,0.0,0.0,0.0,0.0,0.0,0.0,0.0,0.0,0.0,0.0,0.0,0.0,0.0,0.0,0.0,0.0,0.0,0.0,0.0,0.0,0.0,3.0597,3.0593,3.0593,3.061,3.0645,3.0645,3.0645,3.0645,3.0986,0.0,0.0,3.0935,3.0888,3.055,3.0505,3.0479,3.0433,3.0419,3.0396,0.0,0.0,0.0,0.0,0.0,0.0,0.0,0.0,3.063,3.0694,0.0,0.0,3.0706,3.0728,3.072,3.1098,3.2855,3.3374,3.3814,3.556,3.7283,3.8539,3.8557,3.9876,4.1098,4.1095,4.1105,4.1103,4.1106,4.1109,4.1109,4.1109,4.1109,4.0914,4.0366,4.0034,3.9433,3.8379,3.76,3.6913,3.6348,3.5963,3.5733,3.5694,3.5708,3.5693,3.5709,3.5187,3.4742,3.4413,3.3866,3.3165,3.2295,3.2314,3.2094,3.1646,3.2227,3.208,3.1297,3.1294,3.1105,3.08,3.08,3.0801,3.0795,3.0795,3.079,3.0801,3.0792,3.0795,3.0795,3.08,3.0799,3.0795,0.0,0.0,0.0,0.0,0.0,0.0,0.0,0.0,0.0,0.0,0.0,0.0,0.0,0.0,0.0,0.0,0.0,0.0,0.0,0.0,0.0,0.0,0.0,3.051,3.051,3.0564,3.0598,3.0598,3.055,3.051,3.051,0.0,0.0,3.051,3.05,3.0485,3.0419,3.0346,3.0322,3.034,3.0298,3.0349,0.0,0.0,0.0,0.0,0.0,0.0,0.0,0.0,3.0583,0.0,0.0,0.0,0.0,0.0,3.0717,3.1098,3.2853,3.3372,3.3812,3.556,3.7067,3.8205,3.8528,3.9878,4.1069,4.1095,4.1094,4.1092,4.1106,4.1109,4.1012,4.0738,4.0698,4.0388,3.9515,3.9179,3.8572,3.7416,3.693,3.6478,3.583,3.5736,3.5703,3.5695,3.5704,3.5568,3.5303,3.4723,3.4142,3.3596,3.2991,3.2275,3.1424,3.1438,3.1196,3.0713,3.1336,3.1337,3.0803,3.0807,3.0794,3.0792,3.0792,3.0798,3.0801,3.0801,3.08,3.0795,3.08,3.0801,3.0801,3.0798,3.08,3.0799,0.0,0.0,0.0,0.0,0.0,0.0,0.0,0.0,0.0,0.0,0.0,0.0,0.0,0.0,0.0,0.0,0.0,0.0,0.0,0.0,0.0,0.0,0.0,3.03,3.03,3.0486,3.0598,3.0598,3.0395,3.03,3.03,3.03,0.0,0.0,3.0303,3.0304,3.0273,3.0011,3.0003,3.0182,3.0122,3.0228,3.0398,0.0,0.0,0.0,0.0,0.0,0.0,0.0,3.0543,0.0,0.0,0.0,0.0,0.0,3.0753,3.1093,3.2918,3.3396,3.3826,3.5563,3.6656,3.7536,3.8396,3.9826,4.1,4.1089,4.1094,4.109,4.109,4.109,4.0797,3.9937,3.978,3.9475,3.861,3.7793,3.7261,3.7191,3.6426,3.585,3.5703,3.5708,3.5703,3.569,3.5684,3.5303,3.4452,3.4374,3.3576,3.185,3.1792,3.1405,3.0617,3.0673,3.0694,3.0694,3.0776,3.0799,3.0801,3.0801,3.0802,3.0792,3.0792,3.0804,3.0797,3.0797,3.0797,3.0797,3.0797,3.0797,3.0797,3.0797,3.08,3.08,0.0,0.0,0.0,0.0,0.0,0.0,0.0,0.0,0.0,0.0,0.0,0.0,0.0,0.0,0.0,0.0,0.0,0.0,0.0,0.0,0.0,0.0,0.0,0.0,0.0,0.0,3.0364,3.0598,3.0309,3.0209,0.0,0.0,0.0,3.0091,0.0,3.0068,3.0011,2.9935,2.9927,2.9988,2.9973,2.9996,3.0049,0.0,0.0,0.0,0.0,0.0,0.0,0.0,0.0,0.0,0.0,0.0,0.0,3.0708,3.0721,3.1074,3.2849,3.336,3.381,3.556,3.6618,3.7308,3.7629,3.8961,4.0345,4.0974,4.0606,4.019,4.019,3.9723,3.9255,3.9001,3.8913,3.8571,3.7715,3.7372,3.6994,3.6363,3.5972,3.5767,3.5778,3.5733,3.5706,3.5709,3.5129,3.4665,3.4413,3.3247,3.2333,3.1811,3.1255,3.0849,3.0598,3.0625,3.0653,3.0694,3.0714,3.0745,3.0801,3.0801,3.0808,3.08,3.08,3.0798,3.0803,3.0793,3.0797,3.0796,3.0807,3.0801,3.08,3.0801,3.0792,3.0791,0.0,0.0,0.0,0.0,0.0,0.0,0.0,0.0,0.0,0.0,0.0,0.0,0.0,0.0,0.0,0.0,0.0,0.0,0.0,0.0,0.0,0.0,0.0,0.0,0.0,3.0003,3.0109,0.0,0.0,0.0,0.0,0.0,2.9973,2.9908,0.0,2.9872,2.9826,2.9732,2.9724,2.9786,2.9786,2.9836,2.9918,0.0,0.0,0.0,0.0,0.0,0.0,0.0,0.0,0.0,0.0,0.0,0.0,3.0728,3.0743,3.1122,3.2864,3.3366,3.3814,3.556,3.6366,3.6824,3.7219,3.8348,3.947,3.9997,3.9694,3.9312,3.9312,3.8923,3.8496,3.8131,3.8042,3.7715,3.681,3.6685,3.6494,3.5967,3.5807,3.576,3.5769,3.5427,3.5208,3.5187,3.4369,3.3731,3.3383,3.2377,3.1657,3.1328,3.0849,3.0598,3.0598,3.0597,3.0617,3.0668,3.0687,3.0714,3.0751,3.0791,3.0801,3.0801,3.0801,3.0795,3.0796,3.0792,3.0798,3.0796,3.0801,3.0796,3.0792,3.081,3.0806,3.0795,0.0,0.0,0.0,0.0,0.0,0.0,0.0,0.0,0.0,0.0,0.0,0.0,0.0,0.0,0.0,0.0,0.0,0.0,0.0,0.0,0.0,0.0,0.0,0.0,0.0,0.0,0.0,0.0,0.0,0.0,0.0,0.0,2.982,2.9758,0.0,2.9671,2.9663,2.949,2.9471,2.958,2.958,2.9689,2.9869,3.003,0.0,0.0,0.0,0.0,0.0,0.0,0.0,0.0,0.0,3.0675,3.0774,3.0798,3.08,3.1171,3.2926,3.3395,3.3826,3.5563,3.5992,3.6207,3.7009,3.7789,3.8415,3.8572,3.8533,3.8474,3.8474,3.8358,3.7994,3.7184,3.7069,3.6757,3.5885,3.5841,3.5908,3.5878,3.5834,3.5735,3.5597,3.4914,3.4425,3.4297,3.3474,3.2643,3.1831,3.1734,3.1366,3.0617,3.0598,3.0598,3.0598,3.06,3.0602,3.0606,3.0668,3.069,3.0694,3.0756,3.0799,3.0801,3.0801,3.0801,3.0801,3.0801,3.0801,3.0801,3.0801,3.0801,3.0801,3.0801,3.0804,3.0809,0.0,0.0,0.0,0.0,0.0,0.0,0.0,0.0,0.0,0.0,0.0,0.0,0.0,0.0,0.0,0.0,0.0,0.0,0.0,0.0,0.0,0.0,0.0,0.0,0.0,0.0,0.0,0.0,0.0,0.0,0.0,0.0,0.0,2.9493,0.0,2.9463,2.947,2.9427,2.9427,2.945,2.945,2.948,2.954,2.9836,2.9931,0.0,0.0,0.0,0.0,0.0,0.0,0.0,3.0576,3.0617,3.0653,3.0771,3.0792,3.1189,3.2934,3.3409,3.3826,3.5563,3.5992,3.6051,3.6246,3.6422,3.695,3.8318,3.8064,3.7575,3.7575,3.6453,3.5484,3.529,3.5251,3.5147,3.4845,3.5443,3.5852,3.575,3.5727,3.5466,3.4821,3.4551,3.4133,3.3436,3.2565,3.2005,3.1811,3.1197,3.0772,3.0617,3.0598,3.0598,3.0598,3.0607,3.0591,0.0,3.0614,3.0661,3.0694,3.0713,3.0742,3.0801,3.0801,3.0801,3.0801,3.0801,3.0801,3.0801,3.0801,3.0801,3.0801,3.0801,3.0806,3.0798,0.0,0.0,0.0,0.0,0.0,0.0,0.0,0.0,0.0,0.0,0.0,0.0,0.0,0.0,0.0,0.0,0.0,0.0,0.0,0.0,0.0,0.0,0.0,0.0,0.0,0.0,0.0,0.0,0.0,0.0,2.9608,0.0,0.0,2.9402,0.0,2.9401,2.9396,2.9396,2.9396,2.9396,2.9396,2.9396,2.9438,2.9672,2.982,2.9934,3.0162,0.0,0.0,0.0,0.0,0.0,0.0,0.0,3.0678,3.0778,3.0795,3.1189,3.2939,3.3391,3.3826,3.5563,3.5992,3.5992,3.5992,3.5686,3.5634,3.6552,3.6376,3.6064,3.6064,3.4978,3.4062,3.4037,3.4389,3.4623,3.4517,3.5259,3.5786,3.5713,3.534,3.4918,3.4492,3.3674,3.2977,3.2507,3.1695,3.1236,3.1236,3.083,3.0598,3.0598,3.0598,3.0598,3.0598,3.0598,3.0592,3.0595,3.0595,3.0617,3.0645,3.0685,3.0727,3.0742,3.0742,3.0751,3.0742,3.0742,3.0769,3.0801,3.0801,3.0801,3.0801,3.0801,3.0801,3.0804,0.0,0.0,0.0,0.0,0.0,0.0,0.0,0.0,0.0,0.0,0.0,0.0,0.0,0.0,0.0,0.0,0.0,0.0,0.0,0.0,0.0,0.0,0.0,0.0,0.0,0.0,0.0,0.0,0.0,2.9429,2.9472,2.9472,2.9443,2.9392,0.0,2.939,2.9396,2.9396,2.9396,2.9396,2.9396,2.9396,2.9409,2.9551,2.9688,2.9878,3.0044,3.0202,3.0355,3.0398,0.0,0.0,0.0,0.0,3.0706,3.0771,3.08,3.1152,3.2733,3.3399,3.3967,3.5412,3.5883,3.5963,3.5807,3.5211,3.4648,3.4492,3.4472,3.4472,3.4453,3.3749,3.3131,3.3074,3.368,3.4177,3.4268,3.498,3.549,3.5481,3.4845,3.4278,3.3988,3.2648,3.1734,3.1599,3.0984,3.0598,3.0598,3.0598,3.0598,3.0598,3.0598,3.0598,3.0598,3.0598,3.0598,3.0598,3.0598,3.0597,3.0597,3.0657,3.068,3.0694,3.0694,3.0707,3.0694,3.0694,3.0731,3.0774,3.0774,3.0796,3.0801,3.0801,3.0801,3.0801,0.0,0.0,0.0,0.0,0.0,0.0,0.0,0.0,0.0,0.0,0.0,0.0,0.0,0.0,0.0,0.0,0.0,0.0,2.9607,0.0,0.0,2.9412,2.9412,0.0,0.0,0.0,0.0,0.0,2.9396,2.9407,2.9399,2.9399,2.9417,2.9388,2.9388,2.9407,2.9396,2.9396,2.9396,2.9396,2.9396,2.9396,2.9409,2.9551,2.9626,2.9671,2.9988,3.0122,3.0176,3.0349,3.0416,0.0,0.0,0.0,3.0636,3.0765,3.08,3.1015,3.2012,3.339,3.4587,3.4822,3.5449,3.5799,3.5057,3.4741,3.4402,3.3643,3.3531,3.3552,3.3508,3.2769,3.2179,3.2187,3.2263,3.2582,3.3283,3.4123,3.4647,3.4583,3.4476,3.3813,3.2295,3.1947,3.1502,3.081,3.0656,3.0598,3.0598,3.0598,3.0598,3.0598,3.0598,3.0598,3.0598,3.0598,3.0598,3.0598,3.0598,3.0602,3.0607,3.0616,3.0645,3.0694,3.0694,3.0697,3.0701,3.0701,3.072,3.0709,3.0709,3.0742,3.0801,3.0801,3.0801,3.0801,0.0,0.0,0.0,0.0,0.0,0.0,0.0,0.0,0.0,0.0,0.0,0.0,0.0,0.0,0.0,2.9104,2.9031,2.9082,2.9241,2.9343,2.9392,2.939,2.9409,2.9399,2.9407,0.0,0.0,0.0,2.9396,2.9396,2.9396,2.9396,2.9396,2.9396,2.9396,2.9396,2.9396,2.9396,2.9396,2.9396,2.9396,2.9396,2.9407,2.9461,2.9532,2.9626,2.9899,3.0037,3.0129,3.0323,3.0404,3.0414,3.0519,0.0,0.0,0.0,3.0768,3.0998,3.1867,3.3023,3.3963,3.3965,3.4235,3.4385,3.3995,3.3509,3.3037,3.2647,3.221,3.2032,3.2489,3.1856,3.127,3.1213,3.1631,3.2042,3.2377,3.3166,3.3698,3.3673,3.3247,3.2648,3.1869,3.1386,3.0984,3.0636,3.0598,3.0598,3.0598,3.0598,3.0598,3.0598,3.0598,3.0598,3.0598,3.0598,3.0598,3.0598,3.0598,3.0598,3.0598,3.0598,3.0621,3.064,3.064,3.0637,3.0638,3.0638,3.0674,3.0703,3.0703,3.0739,3.0801,3.0801,3.0801,3.0801,0.0,0.0,0.0,0.0,0.0,0.0,0.0,0.0,0.0,0.0,0.0,0.0,0.0,0.0,0.0,0.0,2.8664,2.8748,2.8982,2.9195,2.9339,2.9396,2.9396,2.9396,2.9396,0.0,0.0,2.9441,2.9427,2.9427,2.9441,2.9427,2.9396,2.9396,2.9396,2.9396,2.9396,2.9396,2.9396,2.9396,2.9396,2.9396,2.9388,2.9155,2.9275,2.9551,2.9584,2.9783,3.008,3.0311,3.0404,3.0408,3.0487,3.0548,0.0,0.0,0.0,3.0946,3.1599,3.2383,3.3046,3.3039,3.3162,3.3223,3.3028,3.2445,3.1912,3.1695,3.1102,3.0812,3.1462,3.1082,3.0657,3.0552,3.109,3.1574,3.1702,3.2271,3.2695,3.2695,3.2157,3.1684,3.1472,3.0931,3.0598,3.0598,3.0598,3.0598,3.0598,3.0598,3.0598,3.0598,3.0598,3.0598,3.0598,3.0598,3.0598,3.0598,3.0598,3.0598,3.0598,3.0598,3.0598,3.0598,3.0598,3.0606,3.0606,3.0606,3.0637,3.0703,3.0703,3.0739,3.0801,3.0801,3.0801,3.0801,0.0,0.0,0.0,0.0,0.0,0.0,0.0,0.0,0.0,0.0,0.0,0.0,0.0,2.8527,2.8621,2.8621,2.8554,2.8658,2.898,2.9014,2.9134,2.9396,2.9396,0.0,2.9396,0.0,0.0,2.9589,2.9461,2.9461,2.9589,2.9451,2.9396,2.9396,2.9396,2.9396,2.9396,2.9396,2.9396,2.9396,2.9396,2.9396,2.9304,2.8486,2.8682,2.9338,2.8919,2.9257,2.9958,3.028,3.0404,3.0408,3.0487,3.0548,3.061,0.0,0.0,0.0,3.0858,3.1456,3.2073,3.2071,3.2631,3.3004,3.2243,3.198,3.1677,3.0831,3.0545,3.0433,3.0477,3.0559,3.0552,3.043,3.0447,3.0722,3.1418,3.1558,3.1578,3.1578,3.166,3.1386,3.0557,3.0554,3.0598,3.0598,3.0598,3.0598,3.0598,3.0598,3.0598,3.0598,3.0598,3.0598,3.0598,3.0598,3.0598,3.0598,3.0598,3.0598,3.0598,3.0598,3.0598,3.0598,3.0598,3.0606,3.0606,3.0606,3.0637,3.0703,3.0703,3.0739,3.0801,3.0801,3.0801,3.0801,0.0,0.0,0.0,0.0,0.0,0.0,0.0,0.0,0.0,0.0,0.0,0.0,0.0,2.7996,2.802,2.802,2.817,2.8363,2.8658,2.8892,2.9123,2.9396,2.9396,2.9396,2.9396,2.9396,2.9461,0.0,2.9551,2.9561,2.9608,2.9551,2.9472,2.9396,2.9396,2.9396,2.9396,2.9396,2.9396,2.9396,2.9396,2.9062,2.8523,2.8226,2.8282,2.8563,2.8518,2.9103,2.9934,3.0142,3.0299,3.039,3.0436,3.0515,3.0617,3.0728,3.0787,3.08,3.08,3.1003,3.1223,3.1186,3.1375,3.1495,3.1112,3.0999,3.0828,3.048,3.0365,3.0343,3.0343,3.0371,3.0389,3.0336,3.0343,3.0426,3.0682,3.0733,3.0733,3.0733,3.0765,3.0675,3.0362,3.0379,3.0419,3.0479,3.046,3.0505,3.0593,3.0598,3.0598,3.0598,3.0598,3.0598,3.0598,3.0598,3.0598,3.0598,3.0598,3.0598,3.0598,3.0598,3.0598,3.0598,3.0598,3.0606,3.0606,3.0606,3.0637,3.0703,3.0703,3.0739,3.0801,3.0801,3.0801,3.0801,0.0,0.0,0.0,0.0,0.0,0.0,0.0,0.0,0.0,0.0,0.0,0.0,0.0,0.0,2.7701,2.7701,2.7855,2.8088,2.835,2.8664,2.8962,2.9243,2.9347,2.9396,2.9396,2.9396,2.9461,0.0,0.0,0.0,2.9608,2.9561,2.9491,2.9396,2.9396,2.9396,2.9396,2.9396,2.9386,2.9376,2.9396,2.8866,2.8047,2.7789,2.7706,2.7716,2.7921,2.8638,2.9565,2.9963,3.0241,3.0404,3.0404,3.0487,3.0623,3.0764,3.0795,3.0801,3.0798,3.0781,3.0759,3.0703,3.0681,3.0626,3.0501,3.0419,3.0389,3.0311,3.026,3.0233,3.0233,3.0206,3.0173,3.0233,3.0233,3.0226,3.0166,3.0159,3.0159,3.0159,3.0213,3.0233,3.0233,3.0266,3.0318,3.0365,0.0,0.0,3.0493,3.0499,3.0509,3.054,3.0583,3.0598,3.0598,3.0598,3.0598,3.0598,3.0598,3.0598,3.0598,3.0598,3.0598,3.0598,3.0598,3.0606,3.0606,3.0606,3.0649,3.0707,3.0697,3.0734,3.0769,3.0796,3.0801,3.0801,0.0,0.0,0.0,0.0,0.0,0.0,0.0,0.0,0.0,0.0,0.0,0.0,0.0,0.0,0.0,2.7701,2.7701,2.7815,2.8088,2.835,2.8646,2.8991,2.9262,2.9396,2.9396,2.9396,0.0,0.0,0.0,0.0,0.0,0.0,2.9407,2.9396,2.9396,2.9396,2.9396,2.9396,2.9365,2.9312,2.9376,2.8817,2.7894,2.7166,2.6888,2.6898,2.7097,2.7827,2.8837,2.9746,3.0215,3.0398,3.0404,3.0487,3.0623,3.0762,3.0798,3.0797,0.0,0.0,0.0,3.0701,3.0642,3.0576,3.0425,3.0392,3.0383,3.0305,3.018,3.0094,3.0094,2.9996,2.9937,3.0079,3.0094,3.0057,2.9913,2.9897,2.9897,2.9897,3.0007,3.0094,3.0094,3.0219,3.0279,0.0,3.0286,3.0305,3.0312,3.0292,3.0336,3.0386,3.051,3.0593,3.0593,3.0593,3.0593,3.0593,3.0598,3.0598,3.0598,3.0598,3.0598,3.0598,3.0598,3.0601,3.0602,3.0606,3.0634,3.0697,3.0707,3.07,3.0703,3.0769,3.0799,3.0799,0.0,0.0,0.0,0.0,0.0,0.0,0.0,0.0,0.0,0.0,0.0,0.0,0.0,0.0,2.7701,2.7701,2.7701,2.7815,2.8088,2.835,2.8646,2.8991,2.9262,2.9396,2.9396,2.9396,0.0,0.0,0.0,0.0,0.0,0.0,0.0,0.0,2.9396,2.9396,2.9396,2.9396,2.9386,2.9376,2.9396,2.8513,2.7185,2.6981,2.6535,2.6042,2.6106,2.7144,2.8546,2.8943,2.9575,3.0222,3.0406,3.0527,3.0614,3.0691,3.0765,3.0801,3.0798,0.0,0.0,0.0,0.0,0.0,3.0377,3.033,3.026,3.0045,2.9977,2.9972,2.9972,2.994,2.9905,2.9945,2.9972,2.9937,2.9916,2.9897,2.9897,2.9897,2.9929,2.9972,2.9972,2.9984,3.0057,0.0,3.0152,3.0206,3.0286,3.0292,3.0305,3.033,3.0361,3.0373,3.0373,3.0442,3.0449,3.0455,3.055,3.0598,3.0598,3.0598,3.0598,3.0598,3.0598,3.0607,3.0601,3.0593,3.0634,3.0694,3.0704,3.0707,3.0691,3.0722,3.0734,3.0737,0.0,0.0,0.0,0.0,0.0,0.0,0.0,0.0,0.0,0.0,0.0,0.0,0.0,0.0,0.0,2.7701,2.7701,2.7771,2.7926,2.8179,2.8466,2.8791,2.9082,2.9283,2.9396,2.9396,0.0,0.0,0.0,0.0,0.0,0.0,0.0,0.0,0.0,2.9396,2.9396,2.9396,2.9386,2.9365,2.9386,2.8383,2.685,2.6897,2.6182,2.5243,2.5578,2.641,2.7483,2.8299,2.9247,3.0157,3.0413,3.0548,3.061,3.0675,3.0756,3.08,3.0798,3.0807,3.0778,3.0724,0.0,0.0,3.04,3.0324,3.024,3.0034,2.9929,3.001,3.0389,3.0143,3.0029,3.0389,3.0143,2.9897,2.9897,2.9897,2.9897,2.9897,2.9897,2.9897,2.9897,2.9897,2.9929,3.0,3.0026,3.0057,3.013,3.0199,3.0226,3.0226,3.0266,3.0292,3.0292,3.0349,3.0359,3.0359,3.0431,3.0493,3.053,3.053,3.055,3.0598,3.0598,3.0598,3.0598,3.0606,3.0617,3.0665,3.0661,3.0665,3.0653,3.0688,3.0691,3.0703,0.0,0.0,0.0,0.0,0.0,0.0,0.0,0.0,0.0,0.0,0.0,0.0,0.0,0.0,0.0,0.0,2.7701,2.7701,2.7701,2.7936,2.8219,2.8491,2.8827,2.9134,2.9396,2.9396,0.0,0.0,0.0,0.0,0.0,0.0,0.0,0.0,0.0,0.0,2.9396,2.9396,2.9365,2.9304,2.9264,2.827,2.6811,2.6776,2.5819,2.4592,2.5317,2.5692,2.6134,2.7833,2.9169,3.0137,3.0386,3.0511,3.0607,3.0667,3.0732,3.08,3.08,3.079,3.0783,3.0716,3.0701,0.0,3.0471,3.0348,3.026,3.013,2.9984,3.0143,3.0901,3.0427,3.0143,3.092,3.0408,2.9897,2.9897,2.9897,2.9897,2.9897,2.9897,2.9897,2.9897,2.9897,2.9897,2.9897,2.9897,2.9897,2.9897,3.0007,3.0087,3.0087,3.0187,3.0253,3.0253,3.0266,3.0273,3.0273,3.0286,3.0336,3.0381,3.0392,3.0479,3.0583,3.0583,3.0588,3.0598,3.0588,3.0588,3.0602,3.0604,3.0597,3.0606,3.0668,3.0685,3.0691,2.7701,0.0,0.0,0.0,0.0,0.0,0.0,0.0,0.0,0.0,0.0,0.0,0.0,0.0,0.0,0.0,2.7701,2.7701,2.7701,2.7936,2.8219,2.8491,2.8827,2.9134,2.9396,2.9396,0.0,0.0,0.0,0.0,0.0,0.0,0.0,0.0,0.0,0.0,2.9396,2.9396,2.9396,2.933,2.8635,2.7751,2.6813,2.6182,2.5336,2.4518,2.4685,2.5177,2.6012,2.7808,2.9169,3.0115,3.0157,3.0379,3.0597,3.0614,3.0715,3.0809,3.0799,3.08,3.0787,3.0722,3.0703,0.0,3.0516,3.0396,3.026,3.013,2.9984,2.9953,3.0124,3.001,2.9953,3.0124,3.001,2.9897,2.9897,2.9897,2.9897,2.9897,2.9897,2.9897,2.9897,2.9897,2.9897,2.9897,2.9897,2.9897,2.9897,2.9921,2.9929,2.9929,2.9961,2.9969,2.9969,3.0087,3.0138,3.0138,3.0246,3.0299,3.0324,3.0383,3.0403,3.0439,3.0439,3.05,3.0593,3.049,3.05,3.0598,3.0607,3.0592,3.0597,3.0602,3.0622,3.0622,2.7686,0.0,0.0,0.0,0.0,0.0,0.0,0.0,0.0,0.0,0.0,0.0,0.0,0.0,0.0,0.0,0.0,0.0,0.0,0.0,0.0,0.0,2.8596,2.8875,2.9134,2.9251,0.0,0.0,0.0,0.0,0.0,0.0,0.0,0.0,0.0,0.0,2.9492,2.9429,2.9155,2.8746,2.8746,2.8003,2.6851,2.6442,2.5559,2.45,2.45,2.528,2.6442,2.7461,2.8714,2.988,3.004,3.0244,3.0418,3.052,3.0642,3.0746,3.0747,3.0761,3.0772,3.0716,3.0706,0.0,0.0,3.0425,3.0279,3.0207,3.0049,3.0029,3.0465,3.02,3.0048,3.0484,3.0181,2.9864,2.976,2.9839,2.9897,2.9897,2.9897,2.9897,2.9897,2.9897,2.9897,2.9897,2.9897,2.9897,2.9897,2.9897,2.9897,2.9897,2.9897,2.9897,2.9897,2.998,2.9992,2.9992,3.0072,3.0138,3.0194,3.0247,3.0299,3.0348,3.0348,3.039,3.045,3.0385,3.0396,3.0461,3.0485,3.05,3.05,3.0506,3.0511,3.0567,2.7657,0.0,0.0,0.0,0.0,0.0,0.0,0.0,0.0,0.0,0.0,0.0,0.0,0.0,0.0,0.0,0.0,0.0,0.0,0.0,0.0,0.0,2.8286,2.8538,2.8845,2.9026,0.0,0.0,0.0,0.0,0.0,0.0,0.0,0.0,0.0,0.0,2.9561,2.9481,2.8917,2.817,2.8876,2.8152,2.6646,2.6498,2.5633,2.4518,2.4685,2.5671,2.6953,2.7267,2.8369,2.9644,2.9958,3.0132,3.0246,3.0434,3.0598,3.0684,3.07,3.0735,3.0779,0.0,0.0,3.0697,0.0,0.0,0.0,3.0311,3.0109,3.0157,3.0814,3.037,3.0124,3.0844,0.0,0.0,0.0,2.976,0.0,2.9796,2.9855,2.988,2.9847,2.9872,2.9897,2.9897,2.9897,2.9897,2.9897,2.9897,2.9897,2.9897,2.9897,2.9897,2.9897,2.9897,2.9897,2.9897,2.9897,2.9972,3.0072,3.0094,3.0152,3.026,3.026,3.0273,3.0305,3.0266,3.0273,3.0318,3.0365,3.0381,3.0381,3.0406,3.0433,3.0481,2.7609,2.7701,0.0,0.0,0.0,0.0,0.0,0.0,0.0,0.0,0.0,0.0,2.7701,2.7701,2.7701,2.7701,2.7701,0.0,2.7701,0.0,0.0,0.0,2.8037,2.8264,2.8712,0.0,0.0,0.0,0.0,0.0,0.0,0.0,0.0,0.0,2.9522,2.9531,2.9429,2.9532,2.9007,2.8114,2.8207,2.7278,2.5764,2.5039,2.4667,2.4592,2.5317,2.6145,2.7009,0.0,2.8717,2.9644,0.0,3.0051,3.0246,3.0434,3.0556,3.0623,3.0682,3.0702,0.0,0.0,3.0732,0.0,3.0688,0.0,3.0444,3.0324,0.0,3.0068,3.0046,0.0,0.0,0.0,2.9953,2.9888,2.9872,2.9725,2.957,2.9395,2.9681,2.983,2.9653,2.9805,2.9897,2.9897,2.9897,2.9897,2.9897,2.9897,2.9897,2.9897,2.9897,2.9897,2.9897,2.9897,2.9897,2.9897,2.9897,2.9905,2.9921,3.0057,3.0109,3.0123,3.0123,3.018,3.0286,3.0166,3.0187,3.0292,3.0298,3.0316,3.0322,3.0379,3.0396,3.0408,2.7642,2.7701,0.0,0.0,0.0,0.0,0.0,0.0,0.0,0.0,0.0,0.0,2.8403,2.8807,2.8895,2.8438,2.8825,2.8702,2.7754,2.814,0.0,2.7777,2.7886,2.8024,2.8183,2.8471,2.8707,0.0,2.9112,0.0,0.0,0.0,0.0,0.0,2.957,2.9626,2.969,2.9751,2.8928,2.7577,2.7664,2.6611,0.0,2.515,2.5206,2.5243,2.5578,2.6516,2.765,0.0,2.8713,0.0,0.0,0.0,0.0,3.035,3.0482,3.0548,3.0587,0.0,0.0,0.0,0.0,0.0,3.0714,0.0,3.0482,0.0,0.0,0.0,0.0,0.0,0.0,0.0,2.9897,2.9855,0.0,0.0,2.9698,2.9504,0.0,0.0,2.9598,0.0,0.0,0.0,2.9786,2.9787,2.9888,2.9897,2.9897,2.9897,2.9897,2.9897,2.9897,2.9897,2.9897,2.9897,2.9897,2.9897,2.9897,2.9953,2.9977,2.9977,2.9977,3.0026,3.0053,3.0019,3.0026,3.0079,3.0104,3.0161,3.026,3.0273,3.0286,3.0299,2.7642,2.7701,2.7701,0.0,0.0,0.0,0.0,0.0,0.0,0.0,2.8689,2.918,2.9228,2.9755,2.986,2.9281,2.9772,2.9597,2.8438,2.8864,2.8886,2.8248,2.8122,2.8074,2.8121,2.8354,2.8525,2.8632,2.9003,0.0,0.0,0.0,0.0,0.0,0.0,2.975,2.9902,2.995,2.9044,2.7614,2.7725,2.677,2.5323,2.5604,2.5708,2.5726,2.5949,2.6628,2.7483,2.7706,2.8218,0.0,2.9114,2.9243,2.9326,0.0,2.9759,2.9791,2.98,0.0,0.0,0.0,0.0,0.0,0.0,0.0,0.0,0.0,0.0,0.0,0.0,0.0,0.0,0.0,0.0,2.9847,0.0,2.9751,2.9716,2.9474,0.0,0.0,0.0,0.0,2.9608,2.9794,2.9888,3.0047,3.0248,3.0257,3.0257,3.0257,3.0029,2.9897,2.9897,2.9897,2.9897,2.9897,2.9897,2.9897,2.9897,2.9897,2.9897,2.9897,2.9897,2.9897,2.9897,2.9897,2.9897,2.9897,2.9956,3.0034,3.0142,3.0164,3.018,3.0202,2.7612,2.7701,2.7701,2.7701,0.0,0.0,0.0,0.0,0.0,2.8751,2.9416,2.9922,3.0055,3.0088,3.0088,3.0071,3.0088,3.0088,3.0036,2.9938,2.9854,2.9837,2.896,2.8624,2.8946,2.8415,2.8308,2.8694,2.9026,2.924,0.0,0.0,0.0,0.0,2.9811,2.9894,2.991,3.0044,2.9546,2.8643,2.8662,2.812,2.7199,0.0,2.5708,2.5801,2.6572,0.0,0.0,2.6684,2.7037,0.0,0.0,0.0,0.0,0.0,0.0,0.0,0.0,0.0,0.0,2.9517,0.0,0.0,0.0,0.0,3.0655,0.0,0.0,0.0,0.0,0.0,0.0,0.0,0.0,0.0,0.0,2.9725,2.9465,2.9071,2.9014,0.0,0.0,2.9314,2.9395,2.9598,3.0387,3.0941,3.1138,3.1147,3.1147,3.1147,3.0332,2.9897,2.9897,2.9897,2.9897,2.9897,2.9897,2.9897,2.9897,2.9897,2.9897,2.9897,2.9897,2.9897,2.9897,2.9897,2.9897,2.9897,2.9897,2.9948,3.0003,3.0079,3.013,3.0192,2.7642,2.7657,2.763,2.763,2.763,2.7774,0.0,2.8921,2.9425,2.9522,3.0204,3.0727,3.0826,3.13,3.1405,3.0861,3.1317,3.1194,3.0176,3.0512,3.0497,2.9924,2.9548,2.915,2.869,2.8862,2.8766,2.836,2.898,2.9291,0.0,0.0,0.0,0.0,0.0,3.0037,3.0044,3.0228,2.9736,2.8767,2.8115,2.7987,2.8025,0.0,2.618,2.6631,2.6255,2.6275,0.0,2.6814,2.6926,2.699,2.7198,2.7358,2.7511,2.7663,2.7796,0.0,0.0,0.0,2.8544,2.8565,0.0,0.0,0.0,0.0,0.0,0.0,0.0,0.0,0.0,0.0,0.0,0.0,0.0,0.0,0.0,2.9725,2.9504,2.922,2.9075,2.9026,0.0,0.0,0.0,3.0443,3.0725,3.0979,3.1195,3.0654,3.0332,3.0332,3.0048,2.9897,2.9897,2.9897,2.9897,2.9897,2.9897,2.9897,2.9897,2.9897,2.9897,2.9897,2.9897,2.9897,2.9897,2.9897,2.9897,2.9897,2.9897,2.9948,2.9988,3.0038,3.0072,3.015,2.7967,2.8019,2.7886,2.7637,2.7783,2.8157,2.8841,2.9738,3.0358,3.0422,3.1156,3.1698,3.1763,3.2157,3.2195,3.1668,3.209,3.1984,3.0984,3.1319,3.137,3.0957,3.058,3.0037,2.9339,2.9511,2.9224,2.8376,2.9003,2.9302,0.0,0.0,0.0,0.0,0.0,3.0136,3.0228,3.0329,3.0035,2.9372,0.0,2.8774,0.0,0.0,2.6758,2.6987,0.0,2.5883,2.6042,2.6106,2.6124,2.614,2.6333,2.6476,2.6598,2.6696,2.6841,2.6986,2.6986,2.731,0.0,2.7641,2.7979,0.0,2.8961,0.0,2.9283,0.0,0.0,0.0,0.0,0.0,0.0,0.0,0.0,0.0,0.0,2.9725,2.9561,2.9425,2.9174,2.9113,2.9407,2.9758,3.0235,3.0847,3.0903,3.0979,0.0,0.0,3.0351,3.0351,3.0067,2.9897,2.9897,2.9897,2.9897,2.9897,2.9897,2.9897,2.9897,2.9897,2.9897,2.9897,2.9897,2.9897,2.9897,2.9897,2.9897,2.9897,2.9897,2.9932,2.9964,2.998,3.0034,3.0109,2.8559,2.8728,2.8453,2.7869,2.8232,2.8847,2.9556,3.0622,3.1392,3.1455,3.219,3.2732,3.2795,3.2537,3.2353,3.2335,3.2318,3.23,3.23,3.2196,3.2315,3.2688,3.1849,3.1159,3.0762,3.0246,2.9564,2.8694,2.9115,2.9312,2.9312,0.0,0.0,0.0,3.0052,0.0,3.0404,3.0404,3.0404,3.0404,3.0404,3.0398,3.0175,2.8325,2.7335,2.6833,2.6114,2.5286,2.4532,2.4668,2.4715,2.4727,2.4861,2.4981,2.509,2.509,2.5187,2.5308,2.5308,2.5998,2.674,2.674,0.0,0.0,0.0,0.0,2.8435,0.0,0.0,0.0,0.0,0.0,0.0,0.0,0.0,0.0,0.0,2.9734,2.9617,2.9608,2.9262,2.9331,3.0073,2.9552,2.9632,3.0818,3.0951,3.1045,0.0,0.0,3.1128,3.1128,3.0332,2.9897,2.9897,2.9897,2.9897,2.9897,2.9897,2.9897,2.9897,2.9897,2.9897,2.9897,2.9897,2.9897,2.9897,2.9897,2.9897,2.9897,2.9897,2.9897,2.9905,2.9972,3.0061,3.0109,2.9342,2.9448,2.9469,2.9833,3.0041,3.0196,3.0386,3.1393,3.217,3.2287,3.2753,3.3001,3.2811,3.2252,3.1772,3.1544,3.1195,3.0985,3.0985,3.1133,3.1282,3.138,3.1074,3.0571,2.9922,2.9973,2.9606,2.876,2.9171,2.9376,2.9386,0.0,0.0,0.0,0.0,3.0355,3.0404,3.0404,3.0404,3.0404,3.0404,3.0311,2.9998,0.0,2.7593,2.708,2.5676,2.5007,2.4797,2.4832,2.4847,2.4854,2.4895,2.4981,2.509,2.509,2.5187,2.5308,2.5308,2.5565,2.5837,2.5837,2.6096,2.6533,0.0,0.0,0.0,0.0,0.0,0.0,0.0,0.0,0.0,0.0,0.0,0.0,0.0,2.9855,2.9779,2.9617,2.9513,2.947,2.9527,3.0615,3.1189,3.0913,3.16,3.1785,0.0,0.0,0.0,3.0238,3.0029,2.9897,2.9897,2.9897,2.9897,2.9897,2.9897,2.9897,2.9897,2.9897,2.9897,2.9897,2.9897,2.9897,2.9897,2.9897,2.9897,2.9897,2.9897,2.9897,2.9905,3.003,3.0095,3.0117,3.004,3.0542,3.0907,3.1324,3.1515,3.1567,3.1429,3.2104,3.2715,3.297,3.294,3.2839,3.2737,3.1905,3.1261,3.108,3.0823,3.0675,3.0675,3.0818,3.0953,3.107,3.1007,3.0659,3.0045,3.0197,2.9863,2.9056,2.9286,0.0,2.9407,0.0,0.0,0.0,0.0,3.0404,3.0404,3.0404,3.0404,3.0404,3.0404,3.0323,0.0,2.8497,2.7773,2.7396,2.569,2.5006,2.4915,2.4974,2.4955,2.4915,2.4981,2.5031,2.509,2.509,2.5187,2.5308,2.5308,2.5406,2.5501,2.5501,2.5593,2.5833,2.6319,2.6406,2.6609,0.0,0.0,0.0,0.0,0.0,0.0,3.0302,3.026,0.0,0.0,2.9996,2.9921,2.9742,2.9725,2.9689,2.958,3.0471,3.1054,3.1035,3.1226,0.0,0.0,0.0,0.0,2.9897,2.9897,2.9897,2.9897,2.9897,2.9897,2.9897,2.9897,2.9897,2.9897,2.9897,2.9897,2.9897,2.9897,2.9897,2.9897,2.9897,2.9897,2.9897,2.9897,2.9924,2.9956,3.0053,3.0095,3.011,3.075,3.1742,3.2369,3.2369,3.2602,3.2732,3.247,3.2731,0.0,3.3312,0.0,3.2525,3.2436,3.1455,3.0794,3.0753,3.0686,3.0645,3.0645,3.0686,3.08,3.1048,3.106,3.0855,3.0456,3.0437,3.0103,2.9396,0.0,0.0,0.0,0.0,0.0,0.0,0.0,3.0404,3.0404,3.0404,3.0404,3.0404,3.0404,3.0404,3.0212,2.8541,2.7906,2.7664,2.5938,2.516,2.4974,2.5097,2.5056,2.4981,2.5097,2.5132,2.5132,2.5138,2.5222,2.5308,2.5313,2.5391,2.5504,2.5504,2.56,2.57,2.5696,2.5701,2.5897,2.6606,2.6819,2.7308,0.0,0.0,0.0,3.017,0.0,0.0,0.0,3.0116,3.0064,2.9937,2.9905,0.0,2.9897,2.989,3.0222,3.0968,0.0,0.0,0.0,0.0,0.0,2.9897,2.9905,2.9905,2.9897,0.0,2.9905,2.9897,2.9897,2.9897,2.9897,2.9897,2.9897,2.9897,2.9897,2.9897,2.9905,2.9905,2.9924,2.9932,2.9932,2.9956,3.0022,3.0087,3.0102,3.0117,3.183,3.2398,3.2699,3.2699,3.2763,3.2874,3.3093,3.3243,3.3121,3.2579,3.2708,3.2502,3.161,3.0803,3.0215,2.9926,2.9563,0.0,0.0,0.0,0.0,2.9742,2.9742,2.9689,2.9601,2.9601,2.9527,0.0,0.0,0.0,0.0,0.0,0.0,0.0,3.0299,3.0404,3.0404,3.0404,0.0,3.0404,3.0404,3.0404,3.0223,2.8599,2.7947,2.7675,2.5998,2.5317,2.5233,2.5253,2.5248,2.5233,2.5253,2.5259,2.5288,2.5337,2.5317,2.5313,2.5361,2.5437,2.5499,2.5499,2.5608,2.5702,2.5702,2.5702,2.5731,2.588,2.6394,2.6909,2.7191,0.0,0.0,0.0,0.0,0.0,0.0,3.0166,3.0094,3.0072,2.9961,2.9897,2.9897,0.0,3.0705,0.0,0.0,0.0,0.0,0.0,0.0,0.0,2.9956,0.0,0.0,0.0,2.9956,2.9897,2.9897,2.9897,2.9897,2.9897,2.9897,2.9897,2.9897,2.994,2.9972,2.9972,3.0022,3.0053,3.0053,3.008,3.0068,3.0106,3.0094,3.0101,3.2415,3.2829,3.3063,3.3063,3.3196,0.0,0.0,3.2958,3.2885,3.2588,3.1998,3.1429,3.0988,3.0242,2.9717,2.9561,2.9344,2.92,2.92,2.9326,2.9396,2.9396,2.9396,2.9396,2.9396,2.9471,2.9471,2.9396,0.0,0.0,0.0,0.0,0.0,3.0115,3.0311,3.0419,0.0,0.0,0.0,3.0506,3.0506,3.0506,3.0317,2.8671,2.8024,2.7778,2.6029,2.5382,2.5359,2.5303,2.5308,2.5308,2.5308,2.5308,2.5308,2.5346,2.5337,2.5308,2.537,2.5453,2.5512,2.5548,2.5624,2.5702,2.5702,2.5703,2.5698,2.5709,2.5977,2.6509,2.7378,2.8537,0.0,0.0,0.0,0.0,0.0,0.0,3.0235,3.0219,3.0145,3.0087,3.0,3.0372,3.0424,2.9934,0.0,0.0,0.0,0.0,0.0,0.0,0.0,0.0,0.0,0.0,0.0,2.9956,2.9924,2.9897,2.9897,2.9897,2.9897,2.9897,2.9897,2.9924,2.9948,2.9999,3.0038,3.0095,3.0095,3.011,3.0106,3.0101,3.0116,3.0164,3.2842,3.3211,3.349,3.349,3.3574,3.3434,3.284,3.2403,3.2195,3.2317,3.1203,3.0387,3.0395,2.9779,2.9407,2.944,2.9427,2.9399,2.945,2.9427,2.9396,2.9396,2.9396,2.9399,2.945,2.9551,2.957,0.0,0.0,0.0,0.0,0.0,0.0,0.0,0.0,0.0,0.0,0.0,3.0556,3.0593,3.0593,3.0593,3.0422,2.8761,2.8113,2.7864,2.6081,2.5436,2.5414,2.535,2.5312,2.5308,2.5308,2.5308,2.5313,2.5337,2.5322,2.535,2.5425,2.5479,2.5535,2.5582,2.5653,2.5702,2.5703,2.5703,2.5703,2.5696,2.569,2.6207,2.7887,2.8707,0.0,0.0,0.0,0.0,0.0,0.0,3.0389,3.033,3.0305,3.026,3.0152,0.0,0.0,0.0,0.0,0.0,2.9897,0.0,0.0,0.0,0.0,3.0038,3.008,0.0,3.0003,0.0,2.9948,2.9905,2.9897,2.9897,2.9897,2.9897,2.9924,2.994,2.9956,2.9996,3.0061,3.0125,3.0125,3.0121,3.0116,3.0116,3.0157,3.0211,3.3262,3.3725,3.4124,0.0,0.0,3.3099,3.3219,3.1797,3.0728,3.0793,3.0528,3.0146,2.9736,2.9465,2.938,2.958,2.9471,2.9441,2.957,2.9471,2.9396,2.9396,2.9396,2.9451,2.957,2.9598,2.9689,0.0,0.0,2.9946,0.0,0.0,0.0,0.0,0.0,0.0,0.0,3.0552,3.059,3.0593,3.0593,3.0593,3.0425,2.8802,2.8149,2.7877,2.6186,2.5535,2.5493,2.5488,2.5406,2.5308,2.5308,2.5308,2.5327,2.5456,2.5434,2.5422,2.5553,2.5595,2.5593,2.5608,2.5653,2.5703,2.5703,2.5703,2.5703,2.5703,2.5698,2.6207,2.7887,2.821,2.8732,0.0,0.0,0.0,0.0,0.0,3.0392,3.0386,3.0349,3.0305,3.0279,3.0166,0.0,0.0,2.9969,0.0,0.0,0.0,0.0,2.9905,0.0,3.0053,3.0014,3.0057,3.0057,3.0007,2.998,2.9956,2.9897,2.9897,2.9897,2.9897,2.9964,3.0019,3.0087,3.0094,3.0135,3.0197,3.0197,3.0178,3.0185,3.0185,3.0185,3.0211,0.0,0.0,0.0,0.0,0.0,0.0,0.0,3.117,3.0561,3.0227,3.0048,2.9887,2.9746,2.9663,2.9644,2.9777,2.9725,2.9726,2.9786,2.9735,2.9699,2.9699,2.9699,2.9735,2.9786,2.9867,2.9907,0.0,0.0,0.0,0.0,0.0,0.0,0.0,0.0,3.0575,3.062,3.0645,3.0675,3.072,3.072,3.0427,2.9864,2.8707,2.7925,2.7289,2.6043,2.5584,2.5548,2.5515,2.5451,2.5415,2.5415,2.5415,2.5437,2.548,2.548,2.5473,2.5576,2.5601,2.5603,2.5648,2.5679,2.5702,2.5703,2.5703,2.5703,2.5703,2.5702,2.6051,2.7255,2.7857,2.8544,0.0,0.0,0.0,0.0,0.0,0.0,3.051,3.0504,3.0442,3.0365,3.0304,0.0,0.0,0.0,0.0,0.0,0.0,0.0,2.9956,0.0,3.0098,3.0057,3.0087,3.0098,3.0053,3.0022,2.9964,2.9897,2.9897,2.9913,2.9964,3.003,3.0076,3.0101,3.0101,3.015,3.0211,3.0211,3.0211,3.0211,3.0211,3.0211,3.0261,3.3827,0.0,3.3982,0.0,3.2842,3.2297,3.1147,3.0734,3.0403,3.0048,2.9905,2.9855,2.9861,2.9801,2.9817,2.9942,2.9918,2.9918,2.9965,2.9926,2.9902,2.9902,2.9902,0.0,2.9965,3.0059,3.008,3.006,3.028,0.0,0.0,0.0,0.0,0.0,3.0593,3.0653,3.0691,3.0724,3.0762,3.08,3.08,3.0313,2.9495,2.8635,2.7756,2.6878,2.5967,2.5632,2.5612,2.5579,2.5556,2.5554,2.5503,2.5491,2.5491,2.5515,2.5532,2.5539,2.5605,2.563,2.5634,2.5698,2.5701,2.5702,2.5703,2.5703,2.5703,2.5703,2.5703,2.5976,2.6836,2.7641,2.8441,2.9264,0.0,0.0,0.0,3.0598,0.0,3.0598,3.0598,3.0564,3.0462,3.0436,0.0,0.0,0.0,0.0,0.0,0.0,0.0,0.0,0.0,0.0,0.0,3.0345,3.049,3.0479,3.0415,3.0367,3.03,3.0054,2.9964,3.003,3.008,3.0106,3.0123,3.0109,3.015,3.0211,3.0211,3.0211,3.0211,3.0211,3.0357,3.0663,3.3078,3.3298,3.3355,3.255,3.1753,3.126,3.1378,3.0551,2.9972,3.0164,3.0185,3.0142,3.0022,2.9828,2.9817,3.0068,2.9984,2.9965,3.0095,2.9969,2.9902,0.0,0.0,2.9954,3.0082,3.0109,3.0196,3.0398,0.0,0.0,3.0404,0.0,3.0531,3.0597,3.0664,3.0709,3.0694,3.077,3.08,3.08,3.08,3.0313,2.9495,2.8635,2.7756,2.69,2.6004,2.5696,2.57,2.5702,2.5703,2.5662,2.5547,2.5491,2.55,2.5582,2.5603,2.5605,2.5675,2.5695,2.5691,2.5701,2.5701,2.5701,2.5703,2.5703,2.5703,2.5703,2.5699,2.5967,2.6836,2.7608,2.8398,2.9253,0.0,0.0,0.0,3.0598,0.0,3.0598,3.0598,3.0597,3.0597,3.054,0.0,0.0,0.0,0.0,0.0,0.0,0.0,3.0095,3.0106,0.0,3.0101,3.0947,3.1386,3.1382,3.1318,3.129,3.1241,3.0386,3.003,3.0095,3.0095,3.014,3.0185,3.0123,3.015,3.0211,3.0211,3.0211,3.0211,3.0211,3.0739,3.1484,3.2617,3.2785,3.2727,3.1927,3.1581,3.1222,3.0675,3.0314,3.0128,3.0185,3.0211,3.0178,3.0135,3.0075,3.0092,0.0,3.0196,3.0202,0.0,3.0267,3.0241,3.0241,3.0241,3.026,3.0305,3.0305,3.0343,3.0404,0.0,0.0,0.0,3.0575,3.0645,3.0667,3.0734,3.0768,3.0768,3.0798,3.08,3.08,3.08,2.9967,2.8686,2.8413,2.7381,2.6074,2.58,2.5661,2.5638,2.5682,2.57,2.5699,2.5641,2.5635,2.5636,2.5657,2.5677,2.5676,2.5699,2.5699,2.5698,2.57,2.5701,2.5702,2.5703,2.5703,2.5703,2.5698,2.5692,2.5787,2.6066,2.7197,2.8181,2.8469,2.9694,0.0,0.0,0.0,3.0598,3.0598,3.0598,3.0597,3.0602,3.0585,0.0,0.0,0.0,0.0,0.0,0.0,0.0,0.0,3.0135,0.0,3.0101,3.0966,3.1405,3.1401,3.1386,3.1051,3.0472,3.0186,3.0076,3.0094,3.0142,3.019,3.0204,3.0171,3.0178,3.0211,3.0211,3.0211,3.0211,3.0211,3.0739,3.158,3.1982,3.2078,3.1954,3.1159,3.1006,3.0835,3.028,3.0226,3.0234,3.0234,3.0267,3.0292,3.0292,3.0286,0.0,3.0339,3.0378,3.0422,3.0477,3.0477,3.0477,3.0477,3.0477,3.0477,3.0477,3.0477,0.0,3.0477,3.0477,3.0515,3.0587,3.0656,3.0717,3.0734,3.0774,3.08,3.08,3.08,3.0805,3.079,3.079,2.9801,2.8301,2.8301,2.7226,2.57,2.5698,2.5651,2.5603,2.5653,2.5667,2.5679,2.5698,2.5701,2.5702,2.5703,2.5703,2.5702,2.5702,2.5701,2.57,2.5702,2.5702,2.5702,2.5703,2.5703,2.5699,2.571,2.5653,2.5644,2.5684,2.7013,2.8106,2.8099,2.9505,3.06,3.0602,0.0,3.0598,0.0,0.0,0.0,0.0,3.0634,3.0614,0.0,0.0,0.0,0.0,0.0,0.0,3.014,3.0183,0.0,3.0581,3.1443,3.2042,3.2371,3.2012,3.1245,3.0095,3.011,3.0106,3.0109,3.0171,3.0211,3.0211,3.0211,3.0211,3.0211,3.0211,3.0211,3.0249,3.0567,3.1217,3.2069,3.1204,3.1191,3.1083,0.0,3.0192,0.0,3.0199,3.0254,3.0316,3.0316,3.0353,3.0402,3.0402,3.0407,3.0413,3.0418,0.0,0.0,0.0,3.0593,3.0593,3.0593,3.0593,3.0593,3.0593,3.0593,3.0593,3.0593,3.06,3.0636,3.0709,3.0694,3.0734,3.08,3.08,3.0801,3.0803,3.0803,3.0792,3.08,3.08,2.9785,2.8295,2.8295,2.7202,2.5698,2.5698,2.5651,2.5597,2.5598,2.5603,2.5603,2.5677,2.5685,2.5689,2.5702,2.5703,2.5703,2.5703,2.5703,2.5702,2.5683,2.5684,2.5684,2.5683,2.5697,2.5684,2.5683,2.5591,2.5537,2.5654,2.7009,2.8084,2.8094,2.9518,3.0599,3.0592,0.0,3.0598,0.0,0.0,0.0,0.0,3.0694,3.0711,0.0,0.0,0.0,0.0,0.0,3.0202,3.0192,3.0211,3.0586,3.1381,3.226,3.31,3.3899,3.3012,3.1722,3.011,3.0094,3.0101,3.0109,3.0171,3.0211,3.0211,3.0211,3.0211,3.0211,3.0211,3.0249,3.0395,3.1197,3.2031,3.2909,0.0,0.0,3.0414,3.023,3.0241,3.0273,3.0273,3.0333,3.0375,3.0375,3.0392,3.0402,3.0402,3.0501,3.0548,3.0543,3.0535,3.0552,3.0593,3.0593,3.0593,3.0593,3.0593,3.0593,3.0593,3.0593,3.0593,3.0593,3.0647,3.0677,3.0691,3.0741,3.0776,3.08,3.08,3.0808,3.0797,3.0797,3.08,3.0799,3.0799,2.9779,2.8223,2.8223,2.716,2.5701,2.5701,2.5658,2.5605,2.5601,2.5565,2.5534,2.5601,2.5614,2.5627,2.5682,2.5703,2.5703,2.5697,2.5695,2.5693,2.5634,2.5629,2.5629,2.5627,2.5621,2.5607,2.5552,2.5521,2.551,2.5539,2.69,2.8047,2.8094,2.9501,3.0606,3.0602,3.0598,0.0,0.0,3.061,3.0633,3.0687,3.0698,3.0694,0.0,0.0,0.0,0.0,3.0375,3.0303,3.0192,3.0211,3.0586,3.1381,3.226,3.2795,3.3005,3.2726,3.1745,3.0164,3.0116,3.0123,3.0171,3.0185,3.0211,3.0211,3.0211,3.0211,3.0211,3.0211,3.0605,3.1217,3.1369,3.2382,3.3719,3.0234,3.0247,3.026,3.0286,3.0321,3.035,3.035,3.0427,3.0501,3.0501,3.051,3.0533,3.0533,3.0602,3.0642,3.0658,3.0639,3.0656,3.0698,3.0694,3.0699,3.0699,3.0699,3.0699,3.0699,3.0699,3.0699,3.0699,3.0726,3.0757,3.0757,3.0774,3.0805,3.0792,3.0792,3.0798,3.0801,3.0801,3.0798,3.0808,3.0808,2.9763,2.8198,2.8198,2.7156,2.5699,2.5699,2.5658,2.5607,2.5603,2.556,2.5511,2.5537,2.5549,2.5563,2.5621,2.5651,2.5648,2.5654,2.565,2.5645,2.5607,2.5601,2.5601,2.5601,2.5585,2.5542,2.551,2.5499,2.5506,2.5495,2.6893,2.8062,2.8097,2.9505,3.0589,3.0602,3.0598,0.0,3.0598,3.06,3.0614,3.0642,3.0678,3.0707,3.07,3.0703,0.0,3.0448,3.0457,3.0373,3.0218,3.0567,3.1159,3.1992,3.3215,3.3654,3.3299,3.2856,3.1977,3.0739,3.0336,3.0164,3.0211,3.0211,3.0211,3.0211,3.0211,3.0211,3.0249,3.0643,3.1083,3.1599,3.2325,3.3184,3.4052,3.0291,3.0328,3.0333,3.0392,3.0418,3.0423,3.0423,3.0549,3.0613,3.0613,3.0661,3.0694,3.0694,3.0694,3.0704,3.0694,3.0742,3.0789,3.0798,3.0791,3.0799,3.08,3.0799,3.0798,3.0798,3.08,3.0803,3.0805,3.0807,3.0808,3.0808,3.0808,3.0795,3.08,3.08,3.08,3.0795,3.0795,3.0806,3.0806,3.0806,2.9837,2.8385,2.8249,2.7236,2.5874,2.5738,2.5667,2.5605,2.5599,2.5567,2.5502,2.5511,2.5514,2.5517,2.5574,2.5583,2.5583,2.5589,2.5585,2.558,2.558,2.558,2.558,2.558,2.5546,2.5505,2.5505,2.5498,2.5491,2.5496,2.6929,2.8074,2.8087,2.9507,3.0591,3.0592,0.0,3.0598,3.0598,3.06,3.0606,3.0606,3.0668,3.0704,3.0694,3.0691,3.0621,3.0496,3.0482,3.0442,3.039,3.1045,3.1897,3.289,3.4418,3.4808,3.3995,3.3261,3.2374,3.1381,3.0701,3.0319,3.0211,3.0211,3.0211,3.0211,3.0319,3.0376,3.0472,3.135,3.1771,3.2057,3.3479,3.409,3.4273,3.0381,3.0386,3.0392,3.0402,3.0482,3.0563,3.0563,3.0622,3.068,3.068,3.0687,3.0694,3.0694,3.0694,3.0694,3.0701,3.071,3.0733,3.0796,3.0801,3.0807,3.08,3.0809,3.0803,3.0803,3.0801,3.0793,3.0798,3.0801,3.08,3.08,3.08,3.0799,3.0798,3.0798,3.0793,3.0798,3.0798,3.0803,3.0791,3.0791,3.0202,2.9223,2.8483,2.7587,2.6613,2.5933,2.5667,2.5608,2.5603,2.5568,2.5502,2.5573,2.5541,2.5499,2.5506,2.5515,2.552,2.552,2.5515,2.5526,2.5526,2.5526,2.5526,2.5526,2.5518,2.5507,2.5507,2.5499,2.5492,2.5507,2.6885,2.8012,2.8012,2.9459,3.0597,3.0598,0.0,3.0598,3.0598,3.06,3.0606,3.0606,3.0668,3.0694,3.0701,3.0649,3.0565,3.0423,3.0365,3.0592,3.1197,3.1389,3.2229,3.3777,3.4732,3.4808,3.3995,3.3853,3.2993,3.1484,3.1369,3.0892,3.0211,3.0211,3.0211,3.0242,3.093,3.1209,3.1305,3.2164,3.2955,3.3651,3.3899,3.4426,3.5037,3.0482,3.0511,3.052,3.0561,3.0614,3.0653,3.0653,3.0676,3.0694,3.0694,3.0694,3.0694,3.0694,3.0704,3.0706,3.0706,3.0726,3.076,3.0806,3.0801,3.0807,3.0798,3.0797,3.0795,3.0795,3.0799,3.0801,3.08,3.0798,3.0797,3.0797,3.0797,3.0794,3.0806,3.0806,3.0795,3.0808,3.0808,3.0798,3.0801,3.0801,3.0275,2.9399,2.8522,2.7665,2.6788,2.5991,2.5673,2.5643,2.5612,2.5573,2.5568,2.5582,2.558,2.5554,2.5515,2.5506,2.5499,2.5494,2.5499,2.5507,2.5507,2.5507,2.5507,2.5507,2.5507,2.5507,2.5507,2.5507,2.5623,2.6068,2.7155,2.8146,2.8629,2.9766,0.0,0.0,3.0598,3.0598,3.0598,3.06,3.0597,3.0591,3.0657,3.0694,3.0694,3.0634,3.0557,3.0467,3.0802,3.1341,3.2076,3.2592,3.3433,3.4636,3.5018,3.5018,3.4636,3.4205,3.3593,3.2821,3.2363,3.1935,3.156,3.156,3.156,3.158,3.1954,3.2107,3.2183,3.307,3.3643,3.4052,3.4483,3.4885,3.5209,3.0593,3.0621,3.0637,3.0687,3.0694,3.0694,3.0694,3.0694,3.0694,3.0694,3.0707,3.0698,3.0698,3.0711,3.072,3.072,3.0768,3.0809,3.08,3.0798,3.0799,3.08,3.08,3.08,3.08,3.08,3.0797,3.0793,3.0809,3.0807,3.0807,3.0807,3.08,3.0803,3.0803,3.0808,3.0801,3.0801,3.0801,3.0801,3.0801,3.0392,2.971,2.8834,2.7957,2.708,2.6264,2.5855,2.5697,2.5641,2.5612,2.5605,2.5601,2.5582,2.5567,2.5522,2.5506,2.5507,2.5507,2.5507,2.5507,2.5507,2.5507,2.5507,2.5507,2.5507,2.5507,2.5507,2.5507,2.5758,2.6551,2.7406,2.8281,2.9171,0.0,0.0,0.0,3.0598,3.0598,3.0598,3.061,3.06,3.0597,3.0661,3.068,3.068,3.061,3.0612,3.0752,3.1255,3.1999,3.2974,3.3834,3.4579,3.519,3.5209,3.5209,3.519,3.456,3.4186,3.3975,3.3318,3.289,3.2691,3.2653,3.2661,3.2711,3.2843,3.2947,3.3081,3.3949,3.4273,3.435,3.498,3.5209,3.5209,3.0687,3.0687,3.0687,3.0694,3.0694,3.0694,3.0694,3.0694,3.0694,3.0694,3.0706,3.0697,3.0697,3.0758,3.0798,3.0798,3.0799,3.0793,3.08,3.08,3.08,3.0799,3.08,3.0798,3.08,3.08,3.0792,3.0795,3.0806,3.0808,3.0808,3.0808,3.0808,3.0806,3.0806,3.0804,3.0801,3.0801,3.0801,3.0801,3.0801,3.0762,3.0606,2.9749,2.8853,2.7996,2.7119,2.6322,2.5699,2.5697,2.5645,2.5608,2.5605,2.5568,2.5518,2.5495,2.5506,2.5507,2.5507,2.5507,2.5507,2.5507,2.5507,2.5507,2.5507,2.5507,2.5507,2.5507,2.5507,2.5758,2.6551,2.7406,2.8281,2.9171,0.0,0.0,3.0598,3.0598,3.0598,3.0598,3.0602,3.0597,3.0597,3.0606,3.061,3.061,3.0492,3.0739,3.148,3.1442,3.2179,3.3861,3.4694,3.5152,3.5209,3.5209,3.5209,3.5209,3.5152,3.4713,3.3995,3.3937,3.3452,3.2684,3.2495,3.252,3.2741,3.3301,3.3686,3.3968,3.4808,3.5114,3.5114,3.519,3.5209,3.5209,3.0694,3.0694,3.0694,3.0694,3.0694,3.0694,3.0694,3.0707,3.0692,3.0692,3.0739,3.0764,3.0764,3.0788,3.0798,3.0798,3.0801,3.0798,3.0807,3.0809,3.0809,3.0807,3.0794,3.0795,3.0808,3.0801,3.0807,3.0804,3.0808,3.0801,3.0801,3.0801,3.0801,3.0801,3.0801,3.0801,3.0801,3.0801,3.0742,3.0671,3.0671,3.0646,3.0521,2.9644,2.9101,2.871,2.7833,2.7002,2.633,2.633,2.5936,2.5479,2.5489,2.5464,2.543,2.5389,2.5376,2.5376,2.5376,2.544,2.5507,2.5507,2.5507,2.5507,2.5507,2.5507,2.5507,2.5507,2.5894,2.6493,2.7348,2.8219,2.9093,2.9959,0.0,3.0598,3.0598,3.0598,3.0598,3.0598,3.0598,3.0597,3.0602,3.0561,3.077,3.1295,3.122,3.1505,3.2359,3.2788,3.3547,3.4713,3.5037,3.5209,3.5209,3.5209,3.5209,3.5209,3.5209,3.5037,3.4732,3.4732,3.4494,3.4059,3.3979,3.3904,3.3857,3.4235,3.448,3.459,3.5034,3.5209,3.5209,3.5209,3.5209,3.5209,3.0694,3.0694,3.0701,3.0701,3.0704,3.071,3.0731,3.0726,3.0726,3.0726,3.0777,3.0792,3.0792,3.0801,3.0799,3.0799,3.081,3.0799,3.0795,3.0799,3.0799,3.0795,3.0799,3.0795,3.0799,3.0798,3.0808,3.0801,3.0801,3.0801,3.0801,3.0801,3.0801,3.0801,3.0801,3.0801,3.0799,3.0764,3.0675,3.0593,3.0587,3.0539,3.0419,2.9834,2.9447,2.9114,2.853,2.7776,2.7084,2.7084,2.6678,2.6172,2.6157,2.5976,2.5736,2.5682,2.5471,2.526,2.526,2.5336,2.5419,2.548,2.5507,2.5507,2.5507,2.5507,2.5565,2.5816,2.6319,2.7054,2.8204,2.89,2.9592,3.0462,3.0598,3.0598,3.0598,3.0598,3.0598,3.0598,3.0583,3.069,3.0944,3.0926,3.1231,3.2077,3.2066,3.2359,3.3196,3.3964,3.4636,3.519,3.5209,3.5209,3.5209,3.5209,3.5209,3.5209,3.5209,3.5209,3.5209,3.5209,3.5124,3.4992,3.4851,3.4723,3.4632,3.4662,3.4772,3.4898,3.5054,3.5141,3.5209,3.5209,3.5209,3.5209,3.0694,3.0694,3.0695,3.0694,3.0704,3.072,3.0796,3.08,3.0801,3.0801,3.0798,3.0801,3.0801,3.0793,3.08,3.08,3.08,3.08,3.08,3.08,3.08,3.082,3.08,3.0815,3.0819,3.0817,3.0827,3.0821,3.0821,3.0821,3.0821,3.0801,3.0801,3.0801,3.0799,3.0799,3.0796,3.0662,3.0593,3.0586,3.0537,3.0496,3.0496,3.0496,2.995,2.9211,2.9211,2.8641,2.7902,2.7902,2.7902,2.7889,2.7816,2.7204,2.6504,2.6504,2.5896,2.5231,2.5231,2.5231,2.5268,2.5455,2.5507,2.5507,2.5507,2.5507,2.5739,2.6528,2.6702,2.7247,2.8973,2.9306,2.9592,3.0462,3.0598,3.0598,3.0598,3.0598,3.0617,3.0617,3.0554,3.0867,3.1714,3.175,3.2041,3.284,3.291,3.3241,3.3964,3.477,3.5209,3.5209,3.5209,3.5209,3.5209,3.5209,3.5209,3.5209,3.5209,3.5209,3.5209,3.5209,3.5201,3.5166,3.4695,3.4653,3.4851,3.439,3.4469,3.4908,3.4908,3.5028,3.5209,3.5209,3.5209,3.5209,3.07,3.073,3.0776,3.0765,3.0767,3.0771,3.0799,3.0793,3.0799,3.0799,3.0799,3.0791,3.0791,3.0805,3.08,3.08,3.08,3.1055,3.166,3.1719,3.1992,3.2596,3.2031,3.1712,3.1714,3.2301,3.2623,3.2616,3.2616,3.2616,3.2616,3.1992,3.1702,3.168,3.0978,3.0662,3.0659,3.0564,3.0482,3.0388,3.0375,3.0333,3.0292,3.0292,3.0139,2.9902,2.9902,2.934,2.8605,2.8605,2.8222,2.7742,2.7675,2.7478,2.7249,2.7216,2.7058,2.688,2.688,2.688,2.6625,2.5561,2.5284,2.5284,2.5284,2.5759,2.6274,2.6569,2.7581,2.8579,2.9196,2.9805,3.0308,3.0559,3.0598,3.0598,3.0598,3.1046,3.137,3.137,3.1814,3.2231,3.2542,3.2481,3.2781,3.3666,3.4215,3.4607,3.4827,3.5076,3.5209,3.5209,3.5209,3.5209,3.5209,3.5209,3.5209,3.5209,3.5209,3.5209,3.5209,3.5209,3.5115,3.4963,3.4634,3.4472,3.439,3.4269,3.4379,3.4643,3.4831,3.5028,3.5209,3.5209,3.5209,3.5209,3.073,3.0768,3.0804,3.0793,3.0793,3.0795,3.08,3.08,3.0798,3.0798,3.081,3.08,3.08,3.08,3.08,3.08,3.1114,3.1543,3.2071,3.2422,3.2851,3.3377,3.3222,3.2961,3.2611,3.312,3.3403,3.3397,3.3397,3.3365,3.332,3.2775,3.2506,3.2418,3.1457,3.1045,3.1017,3.0593,3.0375,3.0302,3.0273,3.0241,3.0211,3.0211,3.0211,3.0211,3.0211,2.986,2.9414,2.9414,2.9076,2.8647,2.8588,2.8327,2.8032,2.7986,2.7773,2.7561,2.7561,2.7561,2.7328,2.6346,2.6151,2.6178,2.6178,2.66,2.7077,2.7465,2.836,2.9179,2.9624,3.0136,3.0483,3.0483,3.0483,3.0598,3.0901,3.1351,3.1751,3.209,3.2509,3.2896,3.3266,3.3225,3.3547,3.4465,3.4952,3.5209,3.5209,3.5209,3.5209,3.5209,3.5209,3.5209,3.5209,3.5209,3.5209,3.5209,3.5209,3.5209,3.5209,3.5209,3.5132,3.501,3.4645,3.442,3.4302,3.4117,3.4179,3.4405,3.4567,3.4803,3.5081,3.5081,3.5124,3.5209,3.0804,3.0806,3.0793,3.0801,3.0801,3.0799,3.0804,3.08,3.08,3.08,3.08,3.08,3.08,3.08,3.08,3.08,3.1602,3.2169,3.2325,3.3085,3.3552,3.363,3.4393,3.4445,3.3624,3.3626,3.3616,3.3604,3.3604,3.355,3.3405,3.3328,3.3222,3.3072,3.2192,3.1762,3.1621,3.076,3.0367,3.0297,3.0221,3.0211,3.0211,3.0211,3.0211,3.0211,3.0211,3.0211,3.0211,3.0211,3.0161,3.011,3.0102,2.9509,2.8825,2.8825,2.8294,2.7714,2.7714,2.7714,2.7714,2.7714,2.7819,2.7867,2.7713,2.7733,2.8026,2.883,2.904,2.9334,3.0152,3.0292,3.0292,3.0292,3.0292,3.0573,3.1391,3.1557,3.1926,3.2788,3.2894,3.3191,3.3936,3.4007,3.4339,3.5144,3.5201,3.5201,3.5201,3.5201,3.5209,3.5209,3.5209,3.5209,3.5209,3.5209,3.5209,3.5209,3.5209,3.5209,3.5209,3.5209,3.5209,3.5185,3.4734,3.4529,3.4475,3.403,3.3985,3.4209,3.4221,3.4502,3.4889,3.4927,3.5046,3.5209,3.08,3.08,3.0793,3.0809,3.0808,3.0807,3.0801,3.08,3.08,3.08,3.08,3.08,3.08,3.08,3.08,3.08,3.1602,3.2677,3.4042,3.4315,3.4725,3.5407,3.5621,3.5582,3.5281,3.5383,3.5368,3.5201,3.5201,3.5157,3.5058,3.4376,3.4051,3.3986,3.306,3.2261,3.1607,3.1283,3.08,3.0214,3.0199,3.0211,3.0211,3.0211,3.0211,3.0211,3.0211,3.0211,3.0211,3.0211,3.0197,3.0176,3.0128,2.995,2.9798,2.9741,2.9569,2.9385,2.9385,2.9385,2.9385,2.9385,2.9406,2.9095,2.7818,2.802,2.8574,2.8864,2.9412,2.9956,3.0254,3.0292,3.0292,3.0292,3.0292,3.0573,3.1391,3.2003,3.2668,3.3481,3.4086,3.4508,3.4734,3.4807,3.4937,3.517,3.5198,3.5198,3.5198,3.5204,3.5209,3.5209,3.5209,3.5209,3.5209,3.5209,3.5209,3.5209,3.5209,3.5209,3.5209,3.5209,3.5209,3.5193,3.4926,3.4684,3.4486,3.4227,3.4148,3.4221,3.4371,3.4622,3.4927,3.5081,3.5157,3.5209,3.0796,3.0809,3.08,3.08,3.08,3.08,3.08,3.08,3.08,3.08,3.08,3.08,3.08,3.08,3.0976,3.1387,3.2597,3.3729,3.4647,3.5096,3.5524,3.5973,3.5933,3.588,3.5804,3.5817,3.5757,3.565,3.565,3.56,3.5482,3.5032,3.4783,3.4692,3.381,3.3168,3.2682,3.1781,3.1159,3.0739,3.0357,3.0211,3.0211,3.0211,3.0211,3.0211,3.0211,3.0211,3.0204,3.0164,3.015,3.0147,3.0064,3.0026,3.0007,2.9964,2.9932,2.9897,2.9897,2.9897,2.9897,2.9897,2.9913,2.972,2.8851,2.8968,2.9287,2.9357,2.9715,3.0034,3.0101,3.0109,3.0109,3.0109,3.0452,3.1005,3.1817,3.2618,3.3413,3.423,3.4661,3.4927,3.5001,3.5029,3.5092,3.5191,3.52,3.5189,3.5196,3.5193,3.5209,3.5209,3.5209,3.5209,3.5209,3.5209,3.5209,3.5209,3.5209,3.5209,3.5209,3.5209,3.5209,3.5193,3.4992,3.4831,3.4663,3.4333,3.4197,3.4197,3.4172,3.4337,3.4577,3.4674,3.486,3.5072,3.08,3.08,3.08,3.08,3.08,3.08,3.08,3.08,3.08,3.08,3.08,3.08,3.08,3.0937,3.1368,3.2246,3.3788,3.4764,3.4901,3.5602,3.5989,3.5985,3.5883,3.5795,3.5745,3.5645,3.5574,3.5579,3.5579,3.5495,3.5376,3.5376,3.5304,3.5171,3.4503,3.4128,3.3918,3.2458,3.1763,3.1553,3.0758,3.0414,3.0414,3.0268,3.0211,3.0211,3.0211,3.0211,3.0185,3.0116,3.0106,3.0095,3.0022,2.9956,2.9905,2.9897,2.9897,2.9897,2.9897,2.9897,2.9897,2.9897,2.9948,2.9964,2.9905,2.9905,2.9905,2.9897,2.9897,2.9897,2.9897,3.0029,3.0124,3.0124,3.0844,3.1678,3.252,3.324,3.3998,3.4794,3.4908,3.4927,3.5001,3.5001,3.5114,3.5373,3.5401,3.5465,3.5613,3.5621,3.563,3.563,3.563,3.563,3.563,3.563,3.563,3.563,3.563,3.5477,3.5209,3.5209,3.5209,3.5201,3.5028,3.4917,3.486,3.448,3.4262,3.4185,3.3992,3.403,3.4209,3.4305,3.4567,3.4936,3.08,3.08,3.08,3.08,3.08,3.08,3.08,3.08,3.08,3.08,3.08,3.08,3.08,3.1465,3.2285,3.3143,3.4139,3.5018,3.5778,3.5934,3.598,3.5921,3.5892,3.5776,3.5554,3.5531,3.5489,3.5425,3.5425,3.5369,3.5223,3.5223,3.5226,3.5209,3.5095,3.4655,3.3975,3.3746,3.3203,3.2451,3.1656,3.1312,3.1236,3.0491,3.0211,3.0211,3.0211,3.0211,3.0185,3.0116,3.0101,3.0087,3.0011,2.998,2.9991,2.9924,2.9897,2.9897,2.9897,2.9897,2.9897,2.9897,2.9916,2.9905,2.9897,2.9948,2.9964,2.9905,2.9897,2.9897,2.9897,3.0522,3.1014,3.1014,3.1715,3.2539,3.3392,3.3638,3.3998,3.4794,3.4908,3.4927,3.5001,3.5001,3.5333,3.6082,3.6203,3.6573,3.7315,3.7351,3.7349,3.7349,3.7349,3.7349,3.7349,3.7349,3.7349,3.7349,3.7349,3.6604,3.5209,3.5209,3.5209,3.5201,3.5166,3.5063,3.4908,3.4831,3.4567,3.4203,3.4341,3.4325,3.4257,3.467,3.4841,3.4936,3.08,3.08,3.08,3.08,3.08,3.08,3.08,3.08,3.08,3.08,3.08,3.08,3.08,3.2012,3.2988,3.3377,3.4608,3.5533,3.5923,3.5875,3.582,3.5799,3.572,3.5392,3.4782,3.4705,3.4405,3.3882,3.4821,3.5262,3.5209,3.5209,3.5209,3.5209,3.5209,3.4999,3.4636,3.4178,3.3777,3.3356,3.2508,3.2164,3.2126,3.1744,3.1312,3.0854,3.0376,3.0211,3.0185,3.0116,3.0094,3.0167,3.06,3.0728,3.0796,3.1183,3.1316,3.1341,3.1341,3.1324,3.1307,3.1333,3.1341,3.1333,3.1307,3.136,3.1111,3.0113,2.9897,3.0048,3.0541,3.0939,3.1355,3.1791,3.2577,3.3259,3.3657,3.4093,3.4491,3.4851,3.4908,3.4927,3.5001,3.5438,3.5903,3.6319,3.6831,3.7296,3.7686,3.7703,3.7693,3.7693,3.7693,3.7693,3.7693,3.7693,3.7693,3.7693,3.7693,3.7082,3.5927,3.5927,3.566,3.5209,3.5209,3.5141,3.5063,3.4955,3.4782,3.4588,3.4518,3.4442,3.4416,3.4782,3.4908,3.4936]}]]